[[{"header":{"parameterUnit":"m.s-1","parameterCategory":1,"la1":30.6,"la2":29.2853,"lo1":-89.7004,"lo2":-87.6739,"dy":0.0162,"dx":0.0183,"nx":112,"ny":82,"refTime":"2026-02-28T12:00:00:Z","depth":0,"parameterNumber":2,"parameterNumberName":"U-component_of_WINDS"},"data":[0.0,0.0,0.0,0.0,0.0,0.0,0.0,0.0,0.0,0.0,0.0,0.0,0.0,0.0,0.0,0.0,0.0,0.0,0.0,0.0,0.0,0.0,0.0,0.0,0.0,0.0,0.0,0.0,0.0,0.0,0.0,0.0,0.0,0.0,0.0,0.0,0.0,0.0,0.0,0.0,0.0,0.0,0.0,0.0,0.0,0.0,0.0,0.0,0.0,0.0,0.0,0.0,0.0,0.0,0.0,0.0,0.0,0.0,0.0,0.0,0.0,0.0,0.0,0.0,0.0,0.0,0.0,0.0,0.0,0.0,0.0,0.0,0.0,0.0,0.0,0.0,0.0,0.0,0.0,0.0,0.0,0.0,0.0,0.0,0.0,0.0,0.0,0.0,0.0,0.0,-1.5253,-1.6511,-1.8291,-1.9294,-1.9011,-1.8836,-1.7956,-1.6061,0.0,0.0,0.0,0.0,0.0,0.0,0.0,0.0,0.0,0.0,0.0,0.0,0.0,0.0,0.0,0.0,0.0,0.0,0.0,0.0,0.0,0.0,0.0,0.0,0.0,0.0,0.0,0.0,0.0,0.0,0.0,0.0,0.0,0.0,0.0,0.0,0.0,0.0,0.0,0.0,0.0,0.0,0.0,0.0,0.0,0.0,0.0,0.0,0.0,0.0,0.0,0.0,0.0,0.0,0.0,0.0,0.0,0.0,0.0,0.0,0.0,0.0,0.0,0.0,0.0,0.0,0.0,0.0,0.0,0.0,0.0,0.0,0.0,0.0,0.0,0.0,0.0,0.0,0.0,0.0,0.0,0.0,0.0,0.0,0.0,0.0,0.0,0.0,0.0,0.0,0.0,0.0,0.0,0.0,0.0,0.0,0.0,0.0,0.0,0.0,0.0,0.0,0.0,0.0,-1.4928,-1.7849,-1.8906,-1.9374,-1.9334,-1.8583,-1.7689,-1.6633,0.0,0.0,0.0,0.0,0.0,0.0,0.0,0.0,0.0,0.0,0.0,0.0,0.0,0.0,0.0,0.0,0.0,0.0,0.0,0.0,0.0,0.0,0.0,0.0,0.0,0.0,0.0,0.0,0.0,0.0,0.0,0.0,0.0,0.0,0.0,0.0,0.0,0.0,0.0,0.0,0.0,0.0,0.0,0.0,0.0,0.0,0.0,0.0,0.0,0.0,0.0,0.0,0.0,0.0,0.0,0.0,0.0,0.0,0.0,0.0,0.0,0.0,0.0,0.0,0.0,0.0,0.0,0.0,0.0,0.0,0.0,0.0,0.0,0.0,0.0,0.0,0.0,0.0,0.0,0.0,0.0,0.0,0.0,0.0,0.0,0.0,0.0,0.0,0.0,0.0,0.0,0.0,0.0,0.0,0.0,0.0,0.0,0.0,0.0,0.0,0.0,0.0,0.0,-1.487,-1.6155,-1.8477,-1.9134,-1.9401,-1.9401,-1.8704,-1.7809,-1.6767,-1.5311,0.0,0.0,0.0,0.0,0.0,0.0,0.0,0.0,0.0,0.0,0.0,0.0,0.0,0.0,0.0,0.0,0.0,0.0,0.0,0.0,0.0,0.0,0.0,0.0,0.0,0.0,0.0,0.0,0.0,0.0,0.0,0.0,0.0,0.0,0.0,0.0,0.0,0.0,0.0,0.0,0.0,0.0,0.0,0.0,0.0,0.0,0.0,0.0,0.0,0.0,0.0,0.0,0.0,0.0,0.0,0.0,0.0,0.0,0.0,0.0,0.0,0.0,0.0,0.0,0.0,0.0,0.0,0.0,0.0,0.0,0.0,0.0,0.0,0.0,0.0,0.0,0.0,0.0,0.0,0.0,0.0,0.0,0.0,0.0,0.0,0.0,0.0,0.0,0.0,0.0,0.0,0.0,0.0,0.0,0.0,0.0,0.0,0.0,0.0,0.0,0.0,0.0,-1.6687,-1.7622,-1.8891,-1.9254,-1.9401,-1.9401,-1.8719,-1.7822,-1.6767,-1.4923,0.0,0.0,0.0,0.0,0.0,0.0,0.0,0.0,0.0,0.0,0.0,0.0,0.0,0.0,0.0,0.0,0.0,0.0,0.0,0.0,0.0,0.0,0.0,0.0,0.0,0.0,0.0,0.0,0.0,0.0,0.0,0.0,0.0,0.0,0.0,0.0,0.0,0.0,0.0,0.0,0.0,0.0,0.0,0.0,0.0,0.0,0.0,0.0,0.0,0.0,0.0,0.0,0.0,0.0,0.0,0.0,0.0,0.0,0.0,0.0,0.0,0.0,0.0,0.0,0.0,0.0,0.0,0.0,0.0,0.0,0.0,0.0,0.0,0.0,0.0,0.0,0.0,0.0,0.0,0.0,0.0,0.0,0.0,0.0,0.0,0.0,0.0,0.0,0.0,0.0,0.0,0.0,0.0,0.0,0.0,0.0,0.0,0.0,0.0,0.0,0.0,0.0,-1.7154,-1.8639,-1.9294,-1.9388,-1.9401,-1.9401,-1.8344,-1.7382,-1.674,-1.4549,0.0,0.0,0.0,0.0,0.0,0.0,0.0,0.0,0.0,0.0,0.0,0.0,0.0,0.0,0.0,0.0,0.0,0.0,0.0,0.0,0.0,0.0,0.0,0.0,0.0,0.0,0.0,0.0,0.0,0.0,0.0,0.0,0.0,0.0,0.0,0.0,0.0,0.0,0.0,0.0,0.0,0.0,0.0,0.0,0.0,0.0,0.0,0.0,0.0,0.0,0.0,0.0,0.0,0.0,0.0,0.0,0.0,0.0,0.0,0.0,0.0,0.0,0.0,0.0,0.0,0.0,0.0,0.0,0.0,0.0,0.0,0.0,0.0,0.0,0.0,0.0,0.0,0.0,0.0,0.0,0.0,0.0,0.0,0.0,0.0,0.0,0.0,0.0,0.0,0.0,0.0,0.0,0.0,0.0,0.0,0.0,0.0,0.0,0.0,0.0,0.0,0.0,-1.6899,-1.8317,0.0,-1.9562,-1.9589,-1.9415,-1.8652,-1.7742,-1.6767,0.0,0.0,0.0,0.0,0.0,0.0,0.0,0.0,0.0,0.0,0.0,0.0,0.0,0.0,0.0,0.0,0.0,0.0,0.0,0.0,0.0,0.0,0.0,0.0,0.0,0.0,0.0,0.0,0.0,0.0,0.0,0.0,0.0,0.0,0.0,0.0,0.0,0.0,0.0,0.0,0.0,0.0,0.0,0.0,0.0,0.0,0.0,0.0,0.0,0.0,0.0,0.0,0.0,0.0,0.0,0.0,0.0,0.0,0.0,0.0,0.0,0.0,0.0,0.0,0.0,0.0,0.0,0.0,0.0,0.0,0.0,0.0,0.0,0.0,0.0,0.0,0.0,0.0,0.0,0.0,0.0,0.0,0.0,0.0,0.0,0.0,0.0,0.0,0.0,0.0,0.0,0.0,0.0,0.0,0.0,0.0,0.0,0.0,0.0,0.0,0.0,0.0,-1.5324,-1.6981,-1.8424,0.0,-1.9907,-2.0,-1.9829,-1.9078,-1.8076,-1.678,0.0,0.0,0.0,0.0,0.0,0.0,0.0,0.0,0.0,0.0,0.0,0.0,0.0,0.0,0.0,0.0,0.0,0.0,0.0,0.0,0.0,0.0,0.0,0.0,0.0,0.0,0.0,0.0,0.0,0.0,0.0,0.0,0.0,0.0,0.0,0.0,0.0,0.0,0.0,0.0,0.0,0.0,0.0,0.0,0.0,0.0,0.0,0.0,0.0,0.0,0.0,0.0,0.0,0.0,0.0,0.0,0.0,0.0,0.0,0.0,0.0,0.0,0.0,0.0,0.0,0.0,0.0,0.0,0.0,0.0,0.0,0.0,0.0,0.0,0.0,0.0,0.0,0.0,0.0,0.0,0.0,0.0,0.0,0.0,0.0,0.0,0.0,0.0,0.0,0.0,0.0,0.0,0.0,0.0,0.0,0.0,0.0,0.0,0.0,0.0,0.0,0.0,-1.5621,-1.7622,-1.925,-2.0117,-2.0508,-2.0712,-2.0712,-1.9613,-1.8263,0.0,0.0,0.0,0.0,0.0,0.0,0.0,0.0,0.0,0.0,0.0,0.0,0.0,0.0,0.0,0.0,0.0,0.0,0.0,0.0,0.0,0.0,0.0,0.0,0.0,0.0,0.0,0.0,0.0,0.0,0.0,0.0,0.0,0.0,0.0,0.0,0.0,0.0,0.0,0.0,0.0,0.0,0.0,0.0,0.0,0.0,0.0,0.0,0.0,0.0,0.0,0.0,0.0,0.0,0.0,0.0,0.0,0.0,0.0,0.0,0.0,0.0,0.0,0.0,0.0,0.0,0.0,0.0,0.0,0.0,0.0,0.0,0.0,0.0,0.0,0.0,0.0,0.0,0.0,0.0,0.0,0.0,0.0,0.0,0.0,0.0,0.0,0.0,0.0,0.0,0.0,0.0,0.0,0.0,0.0,0.0,0.0,0.0,0.0,0.0,0.0,0.0,0.0,-1.6233,-1.8409,-2.0077,-2.0744,-2.1122,-2.1154,-2.0739,-1.9973,-1.8731,-1.682,0.0,0.0,0.0,0.0,0.0,0.0,0.0,0.0,0.0,0.0,0.0,0.0,0.0,0.0,0.0,0.0,0.0,0.0,0.0,0.0,0.0,0.0,0.0,0.0,0.0,0.0,0.0,0.0,0.0,0.0,0.0,0.0,0.0,0.0,0.0,0.0,0.0,0.0,0.0,0.0,0.0,0.0,0.0,0.0,0.0,0.0,0.0,0.0,0.0,0.0,0.0,0.0,0.0,0.0,0.0,0.0,0.0,0.0,0.0,0.0,0.0,0.0,0.0,0.0,0.0,0.0,0.0,0.0,0.0,0.0,0.0,0.0,0.0,0.0,0.0,0.0,0.0,0.0,0.0,0.0,0.0,0.0,0.0,0.0,0.0,0.0,0.0,0.0,0.0,0.0,0.0,0.0,0.0,0.0,0.0,0.0,0.0,0.0,0.0,0.0,0.0,0.0,-1.6486,-1.8743,-2.0517,-2.1376,-2.1724,-2.175,-2.1403,-2.0842,-1.9573,-1.7355,0.0,0.0,0.0,0.0,0.0,0.0,0.0,0.0,0.0,0.0,0.0,0.0,0.0,0.0,0.0,0.0,0.0,0.0,0.0,0.0,0.0,0.0,0.0,0.0,0.0,0.0,0.0,0.0,0.0,0.0,0.0,0.0,0.0,0.0,0.0,0.0,0.0,0.0,0.0,0.0,0.0,0.0,0.0,0.0,0.0,0.0,0.0,0.0,0.0,0.0,0.0,0.0,0.0,0.0,0.0,0.0,0.0,0.0,0.0,0.0,0.0,0.0,0.0,0.0,0.0,0.0,0.0,0.0,0.0,0.0,0.0,0.0,0.0,0.0,0.0,0.0,0.0,0.0,0.0,0.0,0.0,0.0,0.0,0.0,0.0,0.0,0.0,0.0,0.0,0.0,0.0,0.0,0.0,0.0,0.0,0.0,0.0,0.0,0.0,0.0,0.0,0.0,-1.6593,-1.8863,-2.0802,-2.1951,-2.2298,-2.2411,-2.2385,-2.1917,-2.0605,-1.8222,0.0,0.0,0.0,0.0,0.0,0.0,0.0,0.0,0.0,0.0,0.0,0.0,0.0,0.0,0.0,0.0,0.0,0.0,0.0,0.0,0.0,0.0,0.0,0.0,0.0,0.0,0.0,0.0,0.0,0.0,0.0,0.0,0.0,0.0,0.0,0.0,0.0,0.0,0.0,0.0,0.0,0.0,0.0,0.0,0.0,0.0,0.0,0.0,0.0,0.0,0.0,0.0,0.0,0.0,0.0,0.0,0.0,0.0,0.0,0.0,-1.7175,0.0,0.0,0.0,0.0,0.0,0.0,0.0,0.0,0.0,0.0,0.0,0.0,0.0,0.0,0.0,0.0,0.0,0.0,0.0,0.0,0.0,0.0,0.0,0.0,0.0,0.0,0.0,0.0,0.0,0.0,0.0,0.0,0.0,0.0,0.0,0.0,0.0,0.0,0.0,0.0,0.0,-1.7476,-1.9813,-2.1662,-2.2612,-2.276,-2.2672,-2.2432,-2.1917,-2.0779,-1.8823,-1.7061,0.0,0.0,0.0,0.0,0.0,0.0,0.0,0.0,0.0,0.0,0.0,0.0,0.0,0.0,0.0,0.0,0.0,0.0,0.0,0.0,0.0,0.0,0.0,0.0,0.0,0.0,0.0,0.0,0.0,0.0,0.0,0.0,0.0,0.0,0.0,0.0,0.0,0.0,0.0,0.0,0.0,0.0,0.0,0.0,0.0,0.0,0.0,0.0,0.0,0.0,0.0,0.0,0.0,0.0,0.0,0.0,0.0,0.0,0.0,0.0,-1.7356,0.0,0.0,0.0,0.0,0.0,0.0,0.0,0.0,0.0,0.0,0.0,0.0,0.0,0.0,0.0,0.0,0.0,0.0,0.0,0.0,0.0,0.0,0.0,0.0,0.0,0.0,0.0,0.0,0.0,0.0,0.0,0.0,0.0,0.0,0.0,0.0,0.0,0.0,0.0,0.0,-1.7982,-2.0217,-2.1917,-2.28,-2.2893,-2.284,-2.2645,-2.2231,-2.1336,-1.9853,-1.8237,0.0,0.0,0.0,0.0,0.0,0.0,0.0,0.0,0.0,0.0,0.0,0.0,0.0,0.0,0.0,0.0,0.0,0.0,0.0,0.0,0.0,0.0,0.0,0.0,0.0,0.0,0.0,0.0,0.0,0.0,0.0,0.0,0.0,0.0,0.0,0.0,0.0,0.0,0.0,0.0,0.0,0.0,0.0,0.0,0.0,0.0,0.0,0.0,0.0,0.0,0.0,0.0,0.0,-2.3585,-2.2975,-2.1262,-2.1471,-2.1307,-2.0824,-1.9677,-1.8863,-1.8316,-1.7622,0.0,0.0,0.0,0.0,0.0,0.0,0.0,0.0,0.0,0.0,0.0,0.0,0.0,0.0,0.0,0.0,0.0,0.0,0.0,0.0,0.0,0.0,0.0,0.0,-1.9093,-1.9174,0.0,0.0,0.0,0.0,0.0,0.0,0.0,0.0,0.0,0.0,0.0,0.0,-1.841,-2.0418,-2.1997,-2.288,-2.2974,-2.3,-2.3054,-2.2699,-2.2058,-2.1074,-1.9559,-1.8036,0.0,0.0,0.0,0.0,0.0,0.0,0.0,0.0,0.0,0.0,0.0,0.0,0.0,0.0,0.0,0.0,0.0,0.0,0.0,0.0,0.0,0.0,0.0,0.0,0.0,0.0,0.0,0.0,0.0,0.0,0.0,0.0,-1.7165,-1.7312,0.0,0.0,0.0,0.0,0.0,0.0,0.0,0.0,0.0,0.0,0.0,0.0,0.0,-2.2324,-2.3081,-2.6186,-2.6778,-2.4855,-2.6311,-2.5734,-2.3388,-2.3429,-2.3547,-2.3688,-2.3705,0.0,-1.9903,-1.9783,0.0,0.0,0.0,0.0,0.0,0.0,0.0,0.0,0.0,0.0,0.0,0.0,0.0,0.0,0.0,0.0,0.0,0.0,0.0,0.0,0.0,0.0,-2.0967,-2.1047,-2.1381,-2.1502,0.0,-1.8531,-1.6286,-1.5267,-1.4469,0.0,0.0,0.0,0.0,0.0,0.0,0.0,-1.9053,-2.0846,-2.2271,-2.3132,-2.326,-2.3367,-2.3669,-2.3161,-2.2666,-2.2218,-2.0575,-1.9412,-1.8946,-1.7046,0.0,0.0,0.0,0.0,0.0,0.0,0.0,0.0,0.0,0.0,0.0,0.0,0.0,0.0,0.0,0.0,0.0,0.0,0.0,0.0,0.0,0.0,0.0,0.0,0.0,0.0,0.0,0.0,0.0,-1.7165,-1.843,-1.821,-1.9146,-1.9163,0.0,0.0,0.0,0.0,0.0,0.0,0.0,0.0,0.0,-2.23,-2.4106,-2.5534,-2.6512,-2.9547,-3.0293,-2.8742,-2.9904,-2.9565,-2.7872,-2.8066,-2.7811,-2.7197,-2.73,-2.6056,-2.3772,-2.2105,-2.0708,-1.9479,0.0,0.0,0.0,0.0,-1.8436,-1.8796,-1.9826,-2.0177,0.0,-2.0027,0.0,0.0,0.0,0.0,0.0,0.0,0.0,0.0,0.0,0.0,0.0,-2.2719,-2.3054,-2.3153,-2.2893,-2.1448,-1.9642,0.0,-1.7074,-1.6139,-1.4055,0.0,0.0,0.0,0.0,-1.8477,-1.995,-2.1529,-2.2699,-2.3225,-2.3474,-2.3634,-2.379,-2.3562,-2.3201,-2.2699,-2.179,-2.0989,-2.0374,-1.8866,-1.7622,0.0,0.0,0.0,0.0,0.0,0.0,0.0,0.0,0.0,0.0,0.0,0.0,0.0,0.0,0.0,0.0,0.0,0.0,0.0,0.0,0.0,0.0,0.0,0.0,0.0,0.0,0.0,0.0,-1.8686,-1.9732,-1.9218,-2.0778,-2.0979,0.0,0.0,0.0,0.0,0.0,0.0,-2.35,-2.3797,-2.4452,-2.5548,-2.7334,-2.8725,-2.9593,-3.2191,-3.2979,-3.1953,-3.2657,-3.2408,-3.1401,-3.1593,-3.1097,-3.009,-3.009,-2.9116,-2.7224,-2.439,-2.2739,-2.1897,-2.0815,-2.0365,-2.0351,-2.0842,-2.1037,-2.1349,-2.2806,-2.3126,-2.2846,-2.2666,0.0,-2.0815,-1.9227,0.0,0.0,0.0,0.0,-1.9867,-2.1483,-2.2445,-2.3193,-2.4022,-2.4382,-2.4476,-2.4262,-2.3723,-2.2546,0.0,-1.949,-1.8557,-1.5992,0.0,0.0,0.0,0.0,-1.9679,-2.0886,-2.2131,-2.3067,-2.35,-2.3754,-2.395,-2.3981,-2.3928,-2.3723,-2.3268,-2.2859,-2.2325,-2.159,-2.0605,-1.9546,-1.8489,0.0,0.0,0.0,0.0,0.0,0.0,0.0,0.0,0.0,0.0,0.0,0.0,0.0,0.0,0.0,0.0,0.0,0.0,0.0,0.0,0.0,0.0,0.0,0.0,0.0,0.0,0.0,0.0,0.0,-2.05,-2.2561,0.0,0.0,0.0,0.0,-2.2657,-2.428,-2.5243,-2.5265,-2.6945,-2.7748,-2.7359,-2.9733,-3.1012,-3.1012,-3.3211,-3.3929,-3.3135,-3.3549,-3.3274,-3.2427,-3.2029,-3.1863,-3.1762,-3.1762,-3.0783,-2.8975,-2.64,-2.4959,-2.4332,-2.3439,-2.2953,-2.276,-2.3046,-2.3354,-2.3688,-2.4329,-2.4356,-2.4249,-2.505,-2.3968,-2.2258,-2.1884,-2.0962,0.0,0.0,-2.155,-2.2498,-2.3728,-2.4289,-2.4639,-2.5277,-2.5438,-2.5438,-2.5424,-2.4743,-2.3674,0.0,-2.1194,-2.0391,-1.9639,0.0,-1.8865,-1.9134,-1.9733,-2.0557,-2.1764,-2.2505,-2.3228,-2.4062,-2.4168,-2.4289,-2.4532,-2.4342,-2.4168,-2.4142,-2.3594,-2.3126,-2.2827,-2.2211,-2.1176,-1.9746,-1.8489,0.0,0.0,0.0,0.0,0.0,0.0,0.0,0.0,0.0,0.0,0.0,0.0,0.0,0.0,0.0,0.0,0.0,0.0,0.0,0.0,0.0,0.0,0.0,0.0,0.0,0.0,0.0,0.0,-2.2855,-2.4801,0.0,-2.3639,-2.4317,-2.4977,-2.5271,-2.7013,-2.8334,-2.8858,-2.9319,-2.9579,-2.968,-3.1299,-3.2146,-3.211,-3.4414,-3.5412,-3.5129,-3.5523,-3.5559,-3.5288,-3.5393,-3.4809,-3.3759,-3.3759,-3.2803,-3.1005,-2.885,-2.7192,-2.5947,-2.5491,-2.5237,-2.5144,-2.5251,-2.5478,-2.5758,-2.5933,-2.5933,-2.5852,-2.5598,-2.4756,-2.3679,-2.3046,-2.2552,-2.2238,-2.2472,-2.3033,-2.3754,-2.4556,-2.513,-2.5583,-2.5784,-2.5837,-2.5745,-2.5558,-2.5264,-2.4783,-2.3861,-2.2819,-2.1756,-2.0592,-2.0655,-2.0668,-2.0027,-2.0909,-2.1857,-2.2505,-2.3268,-2.3848,-2.4168,-2.4332,-2.4492,-2.4586,-2.4506,-2.4329,-2.3941,-2.3728,-2.338,-2.292,-2.2472,-2.1924,-2.1216,-2.0024,-1.8316,0.0,0.0,0.0,0.0,0.0,0.0,0.0,0.0,0.0,0.0,0.0,0.0,0.0,0.0,0.0,0.0,0.0,0.0,0.0,0.0,0.0,0.0,0.0,0.0,0.0,0.0,-2.4122,-2.4569,-2.649,-2.7243,-2.5756,-2.6811,-2.771,-2.7985,-2.9647,-3.0882,-3.1579,-3.1648,-3.1808,-3.207,-3.2982,-3.3456,-3.3456,-3.5155,-3.6072,-3.6219,-3.6603,-3.686,-3.7006,-3.7134,-3.6559,-3.5463,-3.5463,-3.4499,-3.2787,-3.1614,-3.0161,-2.8459,-2.697,-2.6386,-2.64,-2.6493,-2.672,-2.6974,-2.6974,-2.6974,-2.6854,-2.6172,-2.5625,-2.5144,-2.4613,-2.4466,-2.4452,-2.4382,-2.4716,-2.5157,-2.5451,-2.585,-2.6145,-2.6145,-2.6145,-2.6091,-2.5852,-2.5651,-2.5398,-2.4973,-2.4128,-2.3121,-2.1957,-2.2238,-2.2258,-2.1269,-2.2124,-2.2939,-2.3174,-2.3781,-2.4235,-2.4342,-2.4479,-2.4599,-2.4599,-2.4412,-2.4222,-2.3941,-2.3669,-2.3268,-2.276,-2.2432,-2.2044,-2.1582,-2.0294,-1.8771,-1.6994,0.0,0.0,0.0,0.0,0.0,0.0,0.0,0.0,0.0,0.0,0.0,0.0,0.0,0.0,0.0,0.0,0.0,0.0,0.0,0.0,0.0,0.0,0.0,-2.12,-2.3993,-2.5929,-2.559,-2.7646,-2.8638,-2.7481,-2.8785,-3.0033,-3.0791,-3.1946,-3.279,-3.3177,-3.3982,-3.4403,-3.4403,-3.4789,-3.5009,-3.5009,-3.5412,-3.5834,-3.6219,-3.6585,-3.6988,-3.7336,-3.6951,-3.6786,-3.6786,-3.6786,-3.5858,-3.4312,-3.4667,-3.3824,-3.1913,-2.8083,-2.6585,-2.6546,-2.6827,-2.7081,-2.7336,-2.7336,-2.7322,-2.7269,-2.6934,-2.664,-2.6453,-2.6707,-2.68,-2.6734,-2.644,-2.6573,-2.6734,-2.6453,-2.6386,-2.6386,-2.6386,-2.6386,-2.6386,-2.6373,-2.5932,-2.5531,-2.5504,-2.5013,-2.4476,-2.3937,-2.383,-2.3616,-2.3027,-2.3442,0.0,-2.3817,-2.4035,-2.4329,-2.4559,-2.4586,-2.4586,-2.4586,-2.4102,-2.3924,-2.4155,-2.3375,-2.2746,-2.2398,-2.2138,-2.1622,-2.0779,-1.9308,-1.8237,-1.7675,0.0,0.0,0.0,0.0,0.0,0.0,0.0,0.0,0.0,0.0,0.0,0.0,0.0,0.0,0.0,0.0,0.0,0.0,0.0,0.0,0.0,-2.1548,-2.3332,-2.3332,-2.537,-2.7371,-2.8718,-2.9965,-3.0859,-3.1084,-3.1506,-3.1854,-3.2074,-3.2698,-3.3067,-3.3177,-3.3982,-3.4403,-3.4403,-3.5082,-3.5431,-3.5431,-3.5852,-3.6109,-3.6201,-3.6329,-3.6439,-3.6549,-3.6439,-3.6347,-3.6402,-3.6658,-3.6522,-3.6046,-3.5248,-3.4664,-3.3987,-3.1534,-2.9996,-2.9141,-2.9227,-2.8702,-2.7938,-2.7938,-2.7804,-2.7535,-2.7282,-2.6947,-2.664,-2.6346,-2.6238,-2.6132,-2.5838,-2.5972,-2.6212,-2.6131,-2.6265,-2.6386,-2.6386,-2.6386,-2.6333,-2.6158,-2.6119,-2.5959,-2.5317,-2.5237,-2.509,-2.4466,-2.4222,-2.4022,-2.3861,-2.3981,0.0,-2.4088,-2.4342,-2.4426,-2.4342,-2.4329,-2.4329,-2.4329,-2.3981,-2.3714,-2.3581,-2.2926,-2.2498,-2.2385,-2.2138,-2.1964,-2.1937,-2.0294,-1.9359,0.0,0.0,0.0,0.0,0.0,0.0,0.0,0.0,0.0,0.0,0.0,0.0,0.0,0.0,0.0,0.0,0.0,0.0,0.0,0.0,0.0,0.0,-2.4067,-2.5994,-2.6839,-2.7977,-2.9195,-3.0534,-3.1396,-3.2074,-3.2551,-3.2753,-3.2863,-3.2863,-3.3196,-3.3507,-3.3672,-3.4147,-3.455,-3.4899,-3.5375,-3.5669,-3.587,-3.6091,-3.6201,-3.6201,-3.6201,-3.6201,-3.6219,-3.6347,-3.6438,0.0,-3.686,-3.7043,-3.6985,-3.6302,-3.6005,0.0,0.0,0.0,0.0,0.0,-2.9269,-2.8005,-2.8005,-2.7804,-2.7495,-2.7362,-2.7068,-2.6787,-2.6613,-2.6546,-2.6479,-2.6146,-2.6186,-2.6293,-2.6212,-2.6266,-2.6386,-2.6386,-2.6386,-2.6346,-2.6212,-2.6212,-2.6091,-2.5583,-2.5384,0.0,-2.4877,-2.4546,-2.4302,-2.4062,-2.4222,-2.4342,-2.4222,-2.4412,-2.4532,-2.4359,-2.4382,-2.4382,-2.4382,-2.4008,0.0,0.0,0.0,-2.2258,-2.1884,-2.171,0.0,0.0,0.0,0.0,0.0,0.0,0.0,0.0,-1.9548,-1.9428,0.0,0.0,0.0,0.0,0.0,0.0,0.0,0.0,0.0,0.0,0.0,0.0,0.0,0.0,0.0,0.0,-2.6729,-2.8729,-3.0589,-3.0974,-3.1194,-3.1543,-3.2221,-3.268,-3.2735,-3.3065,-3.3251,-3.3251,-3.3617,-3.4037,-3.4385,0.0,0.0,0.0,0.0,-3.5852,-3.6201,-3.6201,-3.6201,-3.6201,-3.6201,-3.6237,-3.6292,-3.6621,-3.6823,-3.6896,-3.7281,-3.7446,-3.7464,-3.7501,-3.7519,-3.7231,-3.4048,-3.2848,-3.2618,-3.0965,-2.9377,-2.804,-2.7832,0.0,0.0,-2.7362,-2.7108,-2.6907,-2.7148,-2.7255,-2.7161,-2.6894,-2.6787,-2.6734,-2.6547,-2.6466,-2.644,-2.644,-2.6413,-2.6386,-2.6386,-2.6225,-2.6038,-2.5998,-2.5569,-2.5208,-2.513,-2.485,-2.4426,-2.3941,-2.4302,-2.4506,-2.4289,-2.4502,-2.4639,-2.4599,0.0,0.0,-2.4653,-2.4155,-2.387,-2.3897,-2.3086,-2.2258,-2.1443,-2.1443,-2.1456,-2.1456,-2.1964,-2.2645,-2.3439,-2.3768,-2.4235,-2.4706,-2.1211,-2.0895,0.0,0.0,0.0,0.0,0.0,0.0,0.0,0.0,0.0,0.0,0.0,0.0,0.0,0.0,0.0,-2.5958,-2.8205,-3.0094,-3.1157,-3.2096,-3.2738,-3.2829,-3.2976,-3.323,-3.3541,-3.3651,-3.3672,-3.3672,-3.4073,-3.433,-3.4403,-3.5027,-3.5449,-3.5614,-3.5925,-3.6127,-3.6201,-3.6201,-3.6201,-3.6201,0.0,0.0,-3.6676,-3.6768,-3.697,-3.7299,-3.7684,-3.7867,-3.7924,-3.8234,-3.8362,-3.8128,-3.5741,-3.4852,-3.4505,-3.172,-3.0493,-2.9994,-2.8589,-2.7898,-2.7615,-2.7615,-2.7415,-2.7148,-2.6961,-2.6907,0.0,-2.6841,-2.6787,-2.6867,-2.7095,-2.6921,-2.6734,-2.6734,-2.656,-2.6386,-2.6386,-2.6346,-2.6279,-2.6038,-2.5904,-2.5743,-2.5464,-2.4983,-2.4559,-2.4452,-2.4532,-2.4572,-2.4519,-2.481,-2.4903,-2.4626,-2.485,-2.4997,-2.4997,-2.4449,-2.4222,-2.4412,-2.4088,-2.3674,-2.3308,-2.3487,-2.3607,-2.3607,-2.3714,-2.3981,-2.4346,-2.4676,-2.5251,-2.6012,-2.4569,-2.4289,0.0,0.0,0.0,0.0,0.0,0.0,0.0,0.0,0.0,0.0,0.0,-2.105,-2.2905,0.0,-2.6361,-2.8352,-2.9874,-3.1157,-3.2151,-3.2811,-3.3196,-3.3196,-3.336,-3.3562,-3.3798,-3.3817,-3.389,-3.4092,-3.4293,-3.4587,-3.499,-3.5394,-3.5669,-3.5907,-3.6109,-3.6201,-3.6201,-3.6201,-3.6201,-3.6201,-3.6201,-3.6421,-3.6805,-3.7006,-3.7299,-3.7702,-3.8124,-3.8289,-3.8307,-3.8508,-3.86,-3.8502,-3.7435,-3.5937,-3.4211,-3.2679,-3.0981,-2.9384,-2.8516,-2.7991,-2.7696,-2.7696,-2.7509,-2.7282,-2.7094,-2.7041,-2.7041,-2.7041,-2.7041,-2.7081,-2.7269,-2.7202,-2.7041,-2.7041,-2.6827,-2.66,-2.66,-2.6493,-2.6346,-2.6238,-2.6091,-2.5944,-2.5758,-2.5371,-2.5039,-2.5039,-2.5039,-2.5039,-2.5039,-2.5211,-2.5237,-2.5053,-2.5211,-2.5291,-2.5291,-2.5024,-2.4917,-2.5026,-2.4943,-2.473,-2.4472,-2.4703,-2.4863,-2.4863,-2.5144,-2.5518,-2.5959,-2.6253,-2.6774,-2.7482,-2.7054,-2.6841,0.0,0.0,0.0,0.0,0.0,0.0,0.0,-1.8265,-1.9219,-2.1181,-2.2259,-2.3639,-2.6031,-2.7187,-2.8472,-3.0602,-3.1322,-3.2019,-3.3049,-3.3251,-3.3306,-3.3306,-3.358,-3.3817,-3.3817,-3.3817,-3.3982,-3.4367,-3.4477,-3.4844,-3.5541,-3.565,-3.5889,-3.6201,-3.6201,-3.6201,-3.6201,-3.6201,-3.6201,-3.6201,-3.6201,-3.6438,-3.6915,-3.7244,-3.7647,-3.8124,-3.8453,-3.86,-3.86,-3.86,-3.86,-3.86,-3.86,-3.6672,-3.3928,-3.3928,-3.2124,-2.9662,-2.9342,-2.9049,-2.8758,-2.8399,-2.8153,-2.7907,-2.7485,-2.7389,-2.7389,-2.7389,-2.7389,-2.7403,-2.7469,-2.7429,-2.7389,-2.7389,-2.7121,-2.6907,-2.6907,-2.668,-2.6466,-2.6466,-2.6279,-2.6078,-2.6078,-2.5838,-2.5638,-2.5531,-2.5518,-2.5518,-2.5518,-2.5558,-2.5598,-2.5598,-2.5651,-2.5665,-2.5598,-2.5651,-2.5665,-2.5598,-2.5651,-2.5585,-2.5344,-2.5558,-2.5732,-2.5852,-2.6373,-2.6934,-2.7563,-2.7816,-2.8217,-2.8698,-2.8804,-2.8724,-1.854,-1.7441,-1.7202,-1.8137,-1.8393,-1.9292,0.0,-2.307,-2.3321,-2.504,-2.6306,-2.7334,-2.8014,-2.9067,-3.0185,-3.1189,-3.1964,-3.2643,-3.3122,-3.3523,-3.3709,-3.3709,-3.378,-3.3817,-3.3817,-3.3817,-3.3982,-3.4367,-3.4752,-3.5119,-3.5595,-3.5944,-3.6164,-3.6201,-3.6201,-3.6201,-3.6201,-3.6201,-3.6201,-3.6201,-3.6201,-3.6604,-3.7318,-3.7373,-3.7812,-3.8545,-3.8582,-3.86,-3.86,-3.86,-3.86,-3.86,-3.86,-3.741,-3.5712,-3.5712,-3.547,-3.4887,-3.3356,-3.2792,-3.2515,-3.0978,-3.0424,-3.0047,-2.822,-2.7655,-2.7655,-2.7655,-2.7655,-2.7709,-2.8018,-2.7884,-2.7655,-2.7655,-2.7428,-2.7255,-2.7255,-2.6987,-2.6774,-2.6774,-2.6547,-2.6346,-2.6346,-2.6306,-2.6119,-2.5598,-2.5518,-2.5518,-2.5518,-2.5745,-2.5944,-2.5944,-2.6185,-2.6186,-2.5971,-2.6146,-2.6186,-2.5957,-2.6185,-2.6279,-2.6239,-2.6266,-2.6533,-2.7108,-2.7388,-2.7856,-2.8457,-2.8708,-2.8881,-2.8961,-2.9482,-2.9753,-2.0885,-2.0298,-2.0152,-2.0665,-2.1346,-2.2433,-2.4434,-2.4929,-2.5472,-2.7371,-2.816,-2.8766,-2.9617,-3.0387,-3.1157,-3.1946,-3.257,-3.3101,-3.347,-3.3672,-3.3725,-3.347,-3.3434,-3.3525,-3.3798,-3.3817,-3.4038,-3.468,-3.4899,-3.5266,-3.5925,-3.6109,-3.6201,-3.6201,-3.6201,-3.6201,-3.6201,-3.6201,-3.6201,-3.6201,-3.6201,-3.6641,-3.7391,-3.7391,-3.7831,-3.86,-3.86,-3.86,-3.86,-3.86,-3.86,-3.86,-3.86,-3.8145,-3.7392,-3.6373,-3.5349,-3.4376,-3.3642,-3.2741,-3.1768,-3.1037,-3.0122,-2.9104,-2.8241,-2.8005,-2.8005,-2.8005,-2.8005,-2.8031,-2.8152,-2.8098,-2.8005,-2.8005,-2.7777,-2.7522,-2.7522,-2.7148,-2.6787,-2.6787,-2.6587,-2.6386,-2.6386,-2.6386,-2.6306,-2.6066,-2.6026,-2.6026,-2.6026,-2.6132,-2.6252,-2.6252,-2.6319,-2.6333,-2.6265,-2.648,-2.6667,-2.676,-2.6987,-2.7228,-2.7443,-2.7589,-2.7802,-2.8043,-2.8323,-2.8684,-2.9112,-2.9232,-2.9472,-2.982,-3.006,-3.0354,-2.2075,-2.2222,-2.2533,-2.2753,-2.3938,-2.5223,-2.6049,-2.6618,-2.7463,-2.917,-2.9519,-2.9813,-3.0772,-3.1208,-3.1667,-3.2459,-3.2845,-3.323,-3.3743,-3.3725,-3.3505,-3.3067,-3.2955,-3.2976,-3.3285,-3.3489,-3.4002,-3.4918,-3.4991,-3.5339,-3.6164,-3.6201,-3.6201,-3.6201,-3.6201,-3.6201,-3.6201,-3.6201,-3.6201,-3.6201,-3.6329,-3.6751,-3.7391,-3.7611,-3.805,-3.86,-3.86,-3.86,-3.86,-3.86,-3.86,-3.86,-3.86,-3.86,-3.8441,-3.7192,-3.5931,-3.4823,-3.4823,-3.4009,-3.288,-3.2371,-3.1395,-3.0274,-2.9788,-2.9621,-2.9537,-2.9048,-2.8936,-2.881,-2.8305,-2.8179,-2.8179,-2.8179,-2.8018,-2.7816,-2.7816,-2.7415,-2.7068,-2.7068,-2.6827,-2.6627,-2.6627,-2.6627,-2.6627,-2.6627,-2.6627,-2.6573,-2.6413,-2.6386,-2.6386,-2.6386,-2.6466,-2.6507,-2.6507,-2.6774,-2.7041,-2.7296,-2.7468,-2.7724,-2.7938,-2.8152,-2.835,-2.8604,-2.8775,-2.9179,-2.9771,-2.9771,-3.0025,-3.0533,-3.0614,-3.0822,-2.1255,-2.2002,-2.3078,-2.392,-2.5627,-2.7334,-2.8113,-2.8931,-2.9739,-3.0552,-3.0736,-3.0864,-3.1318,-3.1391,-3.1667,-3.2459,-3.2606,-3.29,-3.3707,-3.3452,-3.3049,-3.2661,-3.2276,-3.2056,0.0,-3.2738,-3.3709,-3.4899,-3.4991,-3.5339,-3.6164,-3.6201,-3.6201,-3.6201,-3.6201,-3.6201,-3.6201,-3.6201,-3.6201,-3.6219,-3.6585,-3.6988,-3.7409,-3.8215,-3.8582,-3.86,-3.86,-3.86,-3.86,-3.86,-3.86,-3.86,-3.86,-3.86,-3.86,-3.8521,-3.8481,-3.8441,-3.8441,-3.8402,-3.8066,-3.6373,-3.5793,-3.547,-3.3749,-3.3233,-3.2905,-3.1188,-3.0705,-3.033,-2.8642,-2.8179,-2.8179,-2.8179,-2.8179,-2.8165,-2.8165,-2.7924,-2.7669,-2.7669,-2.7483,-2.7282,-2.7282,-2.7282,-2.7282,-2.7282,-2.7282,-2.7068,-2.6466,-2.6386,-2.6386,-2.6386,-2.664,-2.6814,-2.6814,-2.7081,-2.7296,-2.7309,-2.7309,-2.7322,-2.7336,-2.7349,-2.7764,-2.8591,-2.8617,-2.9179,-3.0386,-3.0386,-3.0533,-3.0782,-3.1062,-3.1162,-2.2515,-2.362,-2.4812,-2.5921,-2.7114,-2.8215,-2.9023,-2.9409,-2.9758,-3.0277,-3.0185,-2.9978,-2.9849,-3.0222,-3.0681,-3.0956,-3.1891,-3.2698,-3.2973,-3.3358,-3.3141,-3.1964,-3.2166,0.0,0.0,0.0,0.0,-3.4112,-3.468,-3.5229,-3.576,-3.6054,-3.6201,-3.6201,-3.6201,-3.6201,-3.6201,-3.6201,-3.6201,-3.6219,-3.686,-3.7391,-3.7833,-3.8343,-3.86,-3.86,-3.86,-3.86,-3.86,-3.86,-3.86,-3.86,-3.86,-3.86,-3.86,-3.86,-3.86,-3.86,-3.86,-3.7849,-3.6775,-3.6195,-3.5228,-3.4172,-3.3601,-3.3397,-3.3028,-3.1271,-3.0788,-3.0413,-2.8642,-2.9048,-2.9635,-2.8473,-2.909,-2.9593,-2.8431,-2.7951,-2.7696,-2.7696,-2.7468,-2.7309,-2.7309,-2.7309,-2.7309,-2.7309,-2.7309,-2.7229,-2.7041,-2.7015,-2.7015,-2.7015,-2.7095,-2.7121,-2.7121,-2.7242,-2.7389,-2.7535,-2.7549,-2.7684,-2.7884,-2.823,-2.8671,-2.9179,-2.9566,-3.006,-3.0648,-3.0493,-3.056,-3.0795,-3.0889,-3.1142,-2.3798,-2.4977,-2.6123,-2.7334,-2.8333,-2.914,-2.9519,-2.9831,-3.0033,-2.9984,-2.9544,-2.906,-2.8656,-2.8895,-2.9305,-2.9892,-3.1084,-3.2148,-3.2735,-3.3138,-3.2936,-3.1763,-3.1946,-3.1964,-3.1451,0.0,0.0,-3.3743,-3.4533,-3.5174,-3.5595,-3.5999,-3.6201,-3.6201,-3.6201,-3.6201,-3.6201,-3.6201,-3.6347,-3.6641,-3.7134,-3.7666,-3.8215,-3.8472,-3.86,-3.86,-3.86,-3.86,-3.86,-3.86,-3.86,-3.86,-3.86,-3.86,-3.86,-3.86,-3.86,-3.86,-3.86,-3.7867,-3.6952,-3.6952,-3.6172,-3.5285,-3.5285,-3.5285,-3.4904,-3.3151,-3.2659,-3.2247,-3.0524,-3.0413,-3.0497,-2.9384,-2.9509,-2.9551,-2.8431,-2.8031,-2.7898,-2.7898,-2.775,-2.7617,-2.7617,-2.7617,-2.7617,-2.7617,-2.7617,-2.755,-2.7336,-2.7309,-2.7309,-2.7309,-2.7403,-2.7415,-2.7415,-2.7563,-2.7697,-2.7884,-2.7963,-2.811,-2.8339,-2.8778,-2.9179,-2.9472,-2.9905,-3.0293,-3.0635,-3.06,-3.0662,-3.0955,-3.1169,-3.141,-2.504,-2.6104,-2.6995,-2.8168,-2.9324,-3.0057,-2.9684,-3.0161,-3.0473,-2.9647,-2.884,-2.8142,-2.7683,-2.7353,-2.7665,-2.9225,-3.0253,-3.1359,-3.2902,-3.2845,-3.2478,-3.2056,-3.1671,-3.1451,-3.1451,-3.1818,0.0,-3.3688,0.0,-3.5138,-3.5559,-3.5981,-3.6201,-3.6201,-3.6201,-3.6201,-3.6201,-3.6201,-3.6622,-3.7391,-3.7391,-3.7812,-3.86,-3.86,-3.86,-3.86,-3.86,-3.86,-3.86,-3.86,-3.86,-3.86,-3.86,-3.86,-3.86,-3.86,-3.86,-3.86,-3.86,-3.86,-3.86,-3.86,-3.86,-3.86,-3.86,-3.86,-3.8225,-3.6494,-3.5994,-3.5591,-3.3765,-3.218,-3.1037,-3.0829,-2.9593,-2.8431,-2.8347,-2.8263,-2.8179,-2.8179,-2.8179,-2.8179,-2.8179,-2.8179,-2.8179,-2.8179,-2.8179,-2.7978,-2.7429,-2.7349,-2.7349,-2.7349,-2.7562,-2.7722,-2.7722,-2.8031,-2.8205,-2.8205,-2.8457,-2.8631,-2.8631,-2.8868,-2.9161,-2.9499,-2.9526,-2.9864,-3.0453,-3.0662,-3.0942,-3.1263,-3.181,-3.1931,-2.6306,-2.7555,-2.8546,-2.9152,-2.9537,-2.9739,-2.9629,-2.9299,-2.8773,-2.7995,-2.693,-2.5958,-2.5249,-2.5782,-2.6637,-2.7646,-2.9758,-3.1488,-3.2221,-3.2719,-3.2808,-3.2093,-3.2166,-3.2166,-3.1891,-3.2463,-3.3012,0.0,-3.411,-3.4752,-3.5119,-3.5834,-3.6201,-3.6201,-3.6201,-3.6201,-3.6201,-3.6201,-3.6622,-3.7391,-3.7391,-3.7812,-3.86,-3.86,-3.86,-3.86,-3.86,-3.86,-3.86,-3.86,-3.86,-3.86,-3.86,-3.86,-3.86,-3.86,-3.86,-3.86,-3.86,-3.86,-3.86,-3.86,-3.86,-3.86,-3.86,-3.86,-3.8225,-3.6494,-3.5994,-3.5308,-3.2247,-3.3069,-3.4009,-3.1437,-3.1437,-3.1711,-3.0413,-2.9132,-2.8179,-2.8179,-2.8179,-2.8179,-2.8179,-2.8179,-2.8179,-2.8179,-2.8179,-2.8125,-2.7978,-2.7965,-2.7965,-2.7965,-2.8031,-2.8072,-2.8072,-2.831,-2.8484,-2.8484,-2.8764,-2.8881,-2.8881,-2.9219,-2.9513,-2.9806,-3.002,-3.0421,-3.1009,-3.0862,-3.1062,-3.1557,-3.1476,-3.1637,-2.783,-2.8748,-2.9372,-2.9745,-2.9855,-2.9684,-2.8968,-2.8472,-2.7636,-2.5931,-2.4904,-2.4005,-2.302,-2.3975,-2.5289,-2.6472,-2.8895,-3.1006,-3.2111,-3.2661,-3.2845,-3.257,-3.2735,-3.279,-3.257,-3.2955,-3.3269,-3.3434,-3.422,-3.4734,-3.4991,-3.5742,-3.6201,-3.6201,-3.6201,-3.6201,-3.6201,-3.6201,-3.6531,-3.7134,-3.7299,-3.7721,-3.8343,-3.8527,-3.86,-3.86,0.0,-3.86,-3.86,-3.86,-3.86,-3.86,-3.86,-3.86,-3.86,-3.86,-3.86,-3.8637,-3.8801,-3.8856,-3.8838,-3.8655,-3.86,-3.8637,-3.8801,-3.8856,-3.8693,-3.7953,-3.7705,-3.7241,-3.5303,-3.5673,-3.6041,-3.4065,-3.3151,-3.2651,-3.2499,-3.1029,-2.9774,-2.9774,-2.9121,-2.8537,-2.8537,-2.8537,-2.8537,-2.8537,-2.8537,-2.8537,-2.8537,-2.8353,-2.8232,-2.8379,-2.8393,-2.8433,-2.8524,-2.8698,-2.8804,-2.8804,-2.9072,-2.9232,-2.9232,-2.9513,-2.982,-3.01,-3.0319,-3.0627,-3.1036,-3.1129,-3.1343,-3.1724,-3.1757,-3.1984,-2.9188,-2.9647,-2.9794,-3.0167,-3.0204,-2.9727,-2.8215,-2.7628,-2.6637,-2.3907,-2.2895,-2.2199,-2.1196,-2.2295,-2.3944,-2.5774,-2.805,-3.029,-3.2239,-3.257,-3.2753,-3.3141,-3.3196,-3.3214,-3.3269,-3.3269,-3.3415,-3.378,-3.4533,-3.4991,-3.4991,-3.5742,-3.6201,-3.6201,-3.6201,-3.6201,-3.6201,-3.6201,-3.6421,-3.6805,-3.7208,-3.7592,-3.8034,-3.8417,-3.86,-3.86,-3.86,0.0,-3.86,-3.86,-3.86,-3.86,-3.86,-3.86,-3.8618,-3.8655,-3.8692,-3.8747,-3.9131,-3.9278,-3.9263,-3.8875,-3.8765,-3.882,-3.9208,-3.9278,-3.9392,-3.9781,-3.9891,-3.9832,-3.9586,-3.8565,-3.7515,-3.7249,-3.4809,-3.2962,-3.4614,-3.3302,-3.181,-3.181,-3.0464,-2.9292,-2.9032,-2.9206,-2.9292,-2.9032,-2.9001,-2.9001,-2.9001,-2.8577,-2.8406,-2.8631,-2.8671,-2.8764,-2.8975,-2.9028,-2.9055,-2.9055,-2.9379,-2.9566,-2.9637,-2.9847,-3.0114,-3.0453,-3.0467,-3.0614,-3.0849,-3.1356,-3.1724,-3.1845,-3.2313,-3.2594,-2.9354,-2.9819,-3.0185,-3.0589,-3.0216,-2.9464,-2.8498,-2.6738,-2.4801,-2.29,-2.1376,-2.0463,-2.0573,-2.1654,-2.3376,-2.6059,-2.8252,-3.0198,-3.1873,-3.2386,-3.2753,-3.3141,-3.3196,-3.3324,-3.3635,-3.3707,-3.3709,0.0,-3.4533,-3.4991,-3.4991,-3.5742,-3.6201,-3.6201,-3.6201,-3.6201,-3.6201,-3.6201,-3.6421,-3.6805,-3.7208,-3.7592,-3.8034,-3.8417,-3.86,-3.86,-3.86,0.0,-3.86,-3.86,-3.86,-3.86,-3.86,-3.86,-3.8637,-3.8966,-3.9095,-3.915,-3.9634,-3.9781,-3.9762,-3.9689,-3.9671,-3.9689,-3.9762,-3.9781,-3.9799,-3.9854,-3.9891,-3.9545,-3.807,-3.8565,-3.9035,-3.7556,-3.6709,-3.6334,-3.6667,-3.4134,-3.181,-3.181,-3.1525,-3.0808,-2.9249,-3.0305,-3.0808,-2.9249,-2.9001,-2.9001,-2.9001,-2.8908,-2.8855,-2.8921,-2.8921,-2.8948,-2.8988,-2.9259,-2.9406,-2.9406,-2.9686,-2.9953,-3.0239,-3.0306,-3.0421,-3.0715,-3.0715,-3.0862,-3.1156,-3.1249,-3.1677,-3.2433,-3.2251,-3.2572,-2.9959,-3.0204,-3.0351,-3.0937,-3.0363,-2.917,-2.7536,-2.5582,-2.3413,-2.094,-1.9804,-1.9199,-1.8979,-2.0427,-2.2332,-2.4347,-2.6206,-2.8271,-3.0717,-3.1231,-3.1818,-3.3049,-3.3379,-3.3596,-3.3798,-3.3817,-3.3908,-3.411,-3.4643,-3.4991,-3.4991,-3.5742,-3.6201,-3.6201,-3.6201,-3.6201,-3.6201,-3.6201,-3.6421,-3.6805,-3.7208,-3.7592,-3.8034,-3.8417,-3.86,-3.86,-3.86,0.0,-3.86,-3.86,-3.86,-3.86,-3.86,-3.86,-3.8655,-3.904,-3.9186,-3.9278,-3.9983,-4.0203,-4.024,-4.0442,-4.0221,-3.9928,-4.0148,-4.0203,-4.0258,-4.046,-4.0515,-4.0307,-3.9438,-3.9873,-4.0307,-3.9438,-3.9229,-3.8978,-3.7994,-3.6411,-3.5157,-3.5157,-3.4385,-3.3133,-3.1247,-3.167,-3.1626,-2.9751,-2.9455,-2.9455,-2.9455,-2.9455,-2.9388,-2.9285,-2.9272,-2.9325,-2.9442,-2.9633,-2.978,-2.9972,-3.0074,-3.0274,-3.0614,-3.0627,-3.0715,-3.1009,-3.1022,-3.1169,-3.1463,-3.177,-3.2179,-3.2594,-3.2607,-3.2866,-3.0253,-3.0369,-3.0369,-3.1084,-3.0308,-2.8766,-2.6508,-2.4427,-2.2185,-1.9291,-1.8485,-1.8155,-1.7715,-1.9256,-2.1086,-2.2638,-2.417,-2.627,-2.9489,-3.0094,-3.0919,-3.2829,-3.345,-3.3725,-3.3798,-3.3817,-3.3945,-3.4257,-3.4716,-3.5064,-3.5229,-3.587,-3.6201,-3.6201,-3.6201,-3.6201,-3.6201,-3.6201,-3.6421,-3.6805,-3.7208,-3.7592,-3.8034,-3.8417,-3.86,-3.86,-3.86,0.0,0.0,-3.86,-3.86,-3.86,-3.86,-3.8655,-3.8783,-3.9208,-3.941,-3.9612,-4.0345,-4.0644,-4.068,-4.0992,-4.0662,-4.0203,-4.0533,-4.0644,-4.0699,-4.1011,-4.1102,-4.1102,-4.1102,-4.1102,-4.1102,-4.1102,-4.1102,-4.0705,-3.9246,-3.8588,-3.8289,-3.8289,-3.7112,-3.5494,-3.36,-3.3644,-3.3131,-3.0825,-3.0482,-3.0375,-3.0052,-3.0007,-2.9953,-2.978,-2.9646,-2.97,-2.998,-3.0007,-3.014,-3.048,-3.0493,-3.0627,-3.0875,-3.0889,-3.1022,-3.1316,-3.1383,-3.153,-3.1805,-3.234,-3.2621,-3.2688,-3.2929,-3.3173,-2.9482,-2.9947,-3.0296,-3.0736,-2.9654,-2.8058,-2.638,-2.3565,-2.0811,-1.9053,-1.7844,-1.7275,-1.7917,-1.8521,-1.9785,-2.246,-2.37,-2.5425,-2.8674,-2.9727,-3.0809,-3.2459,-3.3028,-3.3379,-3.3745,-3.3817,-3.3835,-3.3872,-3.4551,-3.5302,-3.6054,-3.6164,-3.6201,-3.6201,-3.6201,-3.6201,-3.6201,-3.6201,-3.6421,-3.6805,-3.7208,-3.7592,-3.8034,-3.8417,-3.86,-3.86,-3.86,0.0,0.0,-3.86,-3.86,-3.86,-3.86,-3.882,-3.9186,-3.9671,-4.0074,-4.046,-4.0901,-4.1047,-4.1047,-4.1084,-4.1047,-4.0992,-4.1029,-4.1047,-4.1047,-4.1084,-4.1102,-4.1102,-4.1102,-4.1102,-4.1102,-4.1102,-4.1102,-4.106,-4.0892,-3.9501,-3.8289,-3.8289,-3.816,-3.7457,-3.5581,-3.6664,-3.6578,-3.2999,-3.2425,-3.1934,-3.0546,-3.036,-3.0453,-3.0648,-3.0194,-2.9993,-3.0346,-3.036,-3.0493,-3.0742,-3.0755,-3.0889,-3.1122,-3.1136,-3.133,-3.1671,-3.1891,-3.2038,-3.2064,-3.2433,-3.2728,-3.2933,-3.2973,-3.3293,-2.9317,-3.0088,-3.0534,-3.0461,-2.9397,-2.7812,-2.547,-2.2947,-2.0521,-1.8412,-1.7403,-1.7,-1.7312,-1.7715,-1.8669,-2.0756,-2.1401,-2.274,-2.6004,-2.7169,-2.8546,-3.0864,-3.1946,-3.2845,-3.3725,-3.3817,-3.4018,-3.4478,-3.5028,-3.5632,-3.6182,-3.6201,-3.6201,-3.6201,-3.6201,-3.6201,-3.6201,-3.6201,-3.6421,-3.6805,-3.7208,-3.7592,-3.8034,-3.8417,-3.86,-3.86,-3.86,0.0,0.0,-3.86,-3.86,-3.86,-3.86,-3.8838,-3.9241,-3.9726,-4.0148,-4.057,-4.0956,-4.1102,-4.1102,-4.1102,-4.1102,-4.1102,-4.1102,-4.1102,-4.1102,-4.1102,-4.1102,-4.1102,-4.1102,-4.1102,-4.1102,-4.1102,-4.1102,-4.1102,-4.1102,-4.0494,-3.9986,-3.9986,-4.0182,-3.9768,-3.7862,-3.8351,-3.7699,-3.3889,-3.332,-3.2658,-3.087,-3.0621,-3.0662,-3.0782,-3.0581,-3.0488,-3.0608,-3.0621,-3.0742,-3.1036,-3.1049,-3.1183,-3.1476,-3.149,-3.1637,-3.1931,-3.2051,-3.2185,-3.242,-3.2714,-3.2915,-3.2986,-3.316,-3.3467,-2.8748,-2.9818,-3.0493,-3.0106,-2.9009,-2.7308,-2.4771,-2.2415,-2.0136,-1.7954,-1.7183,-1.6908,-1.6908,-1.722,-1.7954,0.0,-1.9838,-2.1141,-2.4195,-2.5315,-2.6811,-2.9481,-3.0688,-3.1795,-3.3074,-3.3558,-3.4112,-3.4936,-3.5247,-3.5669,-3.6182,-3.6201,-3.6201,-3.6201,-3.6201,-3.6201,-3.6201,-3.6201,-3.6421,-3.6805,-3.7208,-3.7592,-3.8034,-3.8417,-3.86,-3.86,-3.86,0.0,0.0,-3.86,-3.86,-3.86,-3.86,-3.8838,-3.9241,-3.9726,-4.0148,-4.057,-4.0956,-4.1102,-4.1102,-4.1102,-4.1102,-4.1102,-4.1102,-4.1102,-4.1102,-4.1102,-4.1102,-4.1102,-4.1102,-4.1102,-4.1102,-4.1102,-4.1102,-4.1102,-4.1102,-4.1194,-4.1286,-4.1286,-4.1574,-4.1462,-4.0113,-4.0149,-3.9032,-3.5089,-3.4502,-3.3654,-3.1226,-3.0915,-3.0955,-3.1036,-3.1049,-3.1022,-3.0929,-3.0915,-3.1049,-3.1343,-3.1356,-3.149,-3.1831,-3.1845,-3.1931,-3.2225,-3.2318,-3.2465,-3.2728,-3.3009,-3.3106,-3.3106,-3.3414,-3.3761,-2.7481,-2.8946,-3.0041,-2.9702,-2.8288,-2.6526,-2.4619,-2.1992,-1.9456,-1.7825,-1.7183,-1.6908,-1.6908,-1.722,-1.777,-1.8576,-1.9712,-2.1365,-2.3871,-2.4893,-2.624,-2.8562,-2.9301,-3.0199,-3.167,-3.3031,-3.4112,-3.4936,-3.4991,0.0,-3.6164,-3.6201,-3.6201,-3.6201,-3.6201,-3.6201,-3.6201,-3.6201,-3.6421,-3.6805,-3.7208,-3.7592,-3.8034,-3.8417,-3.86,0.0,0.0,0.0,0.0,-3.86,-3.86,-3.86,-3.86,-3.8838,-3.9241,-3.9726,-4.0148,-4.057,-4.0956,-4.1102,-4.1102,-4.1102,-4.1102,-4.1102,-4.1102,-4.1102,-4.1102,-4.1102,-4.1102,-4.1102,-4.1102,-4.1102,-4.1102,-4.1102,-4.1102,-4.1102,-4.1102,-4.139,-4.1684,-4.1684,-4.1996,-4.2271,-4.2271,-4.2271,-4.0972,-3.7047,-3.6466,-3.5196,-3.1636,-3.1223,-3.133,-3.1671,-3.1711,-3.1543,-3.1203,-3.1223,-3.1343,-3.165,-3.1711,-3.1845,-3.2078,-3.2104,-3.2238,-3.2581,-3.2875,-3.2973,-3.2973,-3.3267,-3.3414,-3.3414,-3.3734,-3.4189,-2.5425,-2.6516,-2.7068,-2.6131,-2.5485,-2.4504,-2.2194,-2.0756,-1.9364,-1.7495,-1.7,-1.6908,-1.6908,-1.7,-1.7697,-1.9621,-2.0243,0.0,-2.3413,-2.4929,-2.637,-2.7926,-3.045,-3.2364,-3.3074,0.0,-3.4037,-3.4568,-3.4826,-3.5211,-3.5742,-3.6054,-3.6201,-3.6201,-3.6201,-3.6201,-3.6201,-3.6201,-3.6274,-3.6365,-3.6786,-3.7189,-3.7592,-3.8034,-3.8325,0.0,0.0,0.0,0.0,-3.86,-3.86,-3.86,-3.86,-3.9061,-3.9707,-3.9836,-4.0313,-4.0937,-4.1066,-4.1102,-4.1102,-4.1102,-4.1102,-4.1102,-4.1102,-4.1102,-4.1102,-4.1102,-4.1102,-4.1102,-4.1102,-4.1102,-4.1102,-4.1102,-4.1323,-4.1482,-4.1482,-4.1812,-4.2087,-4.2087,-4.2417,-4.2718,-4.2718,-4.2913,-4.2236,-3.9616,-3.9238,-3.7866,-3.4042,-3.3496,-3.3037,-3.184,-3.1711,-3.1684,-3.153,-3.153,-3.165,-3.1944,-3.1971,-3.2091,-3.2447,-3.246,-3.2594,-3.2888,-3.2982,-3.308,-3.328,-3.3374,-3.3521,-3.3748,-3.4255,-3.4641,-2.3363,-2.4656,-2.5286,-2.441,-2.3926,-2.3125,-2.0983,-1.995,-1.8961,-1.7239,-1.6908,-1.6908,-1.6908,-1.7037,-1.7623,-1.9108,-1.9877,-2.083,-2.2387,-2.4299,-2.627,-2.8234,-3.083,-3.2688,0.0,-3.3633,-3.3982,-3.4367,-3.4753,0.0,-3.5595,-3.5999,-3.6201,-3.6201,-3.6201,-3.6201,-3.6201,-3.6201,-3.6201,-3.6219,-3.6603,-3.7006,-3.7409,-3.7833,-3.8197,0.0,0.0,0.0,0.0,-3.86,-3.86,-3.86,-3.86,-3.9043,-3.9671,-3.9817,-4.0313,-4.0901,-4.1047,-4.1102,-4.1102,-4.1102,-4.1102,-4.1102,-4.1102,-4.1102,-4.1102,-4.1102,-4.1102,-4.1102,-4.1102,-4.1213,-4.1341,-4.1341,-4.161,-4.1922,-4.1922,-4.2216,-4.2553,-4.2553,-4.2865,-4.314,-4.314,-4.3316,-4.2793,-4.0804,-3.988,-3.8219,-3.4995,-3.3981,-3.3055,-3.1806,-3.177,-3.1837,-3.1837,-3.1837,-3.1904,-3.2091,-3.2211,-3.2447,-3.2741,-3.2755,-3.2888,-3.3133,-3.3146,-3.3293,-3.3587,-3.3708,-3.3908,-3.4229,-3.4641,-3.4869,0.0,-2.3,-2.4108,-2.3828,-2.314,-2.2121,-2.0639,-1.9437,0.0,-1.7129,-1.6908,-1.6927,-1.6964,-1.7238,-1.7513,-1.7715,-1.8998,-2.0298,-2.1163,-2.3455,-2.6233,-2.942,-3.071,-3.1704,-3.2636,-3.3376,-3.3963,-3.433,-3.4752,0.0,-3.5467,-3.5925,-3.6164,-3.6164,-3.6201,-3.6201,-3.6201,-3.6201,-3.6201,-3.6219,-3.6566,-3.697,-3.7354,-3.7757,-3.816,0.0,0.0,0.0,0.0,-3.86,-3.86,-3.86,-3.86,-3.8856,-3.9318,-3.9744,-4.0166,-4.0607,-4.0974,-4.1102,-4.1102,-4.1102,-4.1102,-4.1102,-4.1102,-4.1102,-4.1102,-4.1102,-4.1121,-4.1139,-4.1139,-4.1451,-4.1739,-4.1739,-4.2032,-4.2326,-4.2326,-4.2681,-4.2957,-4.2957,-4.3224,-4.3499,-4.3499,-4.3499,-4.2882,-4.0985,-3.9196,-3.7315,-3.529,-3.3365,-3.2178,-3.2192,-3.2162,-3.2179,-3.2324,-3.2227,-3.2144,-3.2158,-3.2474,-3.2755,-3.3,-3.3013,-3.3133,-3.3414,-3.3427,-3.3601,-3.3921,-3.4202,-3.4496,-3.4815,-3.4842,-3.4937,-1.7532,0.0,-1.9997,-1.9643,-1.9589,-1.9408,0.0,-1.821,-1.799,-1.7092,-1.6908,-1.7092,-1.7697,-1.7386,-1.7752,-1.9897,-2.0576,-2.1306,-2.2753,-2.5601,-2.8604,-3.1471,-3.2345,-3.305,-3.3898,-3.3879,-3.3853,-3.3945,-3.433,-3.4587,-3.4678,-3.5375,-3.576,-3.576,-3.6054,-3.6201,-3.6201,-3.6201,-3.6201,-3.6201,-3.6311,-3.653,-3.6951,-3.7336,-3.7739,0.0,0.0,0.0,-3.86,-3.86,-3.86,-3.86,-3.86,-3.908,-3.9744,-3.9854,-4.035,-4.0974,-4.1066,-4.1102,-4.1102,-4.1102,-4.1102,-4.1102,-4.1102,-4.1102,-4.1102,-4.1102,-4.1341,-4.1537,-4.1537,-4.1849,-4.2142,-4.2142,-4.2479,-4.2773,-4.2773,-4.3103,-4.3353,-4.3353,-4.3426,-4.3499,-4.3499,-4.3499,-4.3347,-4.2882,-4.2434,-4.1514,-3.9791,-3.7786,-3.6679,-3.7081,-3.4352,-3.3153,-3.4703,-3.3395,-3.2581,-3.2759,-3.2839,-3.3013,-3.3293,-3.3307,-3.3347,-3.3414,-3.3654,-3.3921,-3.4215,-3.4523,-3.4696,-3.4815,-3.499,-3.5137,-1.6012,-1.7331,-1.865,-1.843,-1.8668,-1.8796,-1.8192,-1.7935,-1.7605,-1.6781,-1.678,-1.7019,-1.7459,-1.7495,-1.8008,-1.9732,-2.0631,-2.2061,-2.4831,-2.7336,-2.9804,-3.2245,-3.3114,-3.3668,0.0,-3.3921,-3.3817,-3.3817,0.0,-3.4403,-3.4403,-3.5009,-3.5394,-3.5577,-3.5834,-3.6017,-3.6201,-3.6201,-3.6201,-3.6201,-3.6201,-3.6421,-3.6805,-3.7024,-3.7428,0.0,0.0,0.0,-3.86,-3.86,-3.86,-3.86,-3.86,-3.9025,-3.9593,-3.9817,-4.0276,-4.0864,-4.1047,-4.1102,-4.1102,-4.1102,-4.1102,-4.1102,-4.1102,-4.1231,-4.1396,-4.1396,-4.1519,-4.1739,-4.1922,-4.2252,-4.2589,-4.2589,-4.2901,-4.3195,-4.3195,-4.3334,-4.3499,-4.3499,-4.3499,-4.3499,-4.3499,-4.3499,-4.3554,-4.3738,-4.2973,-4.2175,-4.147,-3.9602,-3.8465,-3.875,-3.6057,-3.4672,-3.5807,-3.4066,-3.3009,-3.2973,-3.3106,-3.3253,-3.34,-3.3414,-3.348,-3.3627,-3.4068,-3.4362,-3.4523,-3.4817,-3.4963,-3.4963,-3.5124,-3.5271,-1.5735,-1.7165,-1.8558,-1.8375,-1.8742,-1.8999,-1.8521,-1.7899,-1.722,-1.6525,-1.6708,-1.7055,-1.7238,-1.7825,-1.8521,-1.9218,-2.0704,-2.3112,-2.7004,-2.8735,-3.042,-3.2578,-3.34,0.0,-3.3953,-3.3886,-3.3817,-3.3817,0.0,-3.4312,-3.4312,-3.468,-3.5046,-3.543,-3.5559,-3.5742,-3.6109,-3.6182,-3.6201,-3.6201,-3.6201,-3.6402,-3.6713,-3.6768,-3.7171,-3.7794,0.0,0.0,-3.8508,-3.8582,-3.86,-3.86,-3.86,-3.8838,-3.9241,-3.9726,-4.0148,-4.057,-4.0956,-4.1102,-4.1102,-4.1102,-4.1102,-4.1102,-4.1102,-4.1396,-4.1702,-4.1757,-4.1831,-4.1941,-4.2289,-4.27,-4.3012,-4.3012,-4.3224,-4.3499,-4.3499,-4.3499,-4.3499,-4.3499,-4.3499,-4.3518,-4.3573,-4.3591,-4.3719,-4.4123,-4.2759,-4.181,-4.2191,-4.0544,-3.9351,-3.94,-3.7483,-3.6158,-3.6158,-3.4446,-3.3307,-3.3066,-3.328,-3.3427,-3.348,-3.348,-3.3654,-3.4015,-3.4561,-3.4842,-3.4882,-3.5084,-3.5191,-3.5191,-3.5244,-3.5391,-1.592,-1.7184,-1.7953,-1.6928,-1.7477,-1.81,-1.7367,-1.7092,-1.6963,-1.6818,-1.7128,-1.7715,-1.8742,-1.9036,-1.9804,-2.1906,-2.3657,-2.5787,-2.8721,-2.9693,-3.1052,-3.3641,0.0,-3.4054,-3.4662,-3.4163,-3.3817,0.0,0.0,-3.3908,-3.3908,-3.4275,-3.4532,-3.4587,-3.5265,-3.565,-3.5669,-3.6036,-3.6201,-3.6201,-3.6201,-3.6237,-3.6311,-3.664,-3.686,-3.7024,0.0,-3.8053,-3.8144,-3.8453,-3.86,-3.86,-3.86,-3.8838,-3.9241,-3.9726,-4.0148,-4.057,-4.0956,-4.1102,-4.1102,-4.1102,-4.1102,-4.1102,-4.1102,-4.1396,-4.1757,-4.2087,-4.2461,-4.2736,-4.281,-4.3122,-4.3408,-4.3408,-4.3444,-4.3499,-4.3499,-4.3499,-4.3499,-4.3499,-4.3499,-4.3609,-4.394,-4.3995,-4.4123,-4.4572,-4.4353,-4.4296,-4.4714,-4.2959,-4.1836,-4.2141,-3.8736,-3.6431,-3.6431,-3.4571,-3.3387,-3.3347,-3.3387,-3.3534,-3.3801,-3.3814,-3.4068,-3.4668,-3.4762,-3.4883,-3.5137,-3.5177,-3.5191,-3.5204,-3.5444,-3.5591,-1.5242,-1.636,-1.7367,-1.7019,-1.8173,-1.9236,-1.865,-1.8338,-1.8137,-1.7935,-1.8192,-1.865,-1.9201,-2.0191,-2.1709,-2.4189,-2.5609,-2.7041,-2.8972,-3.0316,-3.1748,0.0,0.0,-3.4336,-3.4853,-3.4232,-3.3886,0.0,0.0,0.0,-3.3817,-3.3982,-3.4183,-3.4403,-3.477,-3.5174,-3.5614,-3.576,-3.5999,-3.6201,-3.6201,-3.6201,-3.6219,-3.6402,-3.6585,-3.6823,0.0,-3.7814,-3.8053,-3.8435,-3.86,-3.86,-3.86,-3.871,-3.8948,-3.9612,-4.0276,-4.0864,-4.1047,-4.1102,-4.1102,-4.1102,-4.1102,-4.1139,-4.1378,-4.1727,-4.2087,-4.2534,-4.2773,-4.2957,-4.3151,-4.3353,-4.3499,-4.3499,-4.3499,-4.3499,-4.3499,-4.3499,-4.3554,-4.3774,-4.3811,-4.394,-4.4325,-4.4398,-4.4545,-4.4948,-4.5003,-4.5168,-4.5572,-4.4793,-4.3856,-4.2902,-4.0061,-3.7768,-3.6603,-3.4585,-3.348,-3.3654,-3.3668,-3.3801,-3.4108,-3.4282,-3.4534,-3.4815,-3.4923,-3.5057,-3.5191,-3.5191,-3.5271,-3.5431,-3.5511,-3.5751,-1.5221,-1.603,-1.7018,-1.7513,-1.8815,-1.9987,-2.0152,-1.9712,-1.9329,-1.9382,-1.9659,-1.9897,-1.9989,-2.175,-2.384,-2.5939,-2.7114,-2.8189,-2.937,-3.0834,-3.2208,-3.3293,-3.3842,-3.4362,-3.4971,-3.4301,0.0,0.0,0.0,0.0,-3.3817,-3.3817,-3.3945,-3.4257,-3.4348,-3.4697,-3.532,-3.5522,-3.5815,-3.6201,-3.6201,-3.6201,-3.6201,-3.6201,-3.6384,-3.6676,-3.7171,-3.7556,-3.7924,-3.8398,-3.86,-3.86,-3.86,-3.871,-3.8988,-3.9593,-4.0345,-4.1102,-4.1102,-4.1102,-4.1102,-4.1102,-4.1176,-4.1304,-4.1592,-4.2032,-4.2472,-4.2828,-4.2975,-4.3122,-4.3408,-4.3499,-4.3499,-4.3499,-4.3499,-4.3499,-4.3499,-4.3573,-4.3719,-4.4031,-4.416,-4.4343,-4.4746,-4.482,-4.4966,-4.537,-4.5443,-4.5553,-4.5847,-4.5883,-4.5111,-4.3014,-4.1366,-3.9412,-3.6804,-3.4765,-3.3761,-3.4068,-3.4028,-3.4122,-3.4416,-3.4643,-3.4842,-3.487,-3.5084,-3.5191,-3.5191,-3.5191,-3.5351,-3.5578,-3.5698,-3.6006,-1.6982,-1.7092,-1.7092,-1.7862,-1.8173,-1.876,-2.0592,-2.0136,-1.9732,-2.1196,-2.1526,-2.1632,-2.202,-2.4079,-2.6031,-2.6967,-2.8417,-2.9843,-3.0972,0.0,-3.2097,-3.392,-3.3633,-3.3858,-3.5295,0.0,0.0,0.0,0.0,0.0,-3.3817,-3.3817,-3.3817,-3.3853,-3.4202,-3.4422,-3.4495,-3.5247,-3.5815,-3.6201,-3.6201,-3.6201,-3.6201,-3.6201,-3.6219,-3.6292,-3.7043,-3.7409,-3.7482,-3.8289,-3.86,-3.86,-3.86,-3.9098,-3.9799,-3.9854,-4.0405,-4.1102,-4.1102,-4.1102,-4.1102,-4.1102,-4.1359,-4.1647,-4.1684,-4.2216,-4.2865,-4.2901,-4.3151,-4.3463,-4.3481,-4.3499,-4.3499,-4.3499,-4.3499,-4.3499,-4.3499,-4.3774,-4.405,-4.4068,-4.438,-4.4765,-4.5187,-4.526,-4.5388,-4.5792,-4.5847,-4.5865,-4.5883,-4.5883,-4.5111,-4.3014,-4.268,-4.1063,-3.7277,-3.5291,-3.4389,-3.4735,-3.4442,-3.4416,-3.4775,-3.4802,-3.4949,-3.5164,-3.5191,-3.5191,-3.5191,-3.5191,-3.5351,-3.5631,-3.5912,-3.6206,-1.6321,-1.6633,-1.7147,-1.821,-1.8851,-1.9621,-2.1141,-2.1508,-2.2002,-2.3657,-2.3804,-2.3822,-2.4464,-2.537,-2.6416,-2.771,-2.9085,-3.0211,-3.0888,-3.1423,-3.2218,-3.3367,-3.3312,-3.3796,-3.5269,0.0,0.0,0.0,0.0,0.0,-3.4163,-3.4163,-3.4059,-3.3817,-3.4207,-3.441,-3.4403,-3.4715,-3.5192,-3.5852,-3.6091,-3.6201,-3.6201,-3.6201,-3.6201,-3.6237,-3.6768,-3.7171,-3.7428,-3.7977,-3.8362,-3.86,-3.86,-3.9135,-3.9891,-3.9891,-4.0405,-4.1102,-4.1102,-4.1102,-4.1102,-4.1102,-4.1378,-4.1739,-4.1977,-4.2479,-4.2957,-4.3188,-4.3371,-4.3499,-4.3499,-4.3499,-4.3499,-4.3499,-4.3499,-4.3573,-4.3811,-4.3976,-4.4233,-4.4746,-4.4966,-4.5187,-4.559,-4.5663,-4.5718,-4.5865,-4.5883,-4.5883,-4.5883,-4.5883,-4.5111,-4.3014,-4.0643,-3.8703,-3.7451,-3.5674,-3.4643,-3.4802,-3.4656,-3.4723,-3.5017,-3.503,-3.5084,-3.5191,-3.5191,-3.5191,-3.5191,-3.5378,-3.5618,-3.5912,-3.6206,-3.65,-1.623,-1.6486,-1.7165,-1.8228,-1.9218,-2.0332,-2.2075,-2.2918,-2.3834,-2.5774,-2.5737,-2.5499,-2.5902,-2.6196,-2.682,-2.8168,-2.9415,-3.0387,-3.0901,-3.1451,-3.2083,-3.2832,-3.2862,-3.3386,-3.4857,0.0,0.0,0.0,0.0,0.0,0.0,-3.4405,-3.4232,-3.3817,-3.4198,-3.4327,-3.422,-3.433,-3.4678,-3.5247,-3.5779,-3.6091,-3.6201,-3.6201,-3.6201,-3.6237,-3.6621,-3.7024,-3.7409,-3.7812,-3.8142,-3.8417,-3.8545,-3.9061,-3.9707,-3.9836,-4.0405,-4.1102,-4.1102,-4.1102,-4.1102,-4.1102,-4.147,-4.1922,-4.2241,-4.2681,-4.3177,-4.3408,-4.3408,-4.3298,-4.3298,-4.3389,-4.3463,-4.3334,-4.3408,-4.3609,-4.3995,-4.4178,-4.4471,-4.5168,-4.5407,-4.5572,-4.5847,-4.5883,-4.5883,-4.5883,-4.5883,-4.5883,-4.5883,-4.5883,-4.5165,-4.3139,-4.0146,-3.8123,-3.7752,-3.5993,-3.4949,-3.4949,-3.4949,-3.499,-3.5191,-3.5191,-3.5191,-3.5191,-3.5191,-3.5244,-3.5338,-3.5538,-3.5832,-3.6219,-3.6393,-3.6647,-1.7111,-1.6908,-1.711,-1.7917,-1.9034,-2.0683,-2.3577,-2.422,-2.49,-2.7298,-2.7169,-2.6508,-2.6086,-2.6673,-2.7481,-2.826,-2.9415,-3.0479,-3.13,-3.141,-3.1704,-3.2488,-3.2231,-3.2576,0.0,0.0,0.0,0.0,0.0,0.0,0.0,-3.4405,-3.4232,-3.3817,-3.4198,-3.4198,-3.3817,-3.4202,-3.4403,-3.4403,-3.5229,-3.5815,-3.6201,-3.6201,-3.6201,-3.6237,-3.6603,-3.7024,-3.7409,-3.7851,-3.8016,-3.8014,-3.8435,-3.8838,-3.9241,-3.9626,-4.0345,-4.1102,-4.1102,-4.1102,-4.1102,-4.1102,-4.1653,-4.2314,-4.2314,-4.2839,-4.3499,-4.3499,-4.3232,-4.2901,-4.2901,-4.3169,-4.3389,-4.3012,-4.3188,-4.3609,-4.3995,-4.4398,-4.4801,-4.5223,-4.5627,-4.5883,-4.5883,-4.5883,-4.5883,-4.5883,-4.5883,-4.5883,-4.5902,-4.5902,-4.5225,-4.3403,-4.1947,-4.0202,-3.8105,-3.6259,-3.5191,-3.5191,-3.5191,-3.5191,-3.5191,-3.5191,-3.5191,-3.5191,-3.5191,-3.5338,-3.5631,-3.5578,-3.5925,-3.65,-3.65,-3.6647,-1.6616,-1.689,-1.766,-1.9034,-2.09,-2.3046,-2.537,-2.5443,-2.5645,-2.7793,-2.7812,-2.7408,-2.7279,-2.7463,-2.7885,-2.8711,-2.9599,-3.0479,-3.13,-3.1621,-3.1837,-3.2078,-3.2468,-3.2987,0.0,0.0,0.0,0.0,0.0,0.0,0.0,-3.4975,-3.4887,-3.4232,-3.4577,-3.4439,-3.3817,-3.3927,-3.4128,-3.4403,-3.4642,-3.5119,-3.5797,-3.6072,-3.6201,-3.6219,-3.6347,-3.6585,-3.7024,-3.7741,-3.8181,-3.8398,-3.8234,-3.8805,-3.9689,-3.9465,-4.0107,-4.1102,-4.1102,-4.1102,-4.1102,-4.1102,-4.1653,-4.2314,-4.2314,-4.2839,-4.3426,-4.3133,-4.3012,-4.2773,-4.2179,-4.2546,-4.3067,-4.2938,-4.3408,-4.4013,-4.4462,-4.482,-4.5242,-4.5645,-4.581,-4.5883,-4.5883,-4.5883,-4.5883,-4.5883,-4.5883,-4.5993,-4.6269,-4.6305,-4.573,-4.4207,-4.2307,-4.0345,-3.8464,-3.637,-3.5191,-3.5191,-3.5191,-3.5191,-3.5191,-3.5191,-3.5191,-3.5191,-3.5191,-3.5244,-3.5324,-3.5738,-3.6032,-3.6206,-3.662,-3.6805,-1.7221,-1.7825,-1.8833,-2.0445,-2.2053,-2.3883,-2.6279,-2.6839,-2.7169,-2.837,-2.8326,-2.805,-2.805,-2.805,-2.8252,-2.8913,-2.9794,-3.058,-3.1079,-3.1702,-3.2038,-3.1929,-3.2424,0.0,0.0,0.0,0.0,0.0,0.0,0.0,0.0,-3.5085,-3.4956,-3.4405,-3.4749,-3.4543,-3.3817,-3.3817,-3.3927,-3.4165,-3.433,-3.4752,-3.5357,-3.5797,-3.6054,-3.6219,-3.6384,-3.6658,-3.7079,-3.7721,-3.8124,-3.8325,-3.8069,-3.8566,-3.9355,-3.9263,-3.9905,-4.0882,-4.1047,-4.1102,-4.1102,-4.1102,-4.1653,-4.2314,-4.2314,-4.2729,-4.3224,-4.3133,-4.292,-4.2608,-4.2234,-4.2683,-4.3121,-4.2945,-4.3481,-4.4233,-4.4801,-4.5132,-4.5472,-4.6045,-4.5896,-4.5747,-4.6147,-4.5896,-4.57,-4.5865,-4.603,-4.6213,-4.6452,-4.6764,-4.5997,-4.334,-4.2049,-4.0189,-3.7429,-3.5967,-3.5191,-3.5191,-3.5191,-3.5191,-3.5191,-3.5191,-3.5191,-3.5191,-3.5191,-3.5257,-3.5364,-3.5845,-3.6126,-3.6259,-3.6727,-3.6885,-1.8394,-1.9236,-2.0317,-2.2039,-2.2931,-2.4091,-2.6701,-2.8197,-2.9005,-2.9005,-2.87,-2.8443,-2.8443,-2.8443,-2.8572,-2.9005,-2.9957,-3.068,-3.0812,-3.1739,-3.2288,-3.1974,-3.2262,0.0,0.0,0.0,0.0,0.0,0.0,0.0,0.0,-3.4758,-3.4666,-3.4418,-3.4727,-3.4574,-3.3851,-3.3851,-3.3851,-3.3851,-3.4183,-3.4568,-3.4954,-3.5394,-3.5834,-3.6237,-3.6566,-3.6988,-3.7409,-3.7776,-3.7998,-3.8071,-3.7979,-3.8215,-3.8692,-3.9021,-3.9722,-4.057,-4.0956,-4.1102,-4.1102,-4.1066,-4.1616,-4.2271,-4.2277,-4.2589,-4.3092,-4.3334,-4.292,-4.2449,-4.2798,-4.3197,-4.3391,-4.3125,-4.3662,-4.4434,-4.5132,-4.538,-4.5648,-4.6467,-4.5964,-4.5648,-4.6485,-4.5917,-4.548,-4.5875,-4.6327,-4.6584,-4.6621,-4.7271,-4.6091,-4.1917,-4.1598,-4.0008,-3.5862,-3.5296,-3.5191,-3.5191,-3.5191,-3.5191,-3.5191,-3.5191,-3.5191,-3.5191,-3.5191,-3.5338,-3.5578,-3.5925,-3.6219,-3.6513,-3.6794,-3.6885,-1.7623,-1.8796,-2.0518,-2.3149,-2.5535,-2.738,-2.8003,-2.8601,-2.9005,-2.9005,-2.895,-2.8876,-2.8876,-2.8876,-2.9005,-2.9409,-2.9902,-3.0456,-3.1089,-3.1841,-3.2314,-3.2288,-3.2835,0.0,0.0,0.0,0.0,0.0,0.0,0.0,-3.4258,-3.4537,-3.4594,-3.4327,-3.4632,-3.4649,-3.4267,-3.4267,-3.4267,0.0,-3.4047,-3.4147,-3.455,-3.5247,-3.5834,-3.6219,-3.6311,-3.6751,-3.7391,-3.7482,-3.7886,-3.8398,-3.7757,-3.8142,-3.904,-3.882,-3.9483,-4.057,-4.0956,-4.1102,-4.1047,-4.0735,-4.1396,-4.2216,-4.1904,-4.2789,-4.3785,-4.3192,-4.2943,-4.2852,-4.2988,-4.279,-4.29,-4.4082,-4.4766,-4.5131,-4.5279,-4.5815,-4.6383,-4.6569,-4.6467,-4.6383,-4.6569,-4.6139,-4.5933,-4.6382,-4.6781,-4.7153,-4.7505,-4.763,-4.6789,-4.4395,-4.2675,-4.0626,-3.8002,-3.6229,-3.5191,-3.5191,-3.5191,-3.5191,-3.5191,-3.5191,-3.5191,-3.5191,-3.5191,-3.5338,-3.5578,-3.5925,-3.6219,-3.6513,-3.6794,-3.6885,-1.8229,-1.9822,-2.1691,-2.4379,-2.66,-2.8124,-2.8124,-2.8407,-2.8785,-2.8968,-2.9005,-2.9005,-2.9005,-2.9005,-2.9108,-2.949,-2.9844,-3.0293,-3.0858,-3.1565,-3.2099,-3.2333,-3.2812,0.0,0.0,0.0,0.0,0.0,0.0,-3.3848,-3.4095,-3.431,-3.4282,-3.4027,-3.4519,-3.4579,-3.4125,-3.4311,-3.4474,-3.4646,-3.4059,-3.4128,-3.4715,-3.5339,-3.5834,-3.6201,-3.6201,-3.6567,-3.7116,-3.7299,-3.7739,-3.8234,-3.7629,-3.7886,-3.86,-3.86,-3.9131,-3.9997,-4.0827,-4.1102,-4.1029,-4.0644,-4.1341,-4.2197,-4.1812,-4.2573,-4.3505,-4.3019,-4.2931,-4.3,-4.323,-4.3435,-4.3909,-4.5149,-4.5418,-4.5527,-4.5862,-4.6486,-4.6962,-4.6962,-4.6626,-4.6383,-4.6616,-4.6261,-4.6159,-4.6578,-4.7188,-4.7713,-4.8145,-4.8533,-4.7899,-4.5604,-4.3419,-4.1124,-3.873,-3.6478,-3.5191,-3.5191,-3.5191,-3.5191,-3.5191,-3.5191,-3.5191,-3.5191,-3.5191,-3.5338,-3.5578,-3.5925,-3.6219,-3.6513,-3.6794,-3.6885,-1.8705,-2.0921,-2.3065,-2.5407,-2.6921,-2.7775,-2.7701,-2.8014,-2.8407,-2.8792,-2.8968,-2.9005,-2.9005,-2.9005,-2.9094,-2.945,-2.9778,-3.0141,-3.0528,-3.1153,-3.175,-3.2235,-3.2541,0.0,0.0,0.0,0.0,0.0,0.0,-3.3574,-3.3977,-3.3997,-3.3869,-3.3671,-3.4331,-3.4466,-3.3977,-3.4315,-3.464,-3.499,-3.4267,-3.4237,-3.4899,-3.5375,-3.5797,-3.6201,-3.6275,-3.6476,-3.6823,-3.7226,-3.7649,-3.7979,-3.7537,-3.7668,-3.8071,-3.8453,-3.8856,-3.941,-4.0764,-4.1145,-4.1029,-4.0635,-4.1273,-4.2087,-4.1629,-4.2174,-4.2897,-4.2897,-4.2889,-4.3074,-4.369,-4.4364,-4.5124,-4.601,-4.5989,-4.5932,-4.6607,-4.7149,-4.7541,-4.7541,-4.6829,-4.6324,-4.6571,-4.6462,-4.6451,-4.6906,-4.7665,-4.8396,-4.8814,-4.9409,-4.8712,-4.6073,-4.3757,-4.1313,-3.873,-3.6478,-3.5191,-3.5191,-3.5191,-3.5191,-3.5191,-3.5191,-3.5191,-3.5191,-3.5191,-3.5364,-3.5712,-3.5952,-3.6246,-3.658,-3.6779,-3.6885,-1.7018,-2.0262,-2.3779,-2.5554,-2.6921,-2.7701,-2.7353,-2.7591,-2.7995,-2.8388,-2.8755,-2.9005,-2.9005,-2.9005,-2.9094,-2.945,-2.9546,-2.9893,-3.08,-3.1035,-3.1378,-3.2096,-3.2246,0.0,0.0,0.0,0.0,0.0,-3.3386,-3.3406,-3.3496,-3.3484,-3.352,-3.3526,-3.396,-3.4347,-3.4667,-3.4724,-3.4969,-3.5401,-3.4681,-3.4369,-3.4495,-3.5256,-3.5813,-3.6201,-3.659,-3.6756,-3.6823,-3.7226,-3.7649,-3.7979,-3.7537,-3.7668,-3.8071,-3.8453,-3.8856,-3.945,-4.1078,-4.1378,-4.1016,-4.0633,-4.1101,-4.1629,-4.0901,-4.1724,-4.2951,-4.2932,-4.2935,-4.3273,-4.4501,-4.4625,-4.478,-4.6351,-4.699,-4.7255,-4.7288,-4.7662,-4.7987,-4.7987,-4.7642,-4.7037,-4.6311,-4.682,-4.7458,-4.7853,-4.8667,-4.9358,-4.9781,-4.9482,-4.8317,-4.6023,-4.3419,-4.0918,-3.8678,-3.6478,-3.5191,-3.5191,-3.5191,-3.5191,-3.5191,-3.5191,-3.5191,-3.5191,-3.5191,-3.5471,-3.6019,-3.6059,-3.6353,-3.6874,-3.6901,-3.6885,-1.854,-2.1343,-2.3852,-2.5297,-2.6398,-2.7096,-2.6885,-2.7187,-2.7573,-2.7995,-2.8215,-2.8472,-2.8931,-2.9153,-2.939,-2.9686,-2.9597,-2.9831,-3.0789,-3.0602,-3.0745,-3.1698,0.0,0.0,0.0,0.0,0.0,0.0,-3.325,-3.3386,-3.3386,-3.3386,-3.3325,-3.3149,-3.3785,-3.4096,-3.4123,-3.4571,-3.481,-3.4887,-3.4956,-3.4922,-3.4774,-3.5786,-3.6079,-3.5889,-3.6534,-3.6683,-3.6512,-3.6896,-3.7299,-3.7668,-3.7464,-3.7501,-3.7721,-3.8362,-3.871,-3.908,-4.0497,-4.0921,-4.0722,-4.0566,-4.1049,-4.1587,-4.1013,-4.2017,-4.3208,-4.2707,-4.2989,-4.3526,-4.4122,-4.4693,-4.5396,-4.6553,-4.7399,-4.7955,-4.8169,-4.8405,-4.8451,-4.8173,-4.7542,-4.7035,-4.6911,-4.7256,-4.7767,-4.8447,-4.9281,-4.9979,-5.0406,-5.0396,-4.9893,-4.8675,-4.5286,-4.2605,-4.1329,-3.7809,-3.5665,-3.5665,-3.5349,-3.5191,-3.5191,-3.5191,-3.5191,-3.5191,-3.5351,-3.5645,-3.6072,-3.6233,-3.654,-3.6885,-3.6885,-3.6885,-1.9237,-2.1214,-2.2662,-2.4207,-2.5362,-2.6151,-2.6288,-2.6692,-2.7169,-2.7555,-2.7703,-2.7952,-2.8564,-2.905,-2.9399,-2.9693,-2.967,-2.9892,-3.0762,-3.0411,-3.036,-3.122,0.0,0.0,0.0,0.0,0.0,0.0,-3.3086,-3.3269,-3.3386,-3.3386,-3.3292,-3.3038,-3.3603,-3.3868,-3.3727,-3.4544,-3.4805,-3.4496,-3.5192,-3.5333,-3.5011,-3.6093,-3.6264,-3.5776,-3.6588,-3.6738,-3.6386,-3.6659,-3.7101,-3.7544,-3.7429,-3.7391,-3.7482,-3.8307,-3.8545,-3.8676,-4.012,-4.0607,-4.0501,-4.0636,-4.1051,-4.1472,-4.1185,-4.2026,-4.306,-4.2612,-4.3025,-4.3629,-4.3967,-4.4919,-4.6055,-4.6894,-4.7754,-4.8457,-4.8835,-4.8913,-4.8736,-4.8223,-4.7571,-4.725,-4.7462,-4.7645,-4.7988,-4.8796,-4.9558,-5.0195,-5.0742,-5.0929,-5.0755,-4.9972,-4.6836,-4.4228,-4.2707,-3.9041,-3.6597,-3.6033,-3.5507,-3.5191,-3.5191,-3.5191,-3.5231,-3.5311,-3.5591,-3.5845,-3.6072,-3.6366,-3.6647,-3.6885,-3.6885,-3.6885,-1.711,-1.832,-1.9511,-2.1874,-2.3694,-2.5003,-2.537,-2.6068,-2.6765,-2.7151,-2.7438,-2.7679,-2.7832,-2.8391,-2.894,-2.9287,-2.9627,-3.0098,-3.0791,-3.0597,-3.0528,-3.0889,0.0,0.0,0.0,0.0,0.0,0.0,-3.2812,-3.3008,-3.3367,-3.3386,-3.3386,-3.3355,-3.3406,-3.3652,-3.4062,-3.4961,-3.5156,-3.4773,-3.5263,-3.5284,-3.4925,-3.5758,-3.6144,-3.6192,-3.7025,-3.7144,-3.6775,-3.6772,-3.7252,-3.7927,-3.7544,-3.7391,-3.7482,-3.8307,-3.8343,-3.8312,-4.0377,-4.0816,-4.0562,-4.093,-4.1109,-4.1144,-4.1122,-4.1429,-4.198,-4.2815,-4.3106,-4.3404,-4.4596,-4.5582,-4.6484,-4.7344,-4.8249,-4.8874,-4.8894,-4.8913,-4.8776,-4.8275,-4.8157,-4.8001,-4.7676,-4.793,-4.834,-4.8835,-4.9258,-4.9816,-5.0703,-5.0387,-4.9438,-4.7744,-4.6936,-4.4816,-4.061,-3.9595,-3.821,-3.6138,-3.5507,-3.5191,-3.5191,-3.5191,-3.5324,-3.5551,-3.5899,-3.6059,-3.6072,-3.6366,-3.6647,-3.6885,-3.6885,-3.6885,-1.6707,-1.788,-1.9089,-2.0738,-2.2369,-2.3761,-2.4471,-2.5443,-2.6325,-2.6747,-2.704,-2.7187,-2.7032,-2.8108,-2.906,-2.9269,-2.9584,-3.0084,-3.0781,-3.0616,-3.0509,-3.0869,0.0,0.0,0.0,0.0,0.0,0.0,0.0,-3.2988,-3.3367,-3.3386,-3.3386,-3.3386,-3.3386,-3.3633,-3.4095,-3.4648,-3.4898,-3.4821,-3.5481,-3.5641,-3.5318,-3.612,-3.651,-3.6527,-3.7156,-3.7156,-3.6794,-3.6794,-3.7295,-3.8023,-3.7583,-3.7748,-3.8315,-3.8832,-3.8933,-3.8955,-4.0247,-4.0614,-4.0621,-4.1251,-4.1515,-4.1602,-4.1879,-4.2423,-4.2988,-4.3068,-4.3529,-4.4087,-4.484,-4.5816,-4.6914,-4.7773,-4.8223,-4.8359,-4.8131,-4.8242,-4.832,-4.7891,-4.7793,-4.7851,-4.7969,-4.834,-4.8718,-4.8874,-4.9473,-4.9961,-4.998,-5.0278,-5.0262,-4.9652,-4.7158,-4.4934,-4.3402,-3.9853,-3.7406,-3.6649,-3.5717,-3.5284,-3.5471,-3.5471,-3.5618,-3.5912,-3.6206,-3.6353,-3.6353,-3.6647,-3.6834,-3.6885,-3.6885,-3.6885,-1.6046,-1.7092,-1.8247,-1.9732,-2.0903,-2.213,-2.3834,-2.4826,-2.5598,-2.627,-2.6707,-2.6908,-2.6646,-2.7758,-2.8789,-2.9032,-2.9575,-3.017,-3.0791,-3.0704,-3.0645,-3.085,0.0,0.0,0.0,0.0,0.0,0.0,0.0,0.0,-3.3184,-3.3308,-3.3386,-3.3386,-3.3386,-3.3555,-3.3848,-3.4277,-3.4576,-3.479,-3.5471,-3.5743,-3.5694,-3.6225,-3.6619,-3.6916,-3.7242,-3.729,-3.7181,-3.7071,-3.7559,-3.8404,-3.7813,-3.8131,-3.8946,-3.9183,-3.9281,-3.936,-4.0229,-4.05,-4.0637,-4.1477,-4.1745,-4.1875,-4.2461,-4.3051,-4.3463,-4.3339,-4.3835,-4.4492,-4.4922,-4.5933,-4.7109,-4.7832,-4.7988,-4.793,-4.7637,-4.7793,-4.7949,-4.7812,-4.7793,-4.793,-4.8359,-4.8718,-4.8913,-4.8913,-4.9402,-4.9687,-4.9504,-5.0019,-5.0488,-5.0781,-4.7815,-4.5566,-4.4816,-4.0574,-3.7576,-3.6649,-3.5812,-3.5431,-3.5565,-3.5725,-3.5912,-3.6219,-3.6393,-3.654,-3.6647,-3.6834,-3.6885,-3.6885,-3.6885,-3.6885,0.0,0.0,0.0,-1.8724,-1.9237,-2.0081,-2.3356,-2.4091,-2.4459,-2.5727,-2.6493,-2.6852,-2.6655,-2.7333,-2.8068,-2.8605,-2.9534,-3.0351,-3.0801,-3.0879,-3.0898,-3.0898,0.0,0.0,0.0,0.0,0.0,0.0,-3.1914,-3.2374,-3.2773,-3.3184,-3.3386,-3.3386,-3.3386,-3.3386,-3.3386,-3.3848,-3.431,-3.4707,-3.5176,-3.5605,-3.5982,-3.5982,-3.6484,-3.7305,-3.7305,-3.7578,-3.7972,-3.7568,-3.8118,-3.9126,-3.8291,-3.8553,-3.9315,-3.934,-3.9351,-3.9484,-4.0256,-4.0527,-4.0702,-4.1522,-4.1837,-4.1975,-4.2847,-4.3111,-4.3192,-4.3606,-4.4062,-4.4512,-4.4918,-4.5972,-4.7006,-4.7461,-4.7558,-4.7558,-4.7558,-4.7558,-4.7695,-4.8105,-4.8203,-4.834,-4.8815,-4.8894,-4.8894,-4.8894,-4.8894,-4.905,-4.9433,-4.9445,-4.9777,-5.0588,-4.8764,-4.6592,-4.4346,-4.1636,-3.89,-3.6204,-3.579,-3.5631,-3.5658,-3.5925,-3.626,-3.65,-3.65,-3.6647,-3.6885,-3.6885,-3.6885,-3.6885,-3.6885,-3.6885,-1.5074,0.0,0.0,0.0,0.0,0.0,0.0,-2.1437,-2.2386,-2.4661,-2.5324,-2.5752,-2.673,-2.7449,-2.8026,-2.8473,-2.925,-2.9931,-3.0332,-3.0684,-3.0898,-3.0898,0.0,0.0,0.0,0.0,0.0,0.0,-3.1621,-3.2012,-3.2754,-3.3184,-3.3386,-3.3386,-3.3386,-3.3386,-3.3386,-3.3848,-3.431,-3.4707,-3.5176,-3.5605,-3.5982,-3.5982,-3.6484,-3.7305,-3.7305,-3.7721,-3.8392,-3.8009,-3.8398,-3.9202,-3.8311,-3.8899,-4.0123,-3.9854,-4.0094,-4.0634,-4.0863,-4.1367,-4.1924,-4.2181,-4.2463,-4.2826,-4.3357,-4.3531,-4.3623,-4.4079,-4.4512,-4.5098,-4.6089,-4.6894,-4.7344,-4.7148,-4.7109,-4.7109,-4.7109,-4.7109,-4.7246,-4.7676,-4.8008,-4.8242,-4.8359,-4.8698,-4.8796,-4.8437,-4.8379,-4.8437,-4.8555,-4.8848,-4.8795,-4.8046,-4.635,-4.4541,-4.264,-3.9935,-3.799,-3.7022,-3.6841,-3.6662,-3.6246,-3.6518,-3.664,-3.65,-3.65,-3.654,-3.662,-3.6834,-3.6885,-3.6885,-3.6885,-3.6779,-1.5661,-1.6193,0.0,-1.7221,0.0,0.0,-2.0076,-2.0526,-2.1198,0.0,-2.4566,-2.4989,-2.627,-2.6884,-2.7362,-2.7864,-2.8715,-2.9512,-3.0117,-3.043,-3.0664,-3.0859,0.0,0.0,0.0,-3.0898,-3.0996,-3.123,-3.1426,-3.1894,-3.2754,-3.3184,-3.3386,-3.3386,-3.3386,-3.3386,-3.3386,-3.3672,-3.4101,-3.4707,-3.498,-3.543,-3.5982,-3.5982,-3.6484,-3.7305,-3.7305,-3.7793,-3.8574,-3.8375,-3.8769,-3.9467,-3.861,-3.928,-4.0705,-4.0125,-4.043,-4.1092,-4.1127,-4.1572,-4.2164,-4.2367,-4.2727,-4.3205,-4.3574,-4.3848,-4.4043,-4.4316,-4.4824,-4.5508,-4.6426,-4.6855,-4.6973,-4.6719,-4.6753,-4.6928,-4.7168,-4.7344,-4.7539,-4.7793,-4.8047,-4.8262,-4.8457,-4.8737,-4.8815,-4.8516,-4.8476,-4.8476,-4.8476,-4.8867,-4.8927,-4.8328,-4.5936,-4.3974,-4.2894,-3.9677,-3.7572,-3.7163,-3.7237,-3.7048,-3.6504,-3.6747,-3.6694,-3.6326,-3.6326,-3.638,-3.65,-3.6794,-3.6885,-3.6885,-3.6779,-3.6727,-1.6543,-1.7,0.0,-1.8338,-1.7532,0.0,-2.0427,-2.0448,-2.0581,0.0,-2.3833,-2.4245,-2.54,-2.5817,-2.6231,-2.6788,-2.79,-2.8996,-2.9922,-3.0098,-3.0293,-3.0762,0.0,0.0,-3.0879,-3.0898,-3.0898,-3.0898,-3.1269,-3.1875,-3.2676,-3.3125,-3.3347,-3.3386,-3.3386,-3.3386,-3.3386,-3.3386,-3.3848,-3.4707,-3.4707,-3.5156,-3.5982,-3.5982,-3.6484,-3.7305,-3.7305,-3.7793,-3.8611,-3.8611,-3.9101,-3.9806,-3.8946,-3.9678,-4.1074,-4.0241,-4.0433,-4.1204,-4.125,-4.156,-4.1996,-4.2339,-4.2793,-4.3223,-4.3594,-4.4023,-4.4414,-4.4512,-4.5117,-4.584,-4.6211,-4.6308,-4.6308,-4.6308,-4.6621,-4.7051,-4.748,-4.791,-4.8223,-4.8281,-4.8281,-4.8398,-4.8835,-4.8913,-4.8913,-4.8913,-4.8855,-4.8855,-4.8894,-4.9199,-4.9535,-4.9785,-4.6785,-4.4523,-4.3993,-4.0384,-3.78,-3.7058,-3.7272,-3.7122,-3.6592,-3.6758,-3.6612,-3.6073,-3.6019,-3.6179,-3.65,-3.6754,-3.6845,-3.6845,-3.6647,-3.6687,-1.7385,-1.7623,-1.7862,-1.7367,0.0,0.0,-1.7495,-1.8416,-1.9707,0.0,-2.1492,-2.2451,-2.406,-2.4641,-2.4919,-2.4955,-2.6317,-2.7786,-2.9004,-2.9473,-2.9872,-3.0273,0.0,0.0,-3.0859,-3.0898,-3.0898,-3.0898,-3.1269,-3.1738,-3.2296,-3.2695,-3.3066,-3.3386,-3.3386,-3.3386,-3.3386,-3.3386,-3.3848,-3.4707,-3.4707,-3.5156,-3.5982,-3.5982,-3.6484,-3.7305,-3.7305,-3.7793,-3.8611,-3.8611,-3.9101,-3.9824,-3.895,-3.9689,-4.1074,-4.0217,-4.0666,-4.1678,-4.166,-4.2206,-4.2868,-4.2949,-4.3242,-4.3594,-4.3691,-4.4023,-4.4551,-4.5234,-4.5801,-4.6191,-4.6289,-4.6308,-4.6308,-4.6308,-4.6621,-4.7051,-4.748,-4.791,-4.832,-4.8718,-4.8776,-4.8796,-4.8894,-4.8913,-4.8913,-4.8913,-4.86,-4.8457,-4.8855,-4.8991,-4.8652,-4.7649,-4.7223,-4.5684,-4.2538,-4.1514,-4.0093,-3.8,-3.798,-3.7645,-3.684,-3.6676,-3.6313,-3.5712,-3.5712,-3.5979,-3.65,-3.658,-3.658,-3.658,-3.6754,-3.6754,-1.832,-1.8375,-1.865,-1.8448,0.0,0.0,0.0,-1.8323,-1.892,-2.0222,-2.0387,-2.0877,-2.2725,-2.3054,-2.3278,-2.3997,-2.5566,-2.6855,-2.724,-2.8437,-2.9414,-2.9852,0.0,0.0,-3.0508,-3.0547,-3.0644,-3.0879,-3.1269,-3.1621,-3.1836,-3.2441,-3.2891,-3.3105,-3.332,-3.3386,-3.3386,-3.3386,-3.3848,-3.4707,-3.4707,-3.5156,-3.6035,-3.625,-3.6699,-3.7305,-3.7519,-3.7988,-3.863,-3.8809,-3.9141,-3.9512,-3.9062,-3.9687,-4.0801,-4.0371,-4.0742,-4.1523,-4.1719,-4.2363,-4.3127,-4.3127,-4.3516,-4.4004,-4.3769,-4.418,-4.4883,-4.5742,-4.6133,-4.6308,-4.6308,-4.6308,-4.6348,-4.6562,-4.6933,-4.7363,-4.7793,-4.8223,-4.8594,-4.8855,-4.8913,-4.8913,-4.8913,-4.8913,-4.8913,-4.8913,-4.8718,-4.8691,-4.9141,-4.9375,-4.937,-4.8918,-4.8266,-4.6658,-4.3621,-4.2434,-4.0667,-3.8082,-3.7939,-3.7483,-3.6484,-3.6348,-3.6001,-3.5418,-3.5551,-3.5845,-3.6286,-3.6433,-3.658,-3.6727,-3.6727,-3.6727,0.0,0.0,0.0,0.0,0.0,-1.8559,0.0,0.0,0.0,0.0,0.0,0.0,0.0,0.0,0.0,0.0,0.0,0.0,0.0,-2.6908,0.0,-2.9031,0.0,0.0,-2.9922,-2.9805,-3.0039,-3.084,-3.0898,-3.1045,-3.1474,-3.2246,-3.2715,-3.2793,-3.3203,-3.3386,-3.3386,-3.3386,-3.3848,-3.4707,-3.4707,-3.5156,-3.6001,-3.6499,-3.6929,-3.7324,-3.7734,-3.8164,-3.865,-3.9023,-3.916,-3.9101,-3.9277,-3.9824,-4.0489,-4.0489,-4.0801,-4.1289,-4.1758,-4.2383,-4.2969,-4.3144,-4.375,-4.4336,-4.4043,-4.4512,-4.5312,-4.6074,-4.6308,-4.6308,-4.6308,-4.6367,-4.6504,-4.6811,-4.7324,-4.7793,-4.8125,-4.8555,-4.8913,-4.8913,-4.8913,-4.8913,-4.8913,-4.8913,-4.8913,-4.8913,-4.8972,-4.9121,-4.9492,-4.998,-5.043,-5.0781,-4.9237,-4.732,-4.517,-4.3029,-4.0657,-3.7852,-3.7591,-3.7068,-3.6033,-3.5875,-3.5639,-3.5271,-3.5511,-3.5805,-3.6153,-3.6393,-3.6647,-3.6885,-3.6687,-3.6672,0.0,0.0,0.0,0.0,-2.0555,0.0,0.0,0.0,-1.9316,-1.8125,0.0,0.0,0.0,0.0,0.0,0.0,0.0,0.0,-2.3479,-2.4672,-2.5981,-2.7168,0.0,0.0,0.0,-2.8398,-2.8797,-3.0742,-2.9512,-2.9492,-3.1406,-3.1973,-3.2433,-3.2793,-3.3203,-3.3386,-3.3386,-3.3386,-3.3848,-3.4707,-3.4707,-3.5156,-3.6001,-3.6499,-3.6929,-3.7324,-3.7734,-3.8164,-3.865,-3.9023,-3.8984,-3.873,-3.9512,-4.0098,-4.0489,-4.0489,-4.0801,-4.1328,-4.207,-4.2422,-4.2617,-4.3379,-4.3984,-4.4453,-4.4785,-4.5215,-4.5703,-4.6172,-4.6308,-4.6308,-4.6308,-4.6582,-4.6831,-4.687,-4.7539,-4.8144,-4.8203,-4.8555,-4.8913,-4.8913,-4.8913,-4.8913,-4.8913,-4.8913,-4.8913,-4.8913,-4.9199,-4.9473,-4.9465,-5.0234,-5.0762,-5.0801,-4.9237,-4.732,-4.517,-4.3029,-4.0657,-3.7852,-3.7225,-3.6701,-3.6033,-3.5559,-3.5364,-3.5578,-3.5551,-3.5899,-3.6473,-3.65,-3.6647,-3.6885,-3.6845,-3.6845,0.0,0.0,0.0,0.0,0.0,0.0,-1.8602,0.0,-1.8877,0.0,0.0,0.0,0.0,0.0,0.0,0.0,-2.1328,0.0,0.0,0.0,-2.473,0.0,0.0,0.0,0.0,0.0,0.0,0.0,-2.8984,-2.9023,-3.0664,-3.169,-3.2276,-3.2452,-3.3066,-3.3386,-3.3386,-3.3386,-3.3848,-3.4707,-3.4707,-3.5156,-3.6001,-3.6719,-3.7129,-3.7324,-3.8008,-3.8398,-3.8669,-3.9316,-3.9336,-3.9043,-4.0195,-4.0449,-4.0215,-4.0723,-4.1172,-4.1621,-4.2187,-4.2713,-4.3281,-4.3906,-4.4238,-4.4473,-4.4902,-4.5332,-4.5762,-4.6191,-4.6308,-4.6367,-4.6601,-4.6753,-4.7006,-4.7558,-4.7949,-4.8281,-4.8535,-4.8776,-4.8913,-4.8913,-4.8913,-4.8913,-4.8913,-4.8913,-4.8991,-4.9199,-4.9414,-4.966,-5.0215,-5.0586,-5.0898,-5.1133,-4.9369,-4.732,-4.517,-4.3029,-4.0657,-3.7852,-3.7225,-3.6806,-3.6544,-3.6158,-3.599,-3.6112,-3.6127,-3.6259,-3.65,-3.6687,-3.6779,-3.6885,-3.6885,-3.6885,-2.2987,0.0,0.0,0.0,0.0,0.0,0.0,0.0,0.0,0.0,0.0,0.0,0.0,0.0,0.0,0.0,0.0,-2.1329,0.0,0.0,0.0,0.0,0.0,0.0,0.0,0.0,0.0,0.0,0.0,-2.8249,-3.0098,-3.123,-3.1964,-3.2198,-3.2871,-3.3269,-3.3386,-3.3535,-3.3965,-3.4707,-3.4824,-3.5293,-3.6035,-3.6797,-3.7187,-3.7344,-3.8086,-3.8457,-3.8689,-3.9531,-3.9629,-3.9336,-4.0702,-4.0723,-4.0156,-4.0937,-4.1445,-4.1855,-4.2285,-4.2988,-4.3789,-4.4258,-4.4473,-4.4648,-4.5078,-4.5508,-4.5918,-4.6211,-4.6308,-4.6406,-4.6816,-4.7012,-4.7285,-4.8027,-4.8301,-4.8476,-4.8835,-4.8913,-4.8913,-4.8913,-4.8913,-4.8913,-4.8913,-4.9011,-4.916,-4.9473,-4.9679,-5.0098,-5.0723,-5.0898,-5.1094,-5.1358,-4.9482,-4.732,-4.517,-4.3029,-4.0657,-3.7852,-3.7225,-3.6953,-3.7037,-3.6679,-3.6566,-3.6731,-3.6558,-3.654,-3.662,-3.6834,-3.6885,-3.6885,-3.6885,-3.6885,0.0,0.0,0.0,-2.2385,0.0,0.0,0.0,0.0,-2.0283,0.0,0.0,0.0,0.0,0.0,0.0,0.0,0.0,0.0,0.0,0.0,0.0,0.0,0.0,0.0,0.0,0.0,0.0,0.0,-2.6627,0.0,-3.0019,-3.0664,-3.1338,-3.2179,-3.2598,-3.3008,-3.3386,-3.3848,-3.431,-3.4707,-3.5156,-3.5605,-3.6001,-3.6484,-3.6949,-3.7324,-3.7754,-3.8184,-3.8689,-3.9531,-3.9629,-3.9336,-4.0702,-4.0898,-4.0566,-4.1016,-4.1445,-4.1855,-4.2285,-4.2988,-4.3789,-4.4258,-4.4668,-4.5078,-4.5527,-4.5957,-4.6289,-4.6289,-4.6308,-4.6406,-4.6816,-4.7246,-4.7676,-4.8105,-4.8535,-4.8894,-4.8894,-4.8913,-4.8913,-4.8913,-4.8913,-4.8913,-4.8913,-4.9219,-4.9512,-4.9484,-5.0234,-5.0781,-5.0801,-5.1152,-5.1358,-5.1377,-4.9482,-4.732,-4.517,-4.3029,-4.0657,-3.7852,-3.7225,-3.7037,-3.7279,-3.679,-3.6758,-3.7346,-3.6787,-3.6647,-3.6885,-3.6885,-3.6885,-3.6885,-3.6885,-3.6885,0.0,0.0,-2.7569,-2.4193,0.0,0.0,0.0,0.0,0.0,0.0,0.0,0.0,0.0,0.0,0.0,0.0,0.0,0.0,0.0,0.0,0.0,0.0,0.0,0.0,0.0,0.0,0.0,0.0,-2.5723,0.0,0.0,-3.0039,-3.0976,-3.2159,-3.2578,-3.2988,-3.3386,-3.3848,-3.431,-3.4707,-3.5176,-3.5605,-3.6001,-3.6758,-3.7168,-3.7344,-3.8047,-3.8594,-3.9004,-3.9316,-3.9687,-4.0117,-4.0566,-4.084,-4.0976,-4.1152,-4.1621,-4.2324,-4.3027,-4.3457,-4.3789,-4.4258,-4.4687,-4.5117,-4.5547,-4.5976,-4.6308,-4.6308,-4.6504,-4.6816,-4.7246,-4.7676,-4.8105,-4.8581,-4.8796,-4.8913,-4.8913,-4.8913,-4.8913,-4.8913,-4.8913,-4.8991,-4.9258,-4.9668,-4.9961,-4.9961,-5.0449,-5.0898,-5.1143,-5.1299,-5.1377,-5.1377,-4.9482,-4.732,-4.517,-4.1667,-3.9241,-3.8269,-3.8263,-3.8331,-3.8432,-3.7927,-3.7696,-3.7904,-3.7168,-3.6834,-3.6885,-3.6885,-3.6885,-3.6885,-3.6885,-3.6885,-2.8279,-2.8898,0.0,-2.6276,-2.5883,0.0,-2.2361,0.0,0.0,0.0,0.0,0.0,0.0,0.0,0.0,0.0,0.0,0.0,0.0,-1.7971,0.0,0.0,0.0,0.0,0.0,0.0,-2.3496,-2.5562,-2.4746,-2.541,0.0,0.0,-3.041,-3.1894,-3.2344,-3.2851,-3.3386,-3.4004,-3.4434,-3.4707,-3.5312,-3.5762,-3.6001,-3.6758,-3.7148,-3.7344,-3.8047,-3.8672,-3.9219,-3.9375,-3.9883,-4.0508,-4.0684,-4.0918,-4.123,-4.1387,-4.1933,-4.2754,-4.3457,-4.3808,-4.4023,-4.4473,-4.4902,-4.5332,-4.5762,-4.6094,-4.6308,-4.6308,-4.6601,-4.7031,-4.7461,-4.7891,-4.832,-4.8796,-4.8913,-4.8913,-4.8913,-4.8913,-4.8913,-4.8913,-4.9031,-4.918,-4.9473,-5.0019,-5.0391,-5.0391,-5.0762,-5.1133,-5.1358,-5.1377,-5.1377,-5.1377,-5.0168,-4.8163,-4.527,-4.1735,-3.9345,-3.8543,-3.8798,-3.8965,-3.887,-3.845,-3.8178,-3.8085,-3.7317,-3.6885,-3.6885,-3.6885,-3.6885,-3.6885,-3.6885,-3.6885]},{"header":{"parameterUnit":"m.s-1","parameterCategory":1,"la1":30.6,"la2":29.2853,"lo1":-89.7004,"lo2":-87.6739,"dy":0.0162,"dx":0.0183,"nx":112,"ny":82,"refTime":"2026-02-28T12:00:00:Z","depth":0,"parameterNumber":3,"parameterNumberName":"V-component_of_WINDS"},"data":[0.0,0.0,0.0,0.0,0.0,0.0,0.0,0.0,0.0,0.0,0.0,0.0,0.0,0.0,0.0,0.0,0.0,0.0,0.0,0.0,0.0,0.0,0.0,0.0,0.0,0.0,0.0,0.0,0.0,0.0,0.0,0.0,0.0,0.0,0.0,0.0,0.0,0.0,0.0,0.0,0.0,0.0,0.0,0.0,0.0,0.0,0.0,0.0,0.0,0.0,0.0,0.0,0.0,0.0,0.0,0.0,0.0,0.0,0.0,0.0,0.0,0.0,0.0,0.0,0.0,0.0,0.0,0.0,0.0,0.0,0.0,0.0,0.0,0.0,0.0,0.0,0.0,0.0,0.0,0.0,0.0,0.0,0.0,0.0,0.0,0.0,0.0,0.0,0.0,0.0,4.1837,4.5287,5.0168,5.292,5.2234,5.184,4.9417,4.4204,0.0,0.0,0.0,0.0,0.0,0.0,0.0,0.0,0.0,0.0,0.0,0.0,0.0,0.0,0.0,0.0,0.0,0.0,0.0,0.0,0.0,0.0,0.0,0.0,0.0,0.0,0.0,0.0,0.0,0.0,0.0,0.0,0.0,0.0,0.0,0.0,0.0,0.0,0.0,0.0,0.0,0.0,0.0,0.0,0.0,0.0,0.0,0.0,0.0,0.0,0.0,0.0,0.0,0.0,0.0,0.0,0.0,0.0,0.0,0.0,0.0,0.0,0.0,0.0,0.0,0.0,0.0,0.0,0.0,0.0,0.0,0.0,0.0,0.0,0.0,0.0,0.0,0.0,0.0,0.0,0.0,0.0,0.0,0.0,0.0,0.0,0.0,0.0,0.0,0.0,0.0,0.0,0.0,0.0,0.0,0.0,0.0,0.0,0.0,0.0,0.0,0.0,0.0,0.0,4.1083,4.904,5.1856,5.3141,5.3031,5.1143,4.8683,4.57,0.0,0.0,0.0,0.0,0.0,0.0,0.0,0.0,0.0,0.0,0.0,0.0,0.0,0.0,0.0,0.0,0.0,0.0,0.0,0.0,0.0,0.0,0.0,0.0,0.0,0.0,0.0,0.0,0.0,0.0,0.0,0.0,0.0,0.0,0.0,0.0,0.0,0.0,0.0,0.0,0.0,0.0,0.0,0.0,0.0,0.0,0.0,0.0,0.0,0.0,0.0,0.0,0.0,0.0,0.0,0.0,0.0,0.0,0.0,0.0,0.0,0.0,0.0,0.0,0.0,0.0,0.0,0.0,0.0,0.0,0.0,0.0,0.0,0.0,0.0,0.0,0.0,0.0,0.0,0.0,0.0,0.0,0.0,0.0,0.0,0.0,0.0,0.0,0.0,0.0,0.0,0.0,0.0,0.0,0.0,0.0,0.0,0.0,0.0,0.0,0.0,0.0,0.0,4.0855,4.4461,5.0765,5.248,5.3214,5.3214,5.1389,4.9013,4.6067,4.2066,0.0,0.0,0.0,0.0,0.0,0.0,0.0,0.0,0.0,0.0,0.0,0.0,0.0,0.0,0.0,0.0,0.0,0.0,0.0,0.0,0.0,0.0,0.0,0.0,0.0,0.0,0.0,0.0,0.0,0.0,0.0,0.0,0.0,0.0,0.0,0.0,0.0,0.0,0.0,0.0,0.0,0.0,0.0,0.0,0.0,0.0,0.0,0.0,0.0,0.0,0.0,0.0,0.0,0.0,0.0,0.0,0.0,0.0,0.0,0.0,0.0,0.0,0.0,0.0,0.0,0.0,0.0,0.0,0.0,0.0,0.0,0.0,0.0,0.0,0.0,0.0,0.0,0.0,0.0,0.0,0.0,0.0,0.0,0.0,0.0,0.0,0.0,0.0,0.0,0.0,0.0,0.0,0.0,0.0,0.0,0.0,0.0,0.0,0.0,0.0,0.0,0.0,4.5847,4.8416,5.1903,5.281,5.3214,5.3214,5.1342,4.8967,4.6067,4.1001,0.0,0.0,0.0,0.0,0.0,0.0,0.0,0.0,0.0,0.0,0.0,0.0,0.0,0.0,0.0,0.0,0.0,0.0,0.0,0.0,0.0,0.0,0.0,0.0,0.0,0.0,0.0,0.0,0.0,0.0,0.0,0.0,0.0,0.0,0.0,0.0,0.0,0.0,0.0,0.0,0.0,0.0,0.0,0.0,0.0,0.0,0.0,0.0,0.0,0.0,0.0,0.0,0.0,0.0,0.0,0.0,0.0,0.0,0.0,0.0,0.0,0.0,0.0,0.0,0.0,0.0,0.0,0.0,0.0,0.0,0.0,0.0,0.0,0.0,0.0,0.0,0.0,0.0,0.0,0.0,0.0,0.0,0.0,0.0,0.0,0.0,0.0,0.0,0.0,0.0,0.0,0.0,0.0,0.0,0.0,0.0,0.0,0.0,0.0,0.0,0.0,0.0,4.7131,5.1122,5.292,5.3177,5.3214,5.3214,5.0315,4.7755,4.5993,3.9974,0.0,0.0,0.0,0.0,0.0,0.0,0.0,0.0,0.0,0.0,0.0,0.0,0.0,0.0,0.0,0.0,0.0,0.0,0.0,0.0,0.0,0.0,0.0,0.0,0.0,0.0,0.0,0.0,0.0,0.0,0.0,0.0,0.0,0.0,0.0,0.0,0.0,0.0,0.0,0.0,0.0,0.0,0.0,0.0,0.0,0.0,0.0,0.0,0.0,0.0,0.0,0.0,0.0,0.0,0.0,0.0,0.0,0.0,0.0,0.0,0.0,0.0,0.0,0.0,0.0,0.0,0.0,0.0,0.0,0.0,0.0,0.0,0.0,0.0,0.0,0.0,0.0,0.0,0.0,0.0,0.0,0.0,0.0,0.0,0.0,0.0,0.0,0.0,0.0,0.0,0.0,0.0,0.0,0.0,0.0,0.0,0.0,0.0,0.0,0.0,0.0,0.0,4.6351,5.0241,0.0,5.3654,5.3728,5.3251,5.1159,4.8746,4.6067,0.0,0.0,0.0,0.0,0.0,0.0,0.0,0.0,0.0,0.0,0.0,0.0,0.0,0.0,0.0,0.0,0.0,0.0,0.0,0.0,0.0,0.0,0.0,0.0,0.0,0.0,0.0,0.0,0.0,0.0,0.0,0.0,0.0,0.0,0.0,0.0,0.0,0.0,0.0,0.0,0.0,0.0,0.0,0.0,0.0,0.0,0.0,0.0,0.0,0.0,0.0,0.0,0.0,0.0,0.0,0.0,0.0,0.0,0.0,0.0,0.0,0.0,0.0,0.0,0.0,0.0,0.0,0.0,0.0,0.0,0.0,0.0,0.0,0.0,0.0,0.0,0.0,0.0,0.0,0.0,0.0,0.0,0.0,0.0,0.0,0.0,0.0,0.0,0.0,0.0,0.0,0.0,0.0,0.0,0.0,0.0,0.0,0.0,0.0,0.0,0.0,0.0,4.2103,4.6654,5.0618,0.0,5.4693,5.495,5.4388,5.2417,4.9664,4.6104,0.0,0.0,0.0,0.0,0.0,0.0,0.0,0.0,0.0,0.0,0.0,0.0,0.0,0.0,0.0,0.0,0.0,0.0,0.0,0.0,0.0,0.0,0.0,0.0,0.0,0.0,0.0,0.0,0.0,0.0,0.0,0.0,0.0,0.0,0.0,0.0,0.0,0.0,0.0,0.0,0.0,0.0,0.0,0.0,0.0,0.0,0.0,0.0,0.0,0.0,0.0,0.0,0.0,0.0,0.0,0.0,0.0,0.0,0.0,0.0,0.0,0.0,0.0,0.0,0.0,0.0,0.0,0.0,0.0,0.0,0.0,0.0,0.0,0.0,0.0,0.0,0.0,0.0,0.0,0.0,0.0,0.0,0.0,0.0,0.0,0.0,0.0,0.0,0.0,0.0,0.0,0.0,0.0,0.0,0.0,0.0,0.0,0.0,0.0,0.0,0.0,0.0,4.2992,4.8499,5.2978,5.5365,5.6345,5.6811,5.6811,5.3885,5.0261,0.0,0.0,0.0,0.0,0.0,0.0,0.0,0.0,0.0,0.0,0.0,0.0,0.0,0.0,0.0,0.0,0.0,0.0,0.0,0.0,0.0,0.0,0.0,0.0,0.0,0.0,0.0,0.0,0.0,0.0,0.0,0.0,0.0,0.0,0.0,0.0,0.0,0.0,0.0,0.0,0.0,0.0,0.0,0.0,0.0,0.0,0.0,0.0,0.0,0.0,0.0,0.0,0.0,0.0,0.0,0.0,0.0,0.0,0.0,0.0,0.0,0.0,0.0,0.0,0.0,0.0,0.0,0.0,0.0,0.0,0.0,0.0,0.0,0.0,0.0,0.0,0.0,0.0,0.0,0.0,0.0,0.0,0.0,0.0,0.0,0.0,0.0,0.0,0.0,0.0,0.0,0.0,0.0,0.0,0.0,0.0,0.0,0.0,0.0,0.0,0.0,0.0,0.0,4.4599,5.0665,5.5254,5.709,5.8033,5.8022,5.6884,5.4876,5.1463,4.6214,0.0,0.0,0.0,0.0,0.0,0.0,0.0,0.0,0.0,0.0,0.0,0.0,0.0,0.0,0.0,0.0,0.0,0.0,0.0,0.0,0.0,0.0,0.0,0.0,0.0,0.0,0.0,0.0,0.0,0.0,0.0,0.0,0.0,0.0,0.0,0.0,0.0,0.0,0.0,0.0,0.0,0.0,0.0,0.0,0.0,0.0,0.0,0.0,0.0,0.0,0.0,0.0,0.0,0.0,0.0,0.0,0.0,0.0,0.0,0.0,0.0,0.0,0.0,0.0,0.0,0.0,0.0,0.0,0.0,0.0,0.0,0.0,0.0,0.0,0.0,0.0,0.0,0.0,0.0,0.0,0.0,0.0,0.0,0.0,0.0,0.0,0.0,0.0,0.0,0.0,0.0,0.0,0.0,0.0,0.0,0.0,0.0,0.0,0.0,0.0,0.0,0.0,4.5296,5.1583,5.6466,5.8731,5.9685,5.9758,5.8804,5.7262,5.3775,4.7765,0.0,0.0,0.0,0.0,0.0,0.0,0.0,0.0,0.0,0.0,0.0,0.0,0.0,0.0,0.0,0.0,0.0,0.0,0.0,0.0,0.0,0.0,0.0,0.0,0.0,0.0,0.0,0.0,0.0,0.0,0.0,0.0,0.0,0.0,0.0,0.0,0.0,0.0,0.0,0.0,0.0,0.0,0.0,0.0,0.0,0.0,0.0,0.0,0.0,0.0,0.0,0.0,0.0,0.0,0.0,0.0,0.0,0.0,0.0,0.0,0.0,0.0,0.0,0.0,0.0,0.0,0.0,0.0,0.0,0.0,0.0,0.0,0.0,0.0,0.0,0.0,0.0,0.0,0.0,0.0,0.0,0.0,0.0,0.0,0.0,0.0,0.0,0.0,0.0,0.0,0.0,0.0,0.0,0.0,0.0,0.0,0.0,0.0,0.0,0.0,0.0,0.0,4.559,5.1914,5.7152,6.0309,6.1263,6.1679,6.1606,6.0114,5.6517,5.0235,0.0,0.0,0.0,0.0,0.0,0.0,0.0,0.0,0.0,0.0,0.0,0.0,0.0,0.0,0.0,0.0,0.0,0.0,0.0,0.0,0.0,0.0,0.0,0.0,0.0,0.0,0.0,0.0,0.0,0.0,0.0,0.0,0.0,0.0,0.0,0.0,0.0,0.0,0.0,0.0,0.0,0.0,0.0,0.0,0.0,0.0,0.0,0.0,0.0,0.0,0.0,0.0,0.0,0.0,0.0,0.0,0.0,0.0,0.0,0.0,4.0959,0.0,0.0,0.0,0.0,0.0,0.0,0.0,0.0,0.0,0.0,0.0,0.0,0.0,0.0,0.0,0.0,0.0,0.0,0.0,0.0,0.0,0.0,0.0,0.0,0.0,0.0,0.0,0.0,0.0,0.0,0.0,0.0,0.0,0.0,0.0,0.0,0.0,0.0,0.0,0.0,0.0,4.8095,5.4436,5.9416,6.2022,6.2426,6.2291,6.163,6.0114,5.6994,5.1803,4.6874,0.0,0.0,0.0,0.0,0.0,0.0,0.0,0.0,0.0,0.0,0.0,0.0,0.0,0.0,0.0,0.0,0.0,0.0,0.0,0.0,0.0,0.0,0.0,0.0,0.0,0.0,0.0,0.0,0.0,0.0,0.0,0.0,0.0,0.0,0.0,0.0,0.0,0.0,0.0,0.0,0.0,0.0,0.0,0.0,0.0,0.0,0.0,0.0,0.0,0.0,0.0,0.0,0.0,0.0,0.0,0.0,0.0,0.0,0.0,0.0,4.3921,0.0,0.0,0.0,0.0,0.0,0.0,0.0,0.0,0.0,0.0,0.0,0.0,0.0,0.0,0.0,0.0,0.0,0.0,0.0,0.0,0.0,0.0,0.0,0.0,0.0,0.0,0.0,0.0,0.0,0.0,0.0,0.0,0.0,0.0,0.0,0.0,0.0,0.0,0.0,0.0,4.949,5.5453,6.0114,6.2536,6.2793,6.2646,6.2218,6.108,5.8621,5.4546,5.0105,0.0,0.0,0.0,0.0,0.0,0.0,0.0,0.0,0.0,0.0,0.0,0.0,0.0,0.0,0.0,0.0,0.0,0.0,0.0,0.0,0.0,0.0,0.0,0.0,0.0,0.0,0.0,0.0,0.0,0.0,0.0,0.0,0.0,0.0,0.0,0.0,0.0,0.0,0.0,0.0,0.0,0.0,0.0,0.0,0.0,0.0,0.0,0.0,0.0,0.0,0.0,0.0,0.0,5.0507,5.2369,5.4851,5.5482,5.6423,5.731,5.4153,5.1914,5.0408,4.8416,0.0,0.0,0.0,0.0,0.0,0.0,0.0,0.0,0.0,0.0,0.0,0.0,0.0,0.0,0.0,0.0,0.0,0.0,0.0,0.0,0.0,0.0,0.0,0.0,5.237,5.259,0.0,0.0,0.0,0.0,0.0,0.0,0.0,0.0,0.0,0.0,0.0,0.0,5.0582,5.6003,6.0334,6.2756,6.3013,6.3086,6.3233,6.2365,6.0603,5.7802,5.3739,4.9554,0.0,0.0,0.0,0.0,0.0,0.0,0.0,0.0,0.0,0.0,0.0,0.0,0.0,0.0,0.0,0.0,0.0,0.0,0.0,0.0,0.0,0.0,0.0,0.0,0.0,0.0,0.0,0.0,0.0,0.0,0.0,0.0,3.2283,3.2559,0.0,0.0,0.0,0.0,0.0,0.0,0.0,0.0,0.0,0.0,0.0,0.0,0.0,4.6089,4.7719,5.0708,5.3562,5.6322,5.9095,6.1556,6.361,6.372,6.4259,6.5081,6.5241,0.0,5.4777,5.4447,0.0,0.0,0.0,0.0,0.0,0.0,0.0,0.0,0.0,0.0,0.0,0.0,0.0,0.0,0.0,0.0,0.0,0.0,0.0,0.0,0.0,0.0,5.7508,5.7728,5.8646,5.8976,0.0,5.0912,4.4745,4.1874,3.9753,0.0,0.0,0.0,0.0,0.0,0.0,0.0,5.226,5.7178,6.119,6.3662,6.3906,6.42,6.4921,6.3527,6.2169,6.1043,5.6528,5.3335,5.1966,4.6755,0.0,0.0,0.0,0.0,0.0,0.0,0.0,0.0,0.0,0.0,0.0,0.0,0.0,0.0,0.0,0.0,0.0,0.0,0.0,0.0,0.0,0.0,0.0,0.0,0.0,0.0,0.0,0.0,0.0,3.2283,3.4663,3.4249,3.6008,3.6087,0.0,0.0,0.0,0.0,0.0,0.0,0.0,0.0,0.0,4.8863,5.1039,5.3085,5.5041,5.7369,5.9533,6.1549,6.3766,6.5727,6.7393,6.7863,6.8727,6.9937,7.0316,6.866,6.5424,6.0835,5.6895,5.3518,0.0,0.0,0.0,0.0,5.0739,5.173,5.4473,5.5343,0.0,5.5023,0.0,0.0,0.0,0.0,0.0,0.0,0.0,0.0,0.0,0.0,0.0,6.2316,6.3233,6.3613,6.2793,5.8829,5.3875,0.0,4.6911,4.4342,3.8615,0.0,0.0,0.0,0.0,5.0765,5.4719,5.9049,6.2365,6.3919,6.4494,6.4934,6.5251,6.4628,6.3637,6.2365,5.9869,5.7666,5.5978,5.1746,4.8333,0.0,0.0,0.0,0.0,0.0,0.0,0.0,0.0,0.0,0.0,0.0,0.0,0.0,0.0,0.0,0.0,0.0,0.0,0.0,0.0,0.0,0.0,0.0,0.0,0.0,0.0,0.0,0.0,3.519,3.7111,3.6191,3.9077,3.9457,0.0,0.0,0.0,0.0,0.0,0.0,4.5324,4.8456,5.148,5.4246,5.6987,5.9222,6.0928,6.2335,6.3862,6.5514,6.6865,6.8329,6.9912,7.034,7.12,7.2309,7.2309,7.2749,7.2936,6.6446,6.2475,6.0162,5.7189,5.5856,5.582,5.7262,5.7898,5.8657,6.2658,6.3539,6.2768,6.2169,0.0,5.7189,5.2737,0.0,0.0,0.0,0.0,5.4583,5.9024,6.1667,6.3723,6.5999,6.699,6.7247,6.6659,6.5068,6.1838,0.0,5.3639,5.0986,4.3938,0.0,0.0,0.0,0.0,5.4069,5.7288,6.0701,6.327,6.4567,6.5264,6.5692,6.5888,6.5742,6.5068,6.382,6.2805,6.1337,5.9318,5.6517,5.3702,5.0886,0.0,0.0,0.0,0.0,0.0,0.0,0.0,0.0,0.0,0.0,0.0,0.0,0.0,0.0,0.0,0.0,0.0,0.0,0.0,0.0,0.0,0.0,0.0,0.0,0.0,0.0,0.0,0.0,0.0,3.8606,4.2376,0.0,0.0,0.0,0.0,4.2723,4.5665,4.8557,5.1304,5.5092,5.8174,6.0294,6.2075,6.306,6.3234,6.4138,6.5702,6.7936,6.869,7.0253,7.2406,7.1728,7.146,7.1548,7.1548,7.1974,7.2511,7.0492,6.8692,6.6966,6.4506,6.3062,6.2426,6.3319,6.4163,6.5081,6.6843,6.6916,6.6623,6.8825,6.5852,6.1153,6.0126,5.7593,0.0,0.0,5.9208,6.1814,6.5191,6.6733,6.7811,6.9449,6.9889,6.9889,6.9853,6.7981,6.5044,0.0,5.8132,5.593,5.3959,0.0,5.183,5.248,5.4216,5.6576,5.9795,6.1728,6.371,6.6109,6.6402,6.6733,6.7517,6.688,6.6402,6.6329,6.4824,6.3539,6.2609,6.0921,5.818,5.4252,5.0886,0.0,0.0,0.0,0.0,0.0,0.0,0.0,0.0,0.0,0.0,0.0,0.0,0.0,0.0,0.0,0.0,0.0,0.0,0.0,0.0,0.0,0.0,0.0,0.0,0.0,0.0,0.0,0.0,4.2928,4.6583,0.0,4.4458,4.5734,4.6975,4.7527,5.0804,5.3641,5.5659,5.8886,6.1238,6.2489,6.4529,6.5637,6.5654,6.6462,6.7307,6.8116,6.8879,6.9695,7.0488,7.0698,7.1074,7.1579,7.1579,7.1979,7.2602,7.1972,7.1654,7.1409,7.0036,6.9339,6.9082,6.9376,7.0,7.077,7.1372,7.1372,7.1027,7.033,6.8017,6.5167,6.3319,6.1961,6.1202,6.1741,6.3282,6.5264,6.7467,6.9045,7.0169,7.072,7.0866,7.0734,7.022,6.9412,6.8091,6.5558,6.2695,5.9673,5.648,5.6748,5.6785,5.5023,5.7446,6.0052,6.1728,6.382,6.5521,6.6402,6.6966,6.7407,6.7664,6.7444,6.6843,6.5778,6.5191,6.4237,6.2866,6.1741,6.0236,5.829,5.5108,5.0408,0.0,0.0,0.0,0.0,0.0,0.0,0.0,0.0,0.0,0.0,0.0,0.0,0.0,0.0,0.0,0.0,0.0,0.0,0.0,0.0,0.0,0.0,0.0,0.0,0.0,0.0,4.5307,4.6086,4.9755,5.1168,4.8376,5.0424,5.2114,5.2632,5.5685,5.8081,5.9392,6.1779,6.3363,6.3886,6.5614,6.6556,6.6556,6.7354,6.7842,6.8118,6.8931,6.9414,6.969,6.9932,7.0322,7.0837,7.0837,7.1225,7.1944,7.2168,7.2703,7.3302,7.2739,7.2496,7.2532,7.2789,7.3413,7.4111,7.4111,7.4111,7.378,7.1908,7.0403,6.9082,6.7737,6.7333,6.7297,6.699,6.7907,6.9119,6.9926,7.0903,7.1711,7.1711,7.1711,7.1564,7.1027,7.0477,6.9779,6.8728,6.6292,6.3417,6.0224,6.0994,6.1153,5.8437,6.0786,6.3025,6.3563,6.5338,6.6586,6.688,6.737,6.77,6.77,6.7187,6.6549,6.5778,6.4921,6.382,6.2426,6.163,6.0566,5.9196,5.5757,5.1573,4.6691,0.0,0.0,0.0,0.0,0.0,0.0,0.0,0.0,0.0,0.0,0.0,0.0,0.0,0.0,0.0,0.0,0.0,0.0,0.0,0.0,0.0,0.0,0.0,3.9871,4.5065,4.8637,4.8065,5.1927,5.3789,5.1617,5.4065,5.6409,5.7909,6.0082,6.1668,6.248,6.391,6.4703,6.4703,6.5516,6.593,6.593,6.6689,6.7394,6.8118,6.8897,6.9656,7.0311,6.9587,6.9276,6.9276,6.9276,6.9717,7.0448,7.1274,7.2023,7.2634,7.2568,7.2548,7.2687,7.3458,7.428,7.4977,7.4977,7.494,7.4793,7.4001,7.3193,7.2679,7.3377,7.3634,7.345,7.2642,7.301,7.345,7.2679,7.2496,7.2496,7.2496,7.2496,7.2496,7.2459,7.1248,7.0146,7.0073,6.8839,6.7247,6.5655,6.5362,6.4774,6.316,6.4297,0.0,6.5325,6.6035,6.6843,6.759,6.7664,6.7664,6.7664,6.6219,6.5618,6.6366,6.4114,6.2389,6.1643,6.0823,5.9306,5.6994,5.2957,5.0105,4.848,0.0,0.0,0.0,0.0,0.0,0.0,0.0,0.0,0.0,0.0,0.0,0.0,0.0,0.0,0.0,0.0,0.0,0.0,0.0,0.0,0.0,4.0526,4.3824,4.3824,4.7651,5.141,5.4011,5.6357,5.7961,5.8461,5.9254,5.9909,6.0323,6.1496,6.2273,6.248,6.391,6.4703,6.4703,6.5979,6.6723,6.6723,6.7428,6.7911,6.8083,6.8325,6.8532,6.8739,6.8532,6.8448,6.8463,6.9035,6.9416,6.9708,7.0988,7.1666,7.186,7.2416,7.332,7.4336,7.4554,7.551,7.6628,7.6628,7.6261,7.5652,7.483,7.4037,7.3193,7.2261,7.1967,7.1798,7.0991,7.1358,7.1894,7.1674,7.2041,7.2496,7.2496,7.2496,7.2349,7.1747,7.1762,7.1321,6.9559,6.9339,6.8935,6.7333,6.6549,6.5999,6.5558,6.5888,0.0,6.6182,6.688,6.7223,6.688,6.6843,6.6843,6.6843,6.5888,6.5154,6.4787,6.2989,6.1814,6.1606,6.0823,6.0346,6.0272,5.5757,5.3188,0.0,0.0,0.0,0.0,0.0,0.0,0.0,0.0,0.0,0.0,0.0,0.0,0.0,0.0,0.0,0.0,0.0,0.0,0.0,0.0,0.0,0.0,4.5203,4.8824,5.041,5.2548,5.4908,5.7426,5.9047,6.0323,6.122,6.1599,6.1806,6.1806,6.2514,6.3101,6.3411,6.422,6.4979,6.5635,6.6531,6.7172,6.7463,6.7876,6.8083,6.8083,6.8083,6.8083,6.8118,6.8448,6.8621,0.0,6.9414,6.9759,6.9834,7.0675,7.1046,0.0,0.0,0.0,0.0,0.0,7.5753,7.6812,7.6812,7.6261,7.5542,7.505,7.4368,7.3597,7.2995,7.2812,7.2628,7.1835,7.1945,7.2239,7.1894,7.2165,7.2496,7.2496,7.2496,7.2386,7.1894,7.1894,7.1564,7.0169,6.9743,0.0,6.8348,6.7554,6.6769,6.6109,6.6549,6.688,6.6549,6.7187,6.7517,6.704,6.699,6.699,6.699,6.5962,0.0,0.0,0.0,6.1153,6.0126,5.9648,0.0,0.0,0.0,0.0,0.0,0.0,0.0,0.0,5.3618,5.3287,0.0,0.0,0.0,0.0,0.0,0.0,0.0,0.0,0.0,0.0,0.0,0.0,0.0,0.0,0.0,0.0,5.0203,5.3961,5.7529,5.8254,5.8668,5.9323,6.0599,6.1461,6.1565,6.2186,6.2618,6.2618,6.3308,6.4014,6.4669,0.0,0.0,0.0,0.0,6.7428,6.8083,6.8083,6.8083,6.8083,6.8083,6.8152,6.8256,6.8966,6.9345,6.9483,7.0208,7.0518,7.0553,7.0622,7.0656,7.0764,7.209,7.2602,7.2834,7.4526,7.5543,7.6133,7.6209,0.0,0.0,7.505,7.4478,7.3927,7.4588,7.4757,7.4625,7.3891,7.3722,7.3575,7.2936,7.2716,7.2642,7.2642,7.2569,7.2496,7.2496,7.1931,7.1417,7.1307,7.0132,6.9142,6.9045,6.8274,6.7223,6.5778,6.6769,6.7444,6.6733,6.732,6.7811,6.77,0.0,0.0,6.7847,6.6366,6.5472,6.5545,6.3429,6.1153,5.8914,5.8914,5.8951,5.8951,6.0346,6.2218,6.4506,6.5301,6.6586,6.7994,5.8375,5.7409,0.0,0.0,0.0,0.0,0.0,0.0,0.0,0.0,0.0,0.0,0.0,0.0,0.0,0.0,0.0,4.8755,5.3046,5.6598,5.8599,6.0444,6.1652,6.1824,6.21,6.2496,6.3082,6.3289,6.3411,6.3411,6.4083,6.4565,6.4703,6.5876,6.6669,6.698,6.7566,6.7945,6.8083,6.8083,6.8083,6.8083,0.0,0.0,6.9069,6.9242,6.9621,7.0242,7.0967,7.1312,7.1325,7.2002,7.2243,7.2278,7.2575,7.266,7.2955,7.5184,7.6069,7.6267,7.6847,7.6518,7.5873,7.5873,7.5322,7.4588,7.4074,7.3927,0.0,7.3744,7.3722,7.3817,7.4316,7.3964,7.345,7.345,7.2973,7.2496,7.2496,7.2386,7.2078,7.1417,7.105,7.061,6.9963,6.8641,6.759,6.7297,6.7517,6.7627,6.748,6.8164,6.8421,6.7774,6.8274,6.8678,6.8678,6.7173,6.6549,6.7187,6.6182,6.5044,6.393,6.453,6.4861,6.4861,6.5154,6.5888,6.7003,6.7797,6.9376,7.1468,6.7504,6.6733,0.0,0.0,0.0,0.0,0.0,0.0,0.0,0.0,0.0,0.0,0.0,3.9641,4.3078,0.0,4.9513,5.3322,5.6184,5.8599,6.0548,6.179,6.2514,6.2514,6.2825,6.3204,6.3565,6.36,6.3738,6.4117,6.4496,6.5048,6.5807,6.6566,6.7172,6.7532,6.7911,6.8083,6.8083,6.8083,6.8083,6.8083,6.8083,6.8497,6.9311,6.969,7.0242,7.1001,7.1795,7.2105,7.214,7.2519,7.2692,7.2699,7.2684,7.3175,7.3998,7.5156,7.6082,7.6797,7.7165,7.6775,7.6093,7.6093,7.5579,7.483,7.4441,7.4294,7.4294,7.4294,7.4294,7.4404,7.4793,7.461,7.4294,7.4294,7.3707,7.3083,7.3083,7.2789,7.2386,7.1967,7.1564,7.116,7.077,6.9706,6.8912,6.8912,6.8912,6.8912,6.8912,6.9265,6.9339,6.8949,6.9265,6.9486,6.9486,6.8752,6.8458,6.8875,6.8531,6.7944,6.7123,6.7871,6.8311,6.8311,6.9082,7.011,7.1321,7.2129,7.356,7.5506,7.4331,7.3744,0.0,0.0,0.0,0.0,0.0,0.0,0.0,3.4352,3.6146,3.9836,4.1918,4.4458,4.8893,5.1065,5.3479,5.7478,5.8909,6.022,6.2238,6.2618,6.2721,6.2721,6.3239,6.36,6.36,6.36,6.391,6.4634,6.4841,6.5531,6.693,6.7137,6.7497,6.8083,6.8083,6.8083,6.8083,6.8083,6.8083,6.8083,6.8083,6.8621,6.9518,7.0139,7.0898,7.1795,7.2416,7.2692,7.2692,7.2692,7.2692,7.2692,7.2692,7.3552,7.4772,7.4772,7.5564,7.6648,7.6813,7.6423,7.5907,7.6083,7.5675,7.5141,7.513,7.5124,7.5124,7.5124,7.5124,7.516,7.5344,7.5234,7.5124,7.5124,7.4515,7.3927,7.3927,7.3303,7.2716,7.2716,7.2078,7.1527,7.1527,7.0991,7.044,7.0146,7.011,7.011,7.011,7.022,7.033,7.033,7.0477,7.0513,7.033,7.0477,7.0513,7.033,7.0477,7.0293,6.9633,7.022,7.0697,7.1027,7.2459,7.4001,7.5601,7.6423,7.7524,7.8846,7.914,7.8919,3.4914,3.2844,3.2352,3.4111,3.4638,3.6284,0.0,4.3388,4.3919,4.7031,4.941,5.1341,5.2617,5.4667,5.6771,5.8582,6.0116,6.1392,6.2376,6.3048,6.348,6.348,6.3531,6.36,6.36,6.36,6.391,6.4634,6.5359,6.6137,6.6945,6.7601,6.8014,6.8083,6.8083,6.8083,6.8083,6.8083,6.8083,6.8083,6.8083,6.8842,7.0277,7.038,7.1208,7.2588,7.2657,7.2692,7.2692,7.2692,7.2692,7.2692,7.2692,7.3223,7.3936,7.3936,7.4053,7.4286,7.5029,7.5192,7.5227,7.5957,7.6138,7.6036,7.5983,7.5983,7.5983,7.5983,7.5983,7.613,7.6848,7.6481,7.5983,7.5983,7.5359,7.4757,7.4757,7.4147,7.356,7.356,7.2936,7.2386,7.2386,7.2275,7.1762,7.033,7.011,7.011,7.011,7.0734,7.116,7.116,7.1821,7.1945,7.1233,7.1835,7.1945,7.1197,7.1821,7.2202,7.2092,7.2165,7.2899,7.4353,7.5249,7.6533,7.8185,7.9008,7.9486,7.9706,8.1138,8.1746,3.933,3.8226,3.795,3.8916,4.0146,4.2135,4.5893,4.6824,4.7907,5.141,5.2892,5.403,5.5701,5.715,5.8599,6.0082,6.1254,6.2255,6.3032,6.3411,6.3427,6.3032,6.2963,6.3135,6.3565,6.36,6.4101,6.5309,6.5723,6.6413,6.7566,6.7911,6.8083,6.8083,6.8083,6.8083,6.8083,6.8083,6.8083,6.8083,6.8083,6.8911,7.0415,7.0415,7.1243,7.2692,7.2692,7.2692,7.2692,7.2692,7.2692,7.2692,7.2692,7.2887,7.3189,7.3657,7.4111,7.4567,7.4901,7.5299,7.5757,7.6102,7.6469,7.682,7.6808,7.6812,7.6812,7.6812,7.6812,7.6885,7.7215,7.7069,7.6812,7.6812,7.6188,7.5616,7.5616,7.4588,7.3722,7.3722,7.3046,7.2496,7.2496,7.2496,7.2275,7.1615,7.1505,7.1505,7.1505,7.1798,7.2004,7.2004,7.2312,7.2349,7.2041,7.2753,7.3266,7.3399,7.4147,7.4808,7.527,7.5799,7.6387,7.7047,7.7818,7.8809,7.9984,8.0314,8.0975,8.1929,8.259,8.3398,4.1573,4.1849,4.2435,4.2849,4.4962,4.7376,4.8927,4.9996,5.1582,5.4789,5.5444,5.5996,5.7874,5.8616,5.9478,6.1047,6.1772,6.2496,6.3462,6.3427,6.3013,6.2273,6.1979,6.21,6.2599,6.3066,6.4032,6.5757,6.5895,6.6551,6.8014,6.8083,6.8083,6.8083,6.8083,6.8083,6.8083,6.8083,6.8083,6.8083,6.8325,6.9118,7.0415,7.0829,7.1657,7.2692,7.2692,7.2692,7.2692,7.2692,7.2692,7.2692,7.2692,7.2692,7.2776,7.329,7.3874,7.4359,7.4359,7.4735,7.5281,7.5459,7.5912,7.6366,7.6599,7.6664,7.6696,7.6925,7.7009,7.7056,7.7243,7.7289,7.7289,7.7289,7.6848,7.6423,7.6423,7.5322,7.4368,7.4368,7.3707,7.3156,7.3156,7.3156,7.3156,7.3156,7.3156,7.301,7.2569,7.2496,7.2496,7.2496,7.2716,7.2826,7.2826,7.356,7.4294,7.4867,7.5469,7.6041,7.6628,7.7215,7.7892,7.8589,7.9192,8.0167,8.1656,8.1656,8.2353,8.3748,8.3968,8.4682,3.9974,4.1435,4.3517,4.4928,4.8134,5.1341,5.2873,5.4341,5.5858,5.746,5.7805,5.8047,5.8823,5.8961,5.9478,6.1047,6.1323,6.1875,6.3393,6.2997,6.2238,6.1427,6.0703,6.0289,0.0,6.1652,6.348,6.5723,6.5895,6.6551,6.8014,6.8083,6.8083,6.8083,6.8083,6.8083,6.8083,6.8083,6.8083,6.8118,6.8897,6.9656,7.0449,7.1967,7.2657,7.2692,7.2692,7.2692,7.2692,7.2692,7.2692,7.2692,7.2692,7.2692,7.2692,7.2734,7.2755,7.2776,7.2776,7.2797,7.2929,7.3657,7.3897,7.4053,7.481,7.5083,7.5227,7.5998,7.6236,7.6386,7.7118,7.7289,7.7289,7.7289,7.7289,7.7252,7.7252,7.6592,7.6019,7.6019,7.538,7.483,7.483,7.483,7.483,7.483,7.483,7.4243,7.2716,7.2496,7.2496,7.2496,7.3193,7.367,7.367,7.4404,7.4867,7.4903,7.4903,7.494,7.4977,7.5014,7.6151,7.8552,7.8626,8.0167,8.3344,8.3344,8.3748,8.4572,8.5343,8.5764,4.2401,4.4423,4.6665,4.8686,5.0927,5.2996,5.4513,5.5237,5.5892,5.6943,5.6771,5.6306,5.6065,5.684,5.7702,5.8219,5.9978,6.1496,6.2013,6.2737,6.2411,6.0116,6.0496,0.0,0.0,0.0,0.0,6.4239,6.5309,6.6344,6.7344,6.7807,6.8083,6.8083,6.8083,6.8083,6.8083,6.8083,6.8083,6.8118,6.9414,7.0415,7.1153,7.2209,7.2692,7.2692,7.2692,7.2692,7.2692,7.2692,7.2692,7.2692,7.2692,7.2692,7.2692,7.2692,7.2692,7.2692,7.2692,7.2998,7.3457,7.3701,7.4168,7.466,7.4919,7.501,7.5174,7.5963,7.6203,7.6353,7.7118,7.6925,7.67,7.7181,7.6909,7.6717,7.7196,7.6665,7.6093,7.6093,7.5469,7.4903,7.4903,7.4903,7.4903,7.4903,7.4903,7.4683,7.4169,7.4096,7.4096,7.4096,7.4316,7.4515,7.4515,7.472,7.5124,7.5652,7.5689,7.5931,7.6481,7.7561,7.8772,8.0167,8.1232,8.259,8.4205,8.3638,8.3821,8.4609,8.4866,8.5563,4.4816,4.6975,4.9065,5.1341,5.3287,5.4805,5.5444,5.603,5.6409,5.6391,5.5563,5.4582,5.3823,5.4272,5.5115,5.6219,5.8461,6.0461,6.1565,6.2324,6.1944,5.9737,6.0082,6.0116,5.915,0.0,0.0,6.3462,6.5033,6.624,6.6945,6.7704,6.8083,6.8083,6.8083,6.8083,6.8083,6.8083,6.8359,6.8911,6.9932,7.0932,7.1967,7.245,7.2692,7.2692,7.2692,7.2692,7.2692,7.2692,7.2692,7.2692,7.2692,7.2692,7.2692,7.2692,7.2692,7.2692,7.2692,7.3032,7.3412,7.3412,7.3756,7.4184,7.4184,7.4184,7.4321,7.5119,7.5335,7.5512,7.6267,7.6353,7.632,7.6797,7.6749,7.6733,7.7196,7.6885,7.6518,7.6518,7.6114,7.5747,7.5747,7.5747,7.5747,7.5747,7.5747,7.5564,7.4977,7.4903,7.4903,7.4903,7.516,7.5322,7.5322,7.5601,7.5968,7.6481,7.6827,7.7231,7.7729,7.9066,8.0167,8.0975,8.2023,8.3087,8.4168,8.3931,8.4242,8.5049,8.5637,8.6297,4.7031,4.9031,5.0769,5.2977,5.515,5.6529,5.5754,5.6651,5.7237,5.5685,5.4168,5.2858,5.1996,5.1375,5.1961,5.4892,5.6823,5.8978,6.1962,6.1772,6.1082,6.0289,5.9564,5.915,5.915,5.984,0.0,6.3358,0.0,6.6171,6.6876,6.7669,6.8083,6.8083,6.8083,6.8083,6.8083,6.8083,6.8877,7.0415,7.0415,7.1208,7.2692,7.2692,7.2692,7.2692,7.2692,7.2692,7.2692,7.2692,7.2692,7.2692,7.2692,7.2692,7.2692,7.2692,7.2692,7.2692,7.2692,7.2692,7.2692,7.2692,7.2692,7.2692,7.2692,7.2692,7.2846,7.3597,7.3799,7.3994,7.4846,7.5583,7.6102,7.6186,7.6717,7.7196,7.7227,7.7258,7.7289,7.7289,7.7289,7.7289,7.7289,7.7289,7.7289,7.7289,7.7289,7.6738,7.5234,7.5014,7.5014,7.5014,7.5726,7.6166,7.6166,7.6885,7.7362,7.7362,7.8185,7.8662,7.8662,7.9449,8.0257,8.1048,8.1122,8.1913,8.3528,8.4242,8.5013,8.5894,8.7399,8.7729,4.941,5.1755,5.3616,5.4754,5.5478,5.5858,5.5651,5.503,5.4115,5.2582,5.0582,4.8755,4.7362,4.8361,5.0031,5.1927,5.5892,5.9219,6.0599,6.1617,6.1703,6.0358,6.0496,6.0496,5.9978,6.1134,6.2169,0.0,6.4152,6.5359,6.6137,6.7394,6.8083,6.8083,6.8083,6.8083,6.8083,6.8083,6.8877,7.0415,7.0415,7.1208,7.2692,7.2692,7.2692,7.2692,7.2692,7.2692,7.2692,7.2692,7.2692,7.2692,7.2692,7.2692,7.2692,7.2692,7.2692,7.2692,7.2692,7.2692,7.2692,7.2692,7.2692,7.2692,7.2692,7.2692,7.2846,7.3597,7.3799,7.413,7.5512,7.5155,7.4735,7.5895,7.5895,7.5738,7.6353,7.6893,7.7289,7.7289,7.7289,7.7289,7.7289,7.7289,7.7289,7.7289,7.7289,7.7142,7.6738,7.6702,7.6702,7.6702,7.6885,7.6995,7.6995,7.7781,7.8259,7.8259,7.9029,7.9486,7.9486,8.0277,8.1085,8.1893,8.248,8.3581,8.5196,8.4792,8.5343,8.6701,8.6481,8.6921,5.2272,5.3996,5.5168,5.5943,5.615,5.5754,5.441,5.3479,5.1977,4.8769,4.6837,4.5147,4.3238,4.5031,4.7562,4.972,5.4272,5.8237,6.0392,6.1427,6.1772,6.1254,6.1565,6.1668,6.1254,6.1979,6.2652,6.2963,6.4358,6.5412,6.5895,6.731,6.8083,6.8083,6.8083,6.8083,6.8083,6.8083,6.8704,6.9932,7.0242,7.1036,7.2209,7.2554,7.2692,7.2692,0.0,7.2692,7.2692,7.2692,7.2692,7.2692,7.2692,7.2692,7.2692,7.2692,7.2692,7.2761,7.3071,7.3175,7.314,7.2795,7.2692,7.2761,7.3071,7.3175,7.3349,7.4087,7.4301,7.4491,7.5385,7.5211,7.5035,7.5953,7.6356,7.6571,7.6678,7.7285,7.7819,7.7819,7.8149,7.8405,7.8405,7.8405,7.8405,7.8405,7.8405,7.8405,7.8405,7.7766,7.7436,7.7839,7.7876,7.7986,7.8369,7.8846,7.914,7.914,7.9874,8.0314,8.0314,8.1085,8.1929,8.27,8.3161,8.4005,8.527,8.5527,8.6114,8.7014,8.7252,8.7876,5.4823,5.5685,5.5961,5.6736,5.6805,5.5908,5.2996,5.1892,5.0031,4.5023,4.3172,4.1861,3.9917,4.1987,4.5092,4.841,5.2686,5.6892,6.0634,6.1254,6.1599,6.2411,6.2514,6.2549,6.2652,6.2652,6.2928,6.3531,6.5033,6.5895,6.5895,6.731,6.8083,6.8083,6.8083,6.8083,6.8083,6.8083,6.8497,6.9311,7.007,7.0794,7.1532,7.2347,7.2692,7.2692,7.2692,0.0,7.2692,7.2692,7.2692,7.2692,7.2692,7.2692,7.2726,7.2795,7.2864,7.2968,7.3692,7.3968,7.3843,7.3209,7.3002,7.3106,7.374,7.3968,7.4085,7.4718,7.4925,7.4912,7.5042,7.5485,7.5968,7.6056,7.716,7.8009,7.729,7.7865,7.8486,7.8486,7.9102,7.9668,7.9764,7.97,7.9668,7.9764,7.9816,7.9816,7.9816,7.8516,7.7913,7.8662,7.8772,7.9029,7.9743,7.989,7.9963,7.9963,8.0718,8.1232,8.1289,8.2003,8.2737,8.3528,8.3564,8.3968,8.4756,8.6151,8.7014,8.7344,8.8629,8.94,5.5134,5.6081,5.6771,5.7529,5.6754,5.534,5.3598,5.0287,4.6583,4.3125,4.0308,3.8537,3.8744,4.0779,4.4022,4.901,5.3065,5.672,5.9944,6.0909,6.1599,6.2411,6.2514,6.2756,6.3342,6.3393,6.348,0.0,6.5033,6.5895,6.5895,6.731,6.8083,6.8083,6.8083,6.8083,6.8083,6.8083,6.8497,6.9311,7.007,7.0794,7.1532,7.2347,7.2692,7.2692,7.2692,0.0,7.2692,7.2692,7.2692,7.2692,7.2692,7.2692,7.2761,7.3382,7.3623,7.3727,7.4442,7.4718,7.4684,7.4546,7.4511,7.4546,7.4684,7.4718,7.4753,7.4856,7.4925,7.5064,7.5735,7.5485,7.5286,7.5948,7.6318,7.6497,7.6338,7.7461,7.8486,7.8486,7.8643,7.8968,7.9684,7.9205,7.8968,7.9684,7.9816,7.9816,7.9816,7.9559,7.9412,7.9596,7.9596,7.9669,7.9779,8.0388,8.0791,8.0791,8.1562,8.2296,8.2941,8.3124,8.3581,8.4389,8.4389,8.4792,8.56,8.5857,8.7031,8.8959,8.861,8.9491,5.6271,5.6805,5.7081,5.8185,5.703,5.4789,5.172,4.8114,4.4091,3.9434,3.7295,3.6156,3.5742,3.8468,4.2056,4.5851,4.9286,5.3099,5.7771,5.8737,5.984,6.2238,6.2859,6.3186,6.3565,6.36,6.3772,6.4152,6.524,6.5895,6.5895,6.731,6.8083,6.8083,6.8083,6.8083,6.8083,6.8083,6.8497,6.9311,7.007,7.0794,7.1532,7.2347,7.2692,7.2692,7.2692,0.0,7.2692,7.2692,7.2692,7.2692,7.2692,7.2692,7.2795,7.352,7.3796,7.3968,7.5098,7.5511,7.558,7.596,7.5546,7.4994,7.5408,7.5511,7.5615,7.5994,7.6097,7.6208,7.6573,7.6392,7.6208,7.6573,7.6681,7.6809,7.7256,7.7972,7.8502,7.8502,7.8844,7.9378,8.0223,8.0015,8.0032,8.0915,8.1064,8.1064,8.1064,8.1064,8.0881,8.0461,8.0424,8.0571,8.1028,8.1415,8.1819,8.2207,8.2627,8.3177,8.3968,8.4005,8.4389,8.5196,8.5233,8.5637,8.6444,8.7288,8.8262,8.94,8.9436,9.0298,5.6823,5.7116,5.7116,5.8461,5.6927,5.403,4.9789,4.5941,4.178,3.6329,3.4811,3.419,3.3317,3.6215,3.971,4.2689,4.5458,4.9341,5.546,5.6598,5.815,6.1824,6.291,6.3427,6.3565,6.36,6.3841,6.4427,6.5378,6.6033,6.6344,6.7463,6.8083,6.8083,6.8083,6.8083,6.8083,6.8083,6.8497,6.9311,7.007,7.0794,7.1532,7.2347,7.2692,7.2692,7.2692,0.0,0.0,7.2692,7.2692,7.2692,7.2692,7.2795,7.3037,7.374,7.4119,7.4499,7.5878,7.6339,7.6408,7.6994,7.6373,7.5511,7.6132,7.6339,7.6442,7.7028,7.7201,7.7201,7.7201,7.7201,7.7201,7.7201,7.7201,7.7367,7.8074,7.8357,7.8504,7.8504,7.9024,7.9721,8.0495,8.0477,8.0732,8.1765,8.1935,8.2058,8.2427,8.2443,8.2296,8.1819,8.1452,8.1599,8.237,8.2443,8.281,8.3601,8.3638,8.4005,8.4829,8.4866,8.5233,8.604,8.6224,8.6628,8.7234,8.8702,8.9473,8.9657,9.0317,9.1143,5.5375,5.6322,5.6978,5.7805,5.577,5.277,4.9548,4.432,3.9192,3.588,3.3559,3.249,3.3741,3.488,3.726,4.2297,4.4514,4.7755,5.3858,5.5908,5.7943,6.1047,6.2117,6.2859,6.3549,6.36,6.3634,6.3703,6.5067,6.6482,6.7807,6.8014,6.8083,6.8083,6.8083,6.8083,6.8083,6.8083,6.8497,6.9311,7.007,7.0794,7.1532,7.2347,7.2692,7.2692,7.2692,0.0,0.0,7.2692,7.2692,7.2692,7.2692,7.3106,7.3796,7.4511,7.527,7.5994,7.6822,7.7097,7.7097,7.7166,7.7097,7.6994,7.7063,7.7097,7.7097,7.7166,7.7201,7.7201,7.7201,7.7201,7.7201,7.7201,7.7201,7.7223,7.7313,7.7945,7.8504,7.8504,7.8566,7.8861,7.9682,7.919,7.923,8.0786,8.1018,8.159,8.3078,8.3271,8.3528,8.4205,8.2957,8.2406,8.3234,8.3271,8.3638,8.4462,8.4499,8.4866,8.5654,8.569,8.6077,8.6867,8.7619,8.8023,8.8096,8.8959,8.9767,9.0482,9.0592,9.1473,5.5065,5.6513,5.7426,5.7288,5.5288,5.2237,4.7775,4.31,3.8594,3.4628,3.2731,3.1972,3.2603,3.3317,3.5111,3.9089,4.025,4.2768,4.8907,5.103,5.3616,5.8047,6.0082,6.1772,6.3427,6.36,6.3979,6.4929,6.5964,6.7014,6.8049,6.8083,6.8083,6.8083,6.8083,6.8083,6.8083,6.8083,6.8497,6.9311,7.007,7.0794,7.1532,7.2347,7.2692,7.2692,7.2692,0.0,0.0,7.2692,7.2692,7.2692,7.2692,7.314,7.3899,7.4615,7.5408,7.6201,7.6925,7.7201,7.7201,7.7201,7.7201,7.7201,7.7201,7.7201,7.7201,7.7201,7.7201,7.7201,7.7201,7.7201,7.7201,7.7201,7.7201,7.7201,7.7201,7.7478,7.7741,7.7741,7.8123,7.8685,7.949,7.9732,8.0388,8.2067,8.2342,8.2775,8.3958,8.4132,8.4242,8.4572,8.4022,8.3765,8.4095,8.4132,8.4462,8.527,8.5306,8.5673,8.6481,8.6518,8.6921,8.7729,8.8059,8.8426,8.8923,8.973,9.028,9.0629,9.1106,9.195,5.3996,5.586,5.7049,5.6547,5.4343,5.1089,4.6466,4.21,3.787,3.3766,3.2317,3.18,3.18,3.2386,3.3766,0.0,3.7409,3.9813,4.5445,4.7548,5.0292,5.5154,5.7565,5.9719,6.1959,6.303,6.4239,6.5792,6.6378,6.7083,6.8049,6.8083,6.8083,6.8083,6.8083,6.8083,6.8083,6.8083,6.8497,6.9311,7.007,7.0794,7.1532,7.2347,7.2692,7.2692,7.2692,0.0,0.0,7.2692,7.2692,7.2692,7.2692,7.314,7.3899,7.4615,7.5408,7.6201,7.6925,7.7201,7.7201,7.7201,7.7201,7.7201,7.7201,7.7201,7.7201,7.7201,7.7201,7.7201,7.7201,7.7201,7.7201,7.7201,7.7201,7.7201,7.7201,7.7373,7.7546,7.7546,7.8189,7.8911,7.9474,7.998,8.0922,8.2665,8.2912,8.3428,8.4784,8.4939,8.5049,8.527,8.5306,8.5233,8.4976,8.4939,8.5306,8.6114,8.6151,8.6518,8.7308,8.7344,8.7729,8.8536,8.8793,8.9197,8.9767,9.0537,9.0959,9.0959,9.1803,9.2758,5.1617,5.3801,5.5474,5.5568,5.2647,4.8982,4.606,4.1307,3.6639,3.3524,3.2317,3.18,3.18,3.2386,3.3421,3.4983,3.7122,4.0181,4.4777,4.6755,4.9091,5.281,5.4675,5.6498,5.8634,6.1716,6.4239,6.5792,6.5895,0.0,6.8014,6.8083,6.8083,6.8083,6.8083,6.8083,6.8083,6.8083,6.8497,6.9311,7.007,7.0794,7.1532,7.2347,7.2692,0.0,0.0,0.0,0.0,7.2692,7.2692,7.2692,7.2692,7.314,7.3899,7.4615,7.5408,7.6201,7.6925,7.7201,7.7201,7.7201,7.7201,7.7201,7.7201,7.7201,7.7201,7.7201,7.7201,7.7201,7.7201,7.7201,7.7201,7.7201,7.7201,7.7201,7.7201,7.7844,7.8396,7.8396,7.8982,7.95,7.95,7.95,8.0089,8.1764,8.2025,8.2917,8.5465,8.5783,8.6077,8.6867,8.6978,8.6664,8.5874,8.5783,8.6114,8.6958,8.6978,8.7344,8.8133,8.8206,8.8573,8.9363,9.017,9.0592,9.0592,9.14,9.1803,9.1803,9.2684,9.3932,4.7755,4.9608,5.0509,4.9016,4.7679,4.5723,4.1686,3.9089,3.6467,3.2904,3.1972,3.18,3.18,3.1972,3.3327,3.695,3.8123,0.0,4.4091,4.6824,4.9465,5.2176,5.7117,6.0788,6.1959,0.0,6.4014,6.5014,6.5585,6.6309,6.731,6.7807,6.8083,6.8083,6.8083,6.8083,6.8083,6.8083,6.8221,6.8483,6.9276,7.0035,7.0794,7.1532,7.2174,0.0,0.0,0.0,0.0,7.2692,7.2692,7.2692,7.2692,7.3464,7.458,7.4822,7.5718,7.6891,7.7132,7.7201,7.7201,7.7201,7.7201,7.7201,7.7201,7.7201,7.7201,7.7201,7.7201,7.7201,7.7201,7.7201,7.7201,7.7201,7.7615,7.8017,7.8017,7.8637,7.9155,7.9155,7.9776,8.0235,8.0235,8.0707,8.1459,8.2592,8.2729,8.3451,8.5462,8.5719,8.6064,8.6889,8.6978,8.6904,8.6628,8.6628,8.6958,8.7766,8.7839,8.8169,8.8996,8.9033,8.94,9.0207,9.0464,9.0886,9.1436,9.1693,9.2097,9.2721,9.4116,9.5015,4.394,4.6129,4.7121,4.5728,4.4703,4.3094,3.9411,3.7571,3.5708,3.2465,3.18,3.18,3.18,3.2041,3.3145,3.5984,3.7433,3.9227,4.2159,4.5699,4.9341,5.303,5.7755,6.1235,0.0,6.3255,6.391,6.4634,6.5447,0.0,6.6945,6.7704,6.8083,6.8083,6.8083,6.8083,6.8083,6.8083,6.8083,6.8118,6.8931,6.969,7.0449,7.1153,7.1933,0.0,0.0,0.0,0.0,7.2692,7.2692,7.2692,7.2692,7.3429,7.4511,7.4787,7.5718,7.6822,7.7097,7.7201,7.7201,7.7201,7.7201,7.7201,7.7201,7.7201,7.7201,7.7201,7.7201,7.7201,7.7201,7.7408,7.7649,7.7649,7.8258,7.8844,7.8844,7.9396,7.9925,7.9925,8.0511,8.1028,8.1028,8.1466,8.2094,8.297,8.3375,8.4106,8.554,8.599,8.6392,8.6943,8.7288,8.7472,8.7472,8.7472,8.7655,8.8169,8.85,8.8996,8.9803,8.984,9.0207,9.1033,9.1069,9.1473,9.2281,9.2611,9.3161,9.4042,9.5015,9.5639,0.0,4.2806,4.4516,4.4578,4.2953,4.0795,3.8664,3.6605,0.0,3.2258,3.18,3.1834,3.1947,3.2421,3.2938,3.3317,3.5777,3.8226,3.9802,4.4113,4.9272,5.5187,5.7155,5.8927,6.1219,6.2772,6.3876,6.4565,6.5359,0.0,6.6792,6.7566,6.8014,6.8014,6.8083,6.8083,6.8083,6.8083,6.8083,6.8118,6.8862,6.9621,7.0346,7.1105,7.1864,0.0,0.0,0.0,0.0,7.2692,7.2692,7.2692,7.2692,7.3175,7.3947,7.4649,7.5442,7.627,7.6959,7.7201,7.7201,7.7201,7.7201,7.7201,7.7201,7.7201,7.7201,7.7201,7.7235,7.727,7.727,7.7856,7.8499,7.8499,7.9051,7.9603,7.9603,8.0166,8.0683,8.0683,8.1293,8.181,8.181,8.181,8.2048,8.2881,8.3698,8.4554,8.5461,8.6356,8.6931,8.6967,8.7769,8.8262,8.8209,8.8244,8.8316,8.8353,8.9069,8.984,9.0665,9.0702,9.1033,9.1803,9.184,9.2317,9.3198,9.3969,9.4777,9.5492,9.5565,9.5988,3.3017,0.0,3.7413,3.6894,3.6745,3.631,0.0,3.4293,3.3879,3.2145,3.18,3.2145,3.3327,3.2741,3.3386,3.7422,3.8698,4.0124,4.2849,4.8148,5.3585,5.8342,6.0356,6.1751,6.2758,6.3301,6.3669,6.3841,6.4565,6.5048,6.5221,6.6531,6.7256,6.7256,6.7807,6.8083,6.8083,6.8083,6.8083,6.8083,6.829,6.8793,6.9587,7.0311,7.107,0.0,0.0,0.0,7.2692,7.2692,7.2692,7.2692,7.2692,7.3498,7.4649,7.4856,7.5787,7.6959,7.7132,7.7201,7.7201,7.7201,7.7201,7.7201,7.7201,7.7201,7.7201,7.7201,7.7649,7.812,7.812,7.8706,7.9258,7.9258,7.9787,8.0339,8.0339,8.0959,8.1535,8.1535,8.1672,8.181,8.181,8.181,8.1847,8.2048,8.228,8.2923,8.4369,8.537,8.6149,8.67,8.8194,8.8819,8.8099,8.8728,8.9363,9.0005,9.0225,9.0702,9.1473,9.151,9.162,9.1803,9.2464,9.3198,9.4006,9.485,9.5327,9.5492,9.6135,9.6539,3.0153,3.2637,3.5121,3.4707,3.5156,3.5397,3.4214,3.3731,3.311,3.1602,3.1558,3.2051,3.2879,3.2948,3.3914,3.7111,3.8801,4.1492,4.67,5.1074,5.5468,6.0011,6.1628,6.266,0.0,6.3544,6.36,6.36,0.0,6.4703,6.4703,6.5842,6.6654,6.6999,6.7394,6.7738,6.8083,6.8083,6.8083,6.8083,6.8083,6.8497,6.9311,6.9725,7.0484,0.0,0.0,0.0,7.2692,7.2692,7.2692,7.2692,7.2692,7.3395,7.4464,7.4787,7.5649,7.6753,7.7097,7.7201,7.7201,7.7201,7.7201,7.7201,7.7201,7.7442,7.7753,7.7753,7.8085,7.8499,7.8844,7.9465,7.9994,7.9994,8.058,8.1132,8.1132,8.15,8.181,8.181,8.181,8.181,8.181,8.181,8.1914,8.2259,8.2661,8.3334,8.4558,8.5535,8.6266,8.6652,8.8271,8.9159,8.8626,8.9769,9.0537,9.0592,9.0959,9.1363,9.1767,9.1803,9.1987,9.2391,9.3602,9.441,9.485,9.5658,9.6061,9.6061,9.6502,9.6906,2.9592,3.2283,3.4949,3.4604,3.5249,3.5732,3.488,3.3662,3.2386,3.1119,3.1464,3.2076,3.2421,3.3569,3.488,3.6191,3.8939,4.341,5.0587,5.3338,5.6246,6.063,6.1917,0.0,6.3438,6.3563,6.36,6.36,0.0,6.4531,6.4531,6.5309,6.5999,6.6635,6.6876,6.731,6.7911,6.8049,6.8083,6.8083,6.8083,6.8463,6.9138,6.9242,7.0001,7.1174,0.0,0.0,7.2519,7.2657,7.2692,7.2692,7.2692,7.314,7.3899,7.4615,7.5408,7.6201,7.6925,7.7201,7.7201,7.7201,7.7201,7.7201,7.7201,7.7753,7.843,7.8534,7.8672,7.8879,7.9534,8.0201,8.0787,8.0787,8.1293,8.181,8.181,8.181,8.181,8.181,8.181,8.1845,8.1948,8.1983,8.2224,8.2983,8.3694,8.4434,8.5204,8.6086,8.6724,8.6831,8.8439,8.9495,8.9495,9.092,9.151,9.0849,9.1436,9.184,9.1987,9.1987,9.2464,9.3455,9.4794,9.5565,9.5675,9.6392,9.6685,9.6685,9.6832,9.7236,2.9981,3.2361,3.381,3.1878,3.2913,3.4086,3.2662,3.2145,3.1903,3.1671,3.2214,3.3317,3.5249,3.5801,3.7295,4.1309,4.4492,4.8181,5.3035,5.5262,5.7414,6.0225,0.0,6.3295,6.3098,6.3414,6.36,0.0,0.0,6.3772,6.3772,6.4462,6.4945,6.5048,6.6324,6.7049,6.7172,6.7773,6.8083,6.8083,6.8083,6.8152,6.829,6.9,6.9414,6.9725,0.0,7.1567,7.1739,7.2416,7.2692,7.2692,7.2692,7.314,7.3899,7.4615,7.5408,7.6201,7.6925,7.7201,7.7201,7.7201,7.7201,7.7201,7.7201,7.7753,7.8534,7.9155,7.9752,8.027,8.0407,8.0994,8.1638,8.1638,8.1707,8.181,8.181,8.181,8.181,8.181,8.181,8.2017,8.2638,8.2742,8.2983,8.3718,8.3967,8.4305,8.5101,8.6044,8.6856,8.7489,8.9219,9.0311,9.0311,9.1249,9.173,9.162,9.173,9.2134,9.2868,9.2905,9.3602,9.5088,9.5345,9.5841,9.6539,9.6649,9.6685,9.6722,9.7383,9.7787,2.8704,3.0809,3.2706,3.2051,3.4224,3.6225,3.5121,3.4535,3.4111,3.3731,3.4214,3.5076,3.6111,3.7974,4.0883,4.5492,4.81,5.0656,5.392,5.6347,5.8548,0.0,0.0,6.3321,6.3038,6.3377,6.3563,0.0,0.0,0.0,6.36,6.391,6.4289,6.4703,6.5393,6.6152,6.698,6.7344,6.7704,6.8083,6.8083,6.8083,6.8118,6.8463,6.8897,6.9345,0.0,7.1118,7.1567,7.2381,7.2692,7.2692,7.2692,7.2899,7.3347,7.4499,7.5649,7.6753,7.7097,7.7201,7.7201,7.7201,7.7201,7.727,7.7718,7.8373,7.9155,7.989,8.0339,8.0683,8.1155,8.1535,8.181,8.181,8.181,8.181,8.181,8.181,8.1914,8.2328,8.2397,8.2638,8.3362,8.35,8.3776,8.4535,8.4639,8.4949,8.5708,8.6161,8.6773,8.7597,8.8932,8.993,9.0453,9.1285,9.1987,9.2464,9.2501,9.2868,9.3712,9.4189,9.4721,9.5492,9.5951,9.6318,9.6685,9.6685,9.6906,9.7346,9.7733,9.8393,2.8627,3.0188,3.2007,3.2938,3.5387,3.764,3.795,3.7122,3.6353,3.6501,3.6973,3.7422,3.7594,4.0905,4.4837,4.872,5.0927,5.2877,5.4948,5.731,5.932,6.0686,6.2167,6.304,6.2928,6.334,0.0,0.0,0.0,0.0,6.36,6.36,6.3841,6.4427,6.46,6.5255,6.6428,6.6807,6.7359,6.8083,6.8083,6.8083,6.8083,6.8083,6.8428,6.9069,7.0001,7.0725,7.1325,7.2312,7.2692,7.2692,7.2692,7.2899,7.3326,7.4464,7.5878,7.7201,7.7201,7.7201,7.7201,7.7201,7.7339,7.758,7.8223,7.9051,7.9879,8.0442,8.0718,8.0994,8.1638,8.181,8.181,8.181,8.181,8.181,8.181,8.1948,8.2224,8.2811,8.3052,8.3397,8.4156,8.4294,8.457,8.5328,8.5466,8.5673,8.6225,8.6294,8.6657,8.7585,8.8333,8.9307,9.0666,9.176,9.2758,9.3602,9.3492,9.3749,9.4556,9.518,9.5565,9.5804,9.6392,9.6685,9.6685,9.6685,9.7126,9.7916,9.808,9.8924,3.1938,3.2145,3.2145,3.3638,3.4224,3.5328,3.8778,3.787,3.7111,3.9917,4.0538,4.0791,4.1469,4.5285,4.8893,5.0651,5.3375,5.5758,5.7191,0.0,5.9425,6.0338,6.1702,6.2602,6.2702,0.0,0.0,0.0,0.0,0.0,6.36,6.36,6.36,6.3669,6.4324,6.4738,6.4876,6.629,6.7359,6.8083,6.8083,6.8083,6.8083,6.8083,6.8118,6.8256,6.9759,7.0449,7.0587,7.2105,7.2692,7.2692,7.2692,7.3533,7.4753,7.4856,7.5891,7.7201,7.7201,7.7201,7.7201,7.7201,7.7684,7.8327,7.8396,7.9396,8.0511,8.058,8.1155,8.1741,8.1776,8.181,8.181,8.181,8.181,8.181,8.181,8.2328,8.2845,8.288,8.3466,8.419,8.4984,8.5121,8.5363,8.6122,8.6225,8.626,8.6294,8.6294,8.6657,8.7585,8.7749,8.8818,9.1401,9.3148,9.4483,9.5272,9.463,9.4556,9.5382,9.5455,9.5859,9.6612,9.6685,9.6685,9.6685,9.6685,9.7126,9.7897,9.8668,9.9475,3.0696,3.1282,3.2292,3.4293,3.5501,3.695,3.9813,4.0503,4.1435,4.4492,4.4768,4.4803,4.601,4.7651,4.9617,5.2114,5.4701,5.6669,5.7636,5.8944,5.9803,5.9886,6.1432,6.2325,6.1864,0.0,0.0,0.0,0.0,0.0,6.3414,6.3414,6.347,6.36,6.3745,6.4124,6.4703,6.529,6.6186,6.7428,6.7876,6.8083,6.8083,6.8083,6.8083,6.8152,6.9242,7.0001,7.0484,7.1519,7.2243,7.2692,7.2692,7.3602,7.4925,7.4925,7.5891,7.7201,7.7201,7.7201,7.7201,7.7201,7.7718,7.8499,7.8948,7.9787,8.0683,8.1224,8.1569,8.181,8.181,8.181,8.181,8.181,8.181,8.1948,8.2397,8.2707,8.319,8.4156,8.457,8.4984,8.5742,8.588,8.5984,8.626,8.6294,8.6294,8.6294,8.6294,8.6657,8.7585,8.9183,9.0765,9.2259,9.4005,9.518,9.5455,9.5217,9.5401,9.6208,9.6245,9.6392,9.6685,9.6685,9.6685,9.6685,9.7199,9.786,9.8668,9.9475,10.0283,3.0524,3.1007,3.2283,3.4328,3.6191,3.8341,4.1573,4.316,4.4885,4.841,4.8341,4.7893,4.8651,4.9203,5.0375,5.2977,5.5322,5.715,5.8116,5.915,5.9787,5.9691,6.092,6.157,6.1064,0.0,0.0,0.0,0.0,0.0,0.0,6.3283,6.3377,6.36,6.3396,6.3636,6.4358,6.4565,6.5221,6.629,6.729,6.7876,6.8083,6.8083,6.8083,6.8152,6.8966,6.9725,7.0449,7.1208,7.1829,7.2347,7.2588,7.3464,7.458,7.4822,7.5891,7.7201,7.7201,7.7201,7.7201,7.7201,7.789,7.8844,7.9339,8.0166,8.1097,8.1638,8.1638,8.1431,8.1431,8.1603,8.1741,8.15,8.1638,8.2017,8.2742,8.3087,8.3638,8.4949,8.5397,8.5708,8.6225,8.6294,8.6294,8.6294,8.6294,8.6294,8.6294,8.6294,8.6761,8.796,9.0435,9.2321,9.3148,9.4845,9.5859,9.5859,9.5859,9.6135,9.6685,9.6685,9.6685,9.6685,9.6685,9.6832,9.7089,9.764,9.8447,9.9512,9.9989,10.0686,3.2223,3.18,3.2179,3.3741,3.5846,3.8951,4.4225,4.5432,4.6707,5.1272,5.103,4.9789,4.8996,5.01,5.1617,5.3149,5.5322,5.7322,5.8788,5.8995,5.9237,5.9835,6.0063,6.0232,0.0,0.0,0.0,0.0,0.0,0.0,0.0,6.3283,6.3377,6.36,6.3396,6.3396,6.36,6.4324,6.4703,6.4703,6.6255,6.7359,6.8083,6.8083,6.8083,6.8152,6.8931,6.9725,7.0449,7.1187,7.1498,7.1588,7.2381,7.314,7.3899,7.4624,7.5878,7.7201,7.7201,7.7201,7.7201,7.7201,7.8235,7.9477,7.9477,8.0569,8.181,8.181,8.1201,8.058,8.058,8.119,8.1603,8.0787,8.1224,8.2017,8.2742,8.35,8.4259,8.5052,8.5811,8.6294,8.6294,8.6294,8.6294,8.6294,8.6294,8.6294,8.6329,8.6329,8.6993,8.8744,9.1121,9.3012,9.4017,9.5705,9.6685,9.6685,9.6685,9.6685,9.6685,9.6685,9.6685,9.6685,9.6685,9.7089,9.7897,9.7916,9.8704,10.0283,10.0283,10.0686,3.1292,3.1765,3.3214,3.5846,3.941,4.3401,4.7651,4.7789,4.8169,5.2203,5.2237,5.1479,5.1237,5.1582,5.2375,5.3927,5.5667,5.7322,5.8788,5.8927,5.8943,5.908,5.949,5.974,0.0,0.0,0.0,0.0,0.0,0.0,0.0,6.2612,6.3019,6.3377,6.3189,6.3265,6.36,6.3807,6.4186,6.4703,6.5152,6.6048,6.7325,6.7842,6.8083,6.8118,6.8359,6.8897,6.9725,7.0981,7.1808,7.2312,7.2002,7.2981,7.4546,7.4223,7.543,7.7201,7.7201,7.7201,7.7201,7.7201,7.8235,7.9477,7.9477,8.0569,8.1672,8.1121,8.0787,8.0339,7.9327,8.0017,8.089,8.0649,8.1638,8.2776,8.3511,8.4294,8.5087,8.5846,8.6156,8.6294,8.6294,8.6294,8.6294,8.6294,8.6294,8.6501,8.7018,8.7087,8.7964,9.0263,9.1772,9.3205,9.4756,9.5997,9.6685,9.6685,9.6685,9.6685,9.6685,9.6685,9.6685,9.6685,9.6685,9.6832,9.7052,9.819,9.8998,9.9475,10.0613,10.1294,3.243,3.3569,3.5466,3.8502,4.1585,4.5036,4.9424,5.041,5.103,5.3356,5.3203,5.2686,5.2686,5.2686,5.3065,5.4306,5.574,5.7136,5.8375,5.8617,5.8701,5.8805,5.9024,0.0,0.0,0.0,0.0,0.0,0.0,0.0,0.0,6.2013,6.2578,6.3283,6.3095,6.3208,6.36,6.36,6.3807,6.4255,6.4565,6.5359,6.6585,6.7325,6.7807,6.8118,6.8428,6.9035,6.9828,7.1036,7.1795,7.2174,7.1691,7.2533,7.4016,7.3843,7.505,7.6787,7.7097,7.7201,7.7201,7.7201,7.8235,7.9477,7.9477,8.0362,8.1293,8.1121,8.0614,8.0028,7.9431,7.9855,8.0463,8.0556,8.1776,8.319,8.4259,8.488,8.5407,8.6031,8.5978,8.5924,8.6109,8.5978,8.5949,8.626,8.657,8.6915,8.7363,8.795,8.9189,9.1505,9.2535,9.3825,9.5631,9.6358,9.6685,9.6685,9.6685,9.6685,9.6685,9.6685,9.6685,9.6685,9.6685,9.6869,9.7163,9.8484,9.9255,9.9622,10.0907,10.1514,3.4594,3.6225,3.8261,4.1504,4.3241,4.5368,5.0218,5.2961,5.4478,5.4478,5.3977,5.3494,5.3494,5.3494,5.3736,5.4478,5.5608,5.6727,5.7721,5.8152,5.8475,5.8736,5.8578,0.0,0.0,0.0,0.0,0.0,0.0,0.0,0.0,6.1435,6.198,6.3143,6.2973,6.3102,6.3581,6.3581,6.3581,6.3581,6.4289,6.5014,6.5826,6.6654,6.7394,6.8152,6.8862,6.9656,7.0449,7.1139,7.1463,7.1601,7.1429,7.1967,7.2864,7.3485,7.4705,7.6201,7.6925,7.7201,7.7201,7.7132,7.8166,7.95,7.9408,7.9994,8.0832,8.15,8.0614,7.9626,8.0281,8.0289,8.0229,8.0682,8.1901,8.3349,8.488,8.5235,8.5401,8.5804,8.5543,8.5401,8.5838,8.5568,8.5535,8.6166,8.6899,8.7382,8.745,8.8786,9.0458,9.238,9.3294,9.4539,9.6397,9.6647,9.6685,9.6685,9.6685,9.6685,9.6685,9.6685,9.6685,9.6685,9.6685,9.7089,9.7916,9.8704,9.9512,10.0319,10.109,10.1514,3.3145,3.5397,3.864,4.3479,4.7962,5.1494,5.2666,5.372,5.4478,5.4478,5.4375,5.4237,5.4237,5.4237,5.4478,5.5237,5.5505,5.6093,5.7483,5.7517,5.77,5.8475,5.8259,0.0,0.0,0.0,0.0,0.0,0.0,0.0,5.9561,6.0122,6.0989,6.2168,6.1999,6.2347,6.3358,6.3358,6.3358,0.0,6.3698,6.422,6.4979,6.6378,6.7394,6.8118,6.829,6.9118,7.0415,7.0587,7.1346,7.2312,7.1105,7.1829,7.352,7.3106,7.4257,7.6201,7.6925,7.7201,7.7097,7.6511,7.7753,7.9396,7.881,7.9843,8.117,8.0912,8.0026,7.9232,7.9381,7.9532,8.0049,8.172,8.2771,8.3773,8.4934,8.5489,8.576,8.5882,8.5804,8.576,8.5882,8.5981,8.6047,8.5983,8.6611,8.7298,8.7951,8.8993,9.0362,9.217,9.3237,9.4275,9.5405,9.6259,9.6685,9.6685,9.6685,9.6685,9.6685,9.6685,9.6685,9.6685,9.6685,9.7089,9.7916,9.8704,9.9512,10.0319,10.109,10.1514,3.4283,3.7329,4.0848,4.579,4.9962,5.2823,5.2823,5.3425,5.4065,5.441,5.4478,5.4478,5.4478,5.4478,5.4601,5.4883,5.5181,5.5648,5.6319,5.6508,5.688,5.7735,5.7554,0.0,0.0,0.0,0.0,0.0,0.0,5.8626,5.8979,5.9351,6.0133,6.1307,6.148,6.1983,6.2769,6.3112,6.3246,6.3152,6.347,6.4186,6.529,6.6462,6.7394,6.8083,6.8083,6.8773,6.9897,7.0242,7.107,7.2002,7.0863,7.1346,7.2692,7.2692,7.3692,7.5223,7.6684,7.7201,7.7063,7.6339,7.7649,7.9362,7.8637,7.9648,8.0966,8.0694,7.9899,7.9196,7.9516,7.9582,8.0035,8.2296,8.3217,8.3959,8.5242,8.5616,8.5712,8.5712,8.554,8.5316,8.5189,8.4982,8.4904,8.5121,8.6123,8.7082,8.787,8.9038,9.0442,9.197,9.2979,9.4016,9.5112,9.6123,9.6685,9.6685,9.6685,9.6685,9.6685,9.6685,9.6685,9.6685,9.6685,9.7089,9.7916,9.8704,9.9512,10.0319,10.109,10.1514,3.5225,3.9399,4.3436,4.772,5.0499,5.2168,5.203,5.2617,5.3425,5.4149,5.441,5.4478,5.4478,5.4478,5.4431,5.4239,5.4772,5.5153,5.5074,5.5485,5.6046,5.6758,5.6719,0.0,0.0,0.0,0.0,0.0,0.0,5.8152,5.8776,5.881,5.9334,6.0432,6.0913,6.1465,6.2093,6.271,6.2977,6.2962,6.3358,6.4305,6.5723,6.6443,6.7236,6.8083,6.8044,6.8512,6.9345,7.0104,7.0808,7.1429,7.0691,7.0843,7.1601,7.2416,7.3175,7.4119,7.6363,7.7178,7.7063,7.6122,7.742,7.9155,7.8292,7.9109,8.0361,8.0361,7.9612,7.9023,7.9843,7.9829,8.0164,8.2579,8.3394,8.4049,8.5505,8.5609,8.5437,8.5437,8.5027,8.4547,8.4233,8.3712,8.3585,8.4404,8.577,8.6973,8.7724,8.9136,9.054,9.178,9.2777,9.3891,9.5112,9.6123,9.6685,9.6685,9.6685,9.6685,9.6685,9.6685,9.6685,9.6685,9.6685,9.7163,9.8117,9.8778,9.9585,10.0503,10.122,10.1514,3.2007,3.8157,4.4781,4.7996,5.0499,5.203,5.1375,5.1824,5.2582,5.3391,5.408,5.4478,5.4478,5.4478,5.4431,5.4239,5.4276,5.4487,5.4787,5.4924,5.5179,5.5803,5.5852,0.0,0.0,0.0,0.0,0.0,5.79,5.7934,5.8017,5.8069,5.8499,5.9484,5.9417,6.0095,6.1665,6.1768,6.2123,6.2731,6.3133,6.388,6.4876,6.5443,6.6563,6.8083,6.7919,6.8407,6.9345,7.0104,7.0808,7.1429,7.0691,7.0843,7.1601,7.2416,7.3175,7.4098,7.615,7.7009,7.6937,7.5325,7.6493,7.8292,7.6822,7.7754,7.9312,7.9278,7.8565,7.8066,7.926,7.9683,8.0268,8.2343,8.3373,8.4165,8.5309,8.5325,8.5142,8.5142,8.453,8.3884,8.3439,8.3603,8.4095,8.4904,8.6239,8.7463,8.8212,8.9497,9.0751,9.1805,9.2979,9.4106,9.5133,9.6123,9.6685,9.6685,9.6685,9.6685,9.6685,9.6685,9.6685,9.6685,9.6685,9.7456,9.8961,9.9071,9.9879,10.131,10.1384,10.1514,3.4869,4.0193,4.4919,4.7514,4.9582,5.0893,5.0562,5.1065,5.1789,5.2582,5.2996,5.3479,5.4341,5.4399,5.4271,5.411,5.4159,5.4164,5.4075,5.4227,5.4549,5.5041,0.0,0.0,0.0,0.0,0.0,0.0,5.7663,5.79,5.79,5.79,5.816,5.8665,5.8887,5.9429,6.0313,6.1182,6.2078,6.3019,6.2981,6.349,6.4549,6.4977,6.6019,6.7497,6.7727,6.8091,6.867,6.9483,7.0242,7.0843,7.0553,7.0622,7.1036,7.2243,7.2899,7.3498,7.5665,7.6457,7.6386,7.5006,7.5899,7.7296,7.623,7.7285,7.886,7.8555,7.7955,7.7523,7.8084,7.8793,7.9831,8.1555,8.2826,8.3903,8.4815,8.4906,8.4879,8.5037,8.4137,8.3347,8.3552,8.3312,8.347,8.4657,8.6115,8.7335,8.8081,8.9075,8.9894,9.0471,9.2084,9.3354,9.3926,9.5524,9.6511,9.6511,9.6628,9.6685,9.6685,9.6685,9.6685,9.6685,9.7126,9.7933,9.9108,9.9548,10.0393,10.1514,10.1514,10.1514,3.618,3.9951,4.2677,4.5527,4.77,4.9183,4.9375,5.0134,5.103,5.1755,5.1897,5.2295,5.3651,5.3923,5.3866,5.3705,5.3941,5.3997,5.3551,5.3751,5.4004,5.4279,0.0,0.0,0.0,0.0,0.0,0.0,5.7306,5.7697,5.79,5.79,5.7954,5.8099,5.8496,5.8884,5.9235,6.0748,6.1991,6.2878,6.2759,6.3173,6.4065,6.4449,6.5337,6.6583,6.7387,6.7839,6.8073,6.8946,6.9684,7.0333,7.0394,7.0415,7.0587,7.214,7.2588,7.274,7.5157,7.5871,7.5574,7.4746,7.541,7.6381,7.5559,7.6702,7.8184,7.7672,7.7221,7.7016,7.7318,7.8394,7.9769,8.1224,8.2712,8.393,8.4478,8.4614,8.4626,8.4694,8.3762,8.3091,8.3464,8.3045,8.3118,8.4411,8.573,8.6941,8.7888,8.8546,8.9141,8.9806,9.1305,9.2596,9.3308,9.4985,9.612,9.6375,9.657,9.6685,9.6685,9.6685,9.6795,9.7016,9.7787,9.8484,9.9108,9.9916,10.0686,10.1514,10.1514,10.1514,3.2179,3.4456,3.6743,4.1193,4.4561,4.6962,4.7651,4.8962,5.0272,5.0996,5.1064,5.1245,5.2138,5.2769,5.3094,5.2903,5.3518,5.3882,5.3534,5.3601,5.3685,5.3568,0.0,0.0,0.0,0.0,0.0,0.0,5.6833,5.7171,5.7866,5.79,5.79,5.7918,5.7934,5.8287,5.8998,6.0554,6.1433,6.1696,6.2406,6.2842,6.3087,6.3606,6.4375,6.5377,6.6881,6.7618,6.7908,6.8886,6.9603,7.0127,7.0333,7.0415,7.0587,7.214,7.2209,7.196,7.4753,7.5271,7.4609,7.4318,7.4933,7.5581,7.4569,7.5515,7.6816,7.6354,7.619,7.6425,7.7634,7.905,8.0513,8.2002,8.3464,8.4546,8.458,8.4614,8.4377,8.3719,8.3516,8.3246,8.2577,8.3016,8.3727,8.4478,8.5317,8.6393,8.782,8.8272,8.9075,9.0746,9.1254,9.227,9.4239,9.4713,9.5322,9.6335,9.657,9.6685,9.6685,9.6685,9.7052,9.7843,9.8631,9.9071,9.9108,9.9916,10.0686,10.1514,10.1514,10.1514,3.142,3.3672,3.5949,3.9054,4.2125,4.4747,4.5962,4.7789,4.9444,5.0237,5.0258,5.0267,5.0705,5.1501,5.2225,5.2734,5.2961,5.3173,5.345,5.3635,5.3651,5.3534,0.0,0.0,0.0,0.0,0.0,0.0,0.0,5.7137,5.7866,5.79,5.79,5.79,5.79,5.8254,5.8979,6.0013,6.0905,6.1624,6.2237,6.2596,6.2823,6.3357,6.4123,6.5056,6.6092,6.7031,6.7854,6.8209,6.9048,7.012,7.0312,7.0622,7.1028,7.208,7.2647,7.3167,7.4513,7.4802,7.4621,7.4899,7.4798,7.4571,7.4684,7.5365,7.6077,7.6122,7.6354,7.6845,7.7764,7.9456,8.1257,8.2746,8.3524,8.3761,8.3261,8.3558,8.3693,8.2949,8.278,8.2881,8.3084,8.3727,8.4275,8.4546,8.5689,8.6535,8.6569,8.7524,8.8388,8.9001,9.0831,9.2256,9.2943,9.4604,9.5724,9.61,9.6492,9.6942,9.7456,9.7456,9.786,9.8668,9.9475,9.9879,9.9879,10.0686,10.12,10.1514,10.1514,10.1514,3.0179,3.2145,3.4362,3.7111,3.9365,4.1676,4.4708,4.6569,4.8017,4.9341,4.9639,4.9752,4.9982,5.0401,5.1078,5.224,5.2474,5.272,5.3399,5.3584,5.3618,5.3501,0.0,0.0,0.0,0.0,0.0,0.0,0.0,0.0,5.7476,5.7764,5.79,5.79,5.79,5.8118,5.8626,5.937,6.019,6.1102,6.1748,6.2222,6.261,6.2981,6.3746,6.4836,6.5325,6.633,6.7597,6.7658,6.8549,6.9912,7.0189,7.0595,7.1174,7.1979,7.2725,7.3349,7.39,7.4109,7.4167,7.473,7.4446,7.4014,7.467,7.5323,7.5852,7.5923,7.6404,7.7063,7.7807,7.9659,8.1596,8.2847,8.3118,8.3016,8.2509,8.278,8.305,8.2813,8.278,8.3016,8.3761,8.4275,8.4614,8.4614,8.5459,8.6061,8.5851,8.6636,8.7448,8.7955,9.0045,9.164,9.227,9.4297,9.5699,9.61,9.6748,9.7346,9.7879,9.8154,9.8668,9.9512,9.9989,10.0393,10.0686,10.12,10.1514,10.1514,10.1514,10.1514,0.0,0.0,0.0,3.5214,3.618,3.7767,4.3811,4.519,4.588,4.8258,4.9177,4.9649,4.9933,4.9564,4.9736,5.1405,5.2003,5.257,5.3348,5.3484,5.3518,5.3518,0.0,0.0,0.0,0.0,0.0,0.0,5.5277,5.6003,5.6765,5.7476,5.79,5.79,5.79,5.79,5.79,5.8626,5.9351,6.0114,6.0926,6.167,6.24,6.24,6.3193,6.4613,6.4613,6.5583,6.7201,6.7428,6.8239,6.942,6.9885,7.0365,7.0926,7.1893,7.2288,7.2438,7.2905,7.3113,7.3239,7.3765,7.3946,7.4002,7.4494,7.5333,7.6051,7.5815,7.6318,7.7096,7.7899,7.9726,8.152,8.2205,8.2374,8.2374,8.2374,8.2374,8.2611,8.3321,8.349,8.3727,8.4444,8.458,8.458,8.458,8.458,8.485,8.5621,8.575,8.6325,8.7842,8.9,9.0464,9.2454,9.3791,9.5085,9.6352,9.734,9.7897,9.797,9.8704,9.9455,10.0283,10.0283,10.0686,10.1514,10.1514,10.1514,10.1514,10.1514,10.1514,2.8351,0.0,0.0,0.0,0.0,0.0,0.0,4.0054,4.1717,4.6259,4.6701,4.7001,4.936,4.9456,4.9535,5.0584,5.1176,5.1776,5.2536,5.3145,5.3518,5.3518,0.0,0.0,0.0,0.0,0.0,0.0,5.4769,5.5446,5.6731,5.7476,5.79,5.79,5.79,5.79,5.79,5.8626,5.9351,6.0114,6.0926,6.167,6.24,6.24,6.3193,6.4613,6.4613,6.55,6.6917,6.718,6.8127,6.9378,6.9115,6.9995,7.137,7.1073,7.2146,7.3589,7.306,7.3583,7.448,7.4649,7.4579,7.4551,7.5192,7.5588,7.594,7.6444,7.7096,7.8111,7.9929,8.1224,8.2002,8.1663,8.1596,8.1596,8.1596,8.1596,8.1832,8.2577,8.3152,8.3558,8.3761,8.4242,8.4411,8.3896,8.3795,8.3896,8.4099,8.4606,8.5807,8.8146,8.9754,9.1448,9.3295,9.4655,9.583,9.6919,9.7239,9.8058,9.9585,9.9153,9.9316,10.0283,10.0283,10.0393,10.0613,10.12,10.1514,10.1514,10.1514,10.122,2.9455,3.0455,0.0,3.243,0.0,0.0,3.7858,3.8503,3.9606,0.0,4.5601,4.5905,4.8321,4.8563,4.8609,4.9313,5.0177,5.1116,5.2164,5.2706,5.3112,5.345,0.0,0.0,0.0,5.3518,5.3687,5.4093,5.4431,5.5243,5.6731,5.7476,5.79,5.79,5.79,5.79,5.79,5.8321,5.9066,6.0114,6.0588,6.1366,6.24,6.24,6.3193,6.4613,6.4613,6.5459,6.6812,6.6972,6.7917,6.9228,6.868,6.9693,7.1399,7.0741,7.1825,7.3469,7.2507,7.3198,7.4524,7.4409,7.4473,7.4739,7.5473,7.5946,7.6284,7.6758,7.7638,7.8822,8.0412,8.1156,8.1359,8.0919,8.108,8.1384,8.1697,8.2002,8.234,8.278,8.3219,8.3592,8.393,8.4309,8.4444,8.4031,8.3964,8.3964,8.3964,8.464,8.5822,8.7636,8.9791,9.1679,9.3179,9.4763,9.5995,9.6656,9.7005,9.7787,9.9116,9.8943,9.913,9.9805,9.9805,9.9952,10.0283,10.109,10.1514,10.1514,10.122,10.0907,3.1154,3.1972,0.0,3.4535,3.3017,0.0,3.8468,3.8456,3.8606,0.0,4.4531,4.5064,4.6659,4.6876,4.6959,4.7408,4.8753,5.0286,5.1826,5.2131,5.2469,5.3281,0.0,0.0,5.3484,5.3518,5.3518,5.3518,5.416,5.5209,5.6596,5.7374,5.7832,5.79,5.79,5.79,5.79,5.79,5.8626,6.0114,6.0114,6.0892,6.24,6.24,6.3193,6.4613,6.4613,6.5459,6.6791,6.6791,6.7726,6.9033,6.84,6.9422,7.1233,7.0585,7.1374,7.2643,7.1717,7.2531,7.3945,7.3705,7.4119,7.4864,7.5506,7.6251,7.6927,7.7096,7.8145,7.9397,8.004,8.0209,8.0209,8.0209,8.075,8.1494,8.2238,8.2983,8.3524,8.3625,8.3625,8.3828,8.4478,8.4614,8.4614,8.4614,8.4512,8.4512,8.458,8.5215,8.6014,8.6996,8.9396,9.1413,9.2622,9.4422,9.5654,9.6069,9.6782,9.7341,9.7708,9.8314,9.8743,9.8941,9.8961,9.9402,10.0283,10.098,10.1404,10.1404,10.0686,10.0796,3.2697,3.3145,3.3638,3.2706,0.0,0.0,3.2948,3.4094,3.606,0.0,3.9225,4.0346,4.3072,4.4,4.4157,4.3552,4.5698,4.8188,5.0236,5.1048,5.1674,5.2435,0.0,0.0,5.345,5.3518,5.3518,5.3518,5.416,5.4972,5.5868,5.663,5.7273,5.79,5.79,5.79,5.79,5.79,5.8626,6.0114,6.0114,6.0892,6.24,6.24,6.3193,6.4613,6.4613,6.5459,6.6791,6.6791,6.7726,6.8977,6.7633,6.883,7.1142,6.9833,7.0702,7.2462,7.2248,7.3195,7.4437,7.439,7.4897,7.5506,7.5676,7.6251,7.7164,7.8348,7.9329,8.0006,8.0175,8.0209,8.0209,8.0209,8.075,8.1494,8.2238,8.2983,8.3693,8.4275,8.4377,8.4411,8.458,8.4614,8.4614,8.4614,8.4072,8.393,8.4512,8.4749,8.5664,8.7873,8.9165,9.0882,9.3342,9.393,9.4885,9.6624,9.6884,9.7433,9.8533,9.8094,9.7937,9.8117,9.8117,9.8851,10.0283,10.0503,10.0503,10.0503,10.098,10.098,3.4456,3.4604,3.5121,3.4742,0.0,0.0,0.0,3.3967,3.4621,3.7292,3.7113,3.7422,4.0372,4.0904,4.1091,4.167,4.4282,4.6515,4.724,4.9255,5.0947,5.1641,0.0,0.0,5.2841,5.2909,5.3078,5.3484,5.416,5.4769,5.5141,5.619,5.6968,5.734,5.7712,5.79,5.79,5.79,5.8626,6.0114,6.0114,6.0892,6.2415,6.2787,6.3565,6.4613,6.4986,6.5797,6.6825,6.7218,6.7793,6.8436,6.7658,6.8741,7.0669,6.9925,7.0567,7.1921,7.2259,7.3375,7.4603,7.4603,7.5371,7.6217,7.5811,7.6521,7.7739,7.9228,7.9904,8.0209,8.0209,8.0209,8.0276,8.0648,8.1291,8.2035,8.278,8.3524,8.4167,8.4512,8.4614,8.4614,8.4614,8.4614,8.4614,8.4614,8.4275,8.4336,8.5114,8.552,8.6379,8.8023,8.936,9.0957,9.2884,9.3518,9.4513,9.6214,9.6313,9.67,9.7582,9.7216,9.7095,9.7309,9.7676,9.8484,9.9695,10.0099,10.0503,10.0907,10.0907,10.0907,0.0,0.0,0.0,0.0,0.0,3.4904,0.0,0.0,0.0,0.0,0.0,0.0,0.0,0.0,0.0,0.0,0.0,0.0,0.0,4.6665,0.0,5.022,0.0,0.0,5.1826,5.1623,5.2029,5.3416,5.3518,5.3839,5.4583,5.5852,5.6664,5.6799,5.7509,5.79,5.79,5.79,5.8626,6.0114,6.0114,6.0892,6.2434,6.3139,6.3883,6.4647,6.5358,6.6102,6.6859,6.759,6.7827,6.7726,6.803,6.8977,7.0217,7.0217,7.0669,7.1424,7.2326,7.3409,7.4424,7.4728,7.5777,7.6792,7.6284,7.7096,7.8483,7.9803,8.0209,8.0209,8.0209,8.031,8.0547,8.1181,8.1968,8.278,8.3355,8.4099,8.4614,8.4614,8.4614,8.4614,8.4614,8.4614,8.4614,8.4614,8.4715,8.508,8.5723,8.6569,8.7347,8.7955,8.9632,9.1143,9.2228,9.3203,9.4347,9.5633,9.5736,9.5939,9.6375,9.6433,9.6604,9.6906,9.7566,9.8374,9.9328,9.9989,10.0686,10.1514,10.0796,10.0927,0.0,0.0,0.0,0.0,3.8709,0.0,0.0,0.0,3.4982,3.274,0.0,0.0,0.0,0.0,0.0,0.0,0.0,0.0,4.0616,4.2679,4.4945,4.7056,0.0,0.0,0.0,4.9187,4.9814,5.3247,5.1116,5.1082,5.4397,5.5378,5.6105,5.6799,5.7509,5.79,5.79,5.79,5.8626,6.0114,6.0114,6.0892,6.2434,6.3139,6.3883,6.4647,6.5358,6.6102,6.6859,6.759,6.7523,6.7083,6.8436,6.9451,7.0217,7.0217,7.0669,7.1492,7.2868,7.3477,7.3815,7.5134,7.6183,7.6995,7.757,7.8314,7.916,7.9972,8.0209,8.0209,8.0209,8.0682,8.1215,8.1283,8.234,8.3389,8.349,8.4099,8.4614,8.4614,8.4614,8.4614,8.4614,8.4614,8.4614,8.4614,8.5215,8.5689,8.5784,8.7008,8.7922,8.7989,8.9632,9.1143,9.2228,9.3203,9.4347,9.5633,9.5879,9.608,9.6375,9.655,9.6996,9.775,9.7843,9.8631,10.0209,10.0283,10.0686,10.1514,10.1404,10.1404,0.0,0.0,0.0,0.0,0.0,0.0,3.4171,0.0,3.3751,0.0,0.0,0.0,0.0,0.0,0.0,0.0,3.6941,0.0,0.0,0.0,4.278,0.0,0.0,0.0,0.0,0.0,0.0,0.0,5.0202,5.027,5.3112,5.482,5.5834,5.6139,5.7273,5.79,5.79,5.79,5.8626,6.0114,6.0114,6.0892,6.2434,6.3599,6.4309,6.4647,6.5831,6.6508,6.6893,6.8098,6.8132,6.7624,6.962,7.006,6.9654,7.0534,7.1312,7.209,7.3161,7.4075,7.4965,7.6048,7.6623,7.7029,7.7773,7.8517,7.9261,8.0006,8.0209,8.031,8.0716,8.108,8.152,8.2374,8.305,8.3625,8.4065,8.4377,8.4614,8.4614,8.4614,8.4614,8.4614,8.4614,8.4749,8.5215,8.5587,8.6122,8.6974,8.7617,8.8158,8.8564,8.9872,9.1143,9.2228,9.3203,9.4347,9.5633,9.5879,9.604,9.614,9.687,9.7391,9.7721,9.8755,9.9622,10.0283,10.0796,10.122,10.1514,10.1514,10.1514,4.2724,0.0,0.0,0.0,0.0,0.0,0.0,0.0,0.0,0.0,0.0,0.0,0.0,0.0,0.0,0.0,0.0,3.6896,0.0,0.0,0.0,0.0,0.0,0.0,0.0,0.0,0.0,0.0,0.0,4.8868,5.2131,5.4093,5.5293,5.5699,5.6934,5.7697,5.79,5.8084,5.8829,6.0114,6.0317,6.1129,6.2415,6.3734,6.441,6.4681,6.5967,6.6609,6.6927,6.847,6.8639,6.8132,7.041,7.0534,6.9553,7.0816,7.1785,7.2496,7.324,7.4458,7.5845,7.6657,7.7029,7.7333,7.8077,7.8822,7.9532,8.004,8.0209,8.0378,8.1088,8.1426,8.19,8.3186,8.3659,8.3964,8.4478,8.4614,8.4614,8.4614,8.4614,8.4614,8.4614,8.4783,8.5148,8.5689,8.6156,8.6771,8.7854,8.8158,8.8497,8.9066,9.0077,9.1143,9.2228,9.3203,9.4347,9.5633,9.5879,9.6109,9.6328,9.7133,9.7802,9.8241,9.9596,10.0393,10.0613,10.12,10.1514,10.1514,10.1514,10.1514,0.0,0.0,0.0,4.0962,0.0,0.0,0.0,0.0,3.6545,0.0,0.0,0.0,0.0,0.0,0.0,0.0,0.0,0.0,0.0,0.0,0.0,0.0,0.0,0.0,0.0,0.0,0.0,0.0,4.6061,0.0,5.1995,5.3112,5.4211,5.5665,5.6461,5.7171,5.79,5.8626,5.9351,6.0114,6.0892,6.167,6.2434,6.3193,6.3917,6.4647,6.5392,6.6136,6.6927,6.847,6.8639,6.8132,7.041,7.0838,7.0263,7.1041,7.1785,7.2496,7.324,7.4458,7.5845,7.6657,7.7367,7.8077,7.8855,7.96,8.0175,8.0175,8.0209,8.0378,8.1088,8.1832,8.2577,8.3321,8.4065,8.458,8.458,8.4614,8.4614,8.4614,8.4614,8.4614,8.4614,8.5249,8.5757,8.5817,8.7008,8.7955,8.7989,8.8598,8.9066,8.91,9.0077,9.1143,9.2228,9.3203,9.4347,9.5633,9.5879,9.6328,9.7114,9.7426,9.8314,9.9887,10.0219,10.0686,10.1514,10.1514,10.1514,10.1514,10.1514,10.1514,0.0,0.0,4.9165,4.3757,0.0,0.0,0.0,0.0,0.0,0.0,0.0,0.0,0.0,0.0,0.0,0.0,0.0,0.0,0.0,0.0,0.0,0.0,0.0,0.0,0.0,0.0,0.0,0.0,4.4553,0.0,0.0,5.2029,5.3653,5.5631,5.6427,5.7137,5.79,5.8626,5.9351,6.0114,6.0926,6.167,6.2434,6.3666,6.4377,6.4681,6.5899,6.6846,6.7557,6.8098,6.8741,6.9485,7.0263,7.0737,7.0973,7.1188,7.209,7.3308,7.4525,7.527,7.5845,7.6657,7.7401,7.8145,7.8889,7.9634,8.0209,8.0209,8.0547,8.1088,8.1832,8.2577,8.3321,8.4039,8.4411,8.4614,8.4614,8.4614,8.4614,8.4614,8.4614,8.4749,8.5317,8.6027,8.6535,8.6535,8.738,8.8158,8.8694,8.8965,8.91,8.91,9.0077,9.1143,9.2228,9.3862,9.5029,9.5467,9.6058,9.6535,9.679,9.8162,9.9171,9.9718,10.0579,10.12,10.1514,10.1514,10.1514,10.1514,10.1514,10.1514,5.011,5.0882,0.0,4.68,4.5631,0.0,3.9725,0.0,0.0,0.0,0.0,0.0,0.0,0.0,0.0,0.0,0.0,0.0,0.0,3.1166,0.0,0.0,0.0,0.0,0.0,0.0,4.0696,4.433,4.2861,4.4012,0.0,0.0,5.2672,5.5243,5.6021,5.69,5.79,5.8896,5.9641,6.0114,6.1163,6.1941,6.2434,6.3666,6.4343,6.4681,6.5899,6.6981,6.7929,6.8199,6.9079,7.0251,7.0466,7.0872,7.1323,7.1594,7.2631,7.4052,7.527,7.5879,7.6251,7.7029,7.7773,7.8517,7.9261,7.9837,8.0209,8.0209,8.0716,8.146,8.2205,8.2949,8.3693,8.4411,8.4614,8.4614,8.4614,8.4614,8.4614,8.4614,8.4817,8.5182,8.5689,8.6636,8.7279,8.7279,8.7922,8.8564,8.9066,8.91,8.91,8.91,8.9697,9.0701,9.2179,9.3875,9.4986,9.5398,9.618,9.6745,9.712,9.8713,9.9781,10.0193,10.0982,10.1514,10.1514,10.1514,10.1514,10.1514,10.1514,10.1514]}]]